GFSNW_250_rhum_000.txt.gz
RH
2 2 2 2 3 3 3 4 7 10 18 32 42 78 99 94 92 96 100 100 100 100 100 100 86 72 70 99 100 100 99 69 35 22 7 5 4 3 4 5 6 4 5 11
2 2 3 2 3 3 4 5 8 9 15 28 34 64 95 91 100 100 100 100 100 100 100 87 70 95 100 100 100 100 97 58 34 26 18 8 4 4 4 6 8 10 8 6
2 2 3 3 4 4 5 7 9 10 11 15 23 56 97 97 100 100 100 100 100 100 100 72 73 100 100 100 100 98 89 61 46 30 33 22 16 23 16 11 12 11 11 11
3 3 4 4 4 4 5 8 13 15 13 14 21 46 72 86 97 100 100 100 100 100 84 67 100 98 100 100 100 100 79 99 95 81 91 91 76 75 61 32 21 16 17 18
3 3 4 4 5 5 6 8 13 17 17 21 32 45 66 83 95 100 100 100 100 100 70 84 100 100 100 100 94 92 100 93 100 100 100 100 94 77 84 57 40 41 34 35
3 3 4 5 7 6 7 9 10 12 13 18 26 39 55 76 97 100 100 100 100 84 63 97 100 100 100 89 66 82 100 70 100 100 100 100 100 98 99 94 95 95 91 100
3 3 5 6 8 9 9 9 9 13 20 18 18 24 36 61 78 97 100 100 88 71 75 84 89 100 86 92 80 83 100 91 96 86 100 100 100 100 100 100 100 100 84 84
4 4 5 6 10 11 11 10 12 16 16 15 21 28 32 31 38 59 97 78 86 74 81 92 96 100 86 81 70 99 100 84 99 100 98 100 94 97 90 100 100 100 100 100
4 5 5 6 9 11 11 14 16 15 19 24 25 34 42 38 57 85 62 87 85 84 96 93 99 91 88 90 74 100 100 100 100 100 99 100 100 100 100 86 100 86 93 100
4 5 5 6 9 12 14 17 21 25 27 30 32 43 50 49 58 59 82 70 92 88 100 85 94 98 100 99 84 81 84 100 100 100 100 100 100 100 100 100 100 97 89 100
4 5 5 6 8 12 12 18 23 24 28 30 39 39 52 60 68 78 82 74 92 100 100 90 84 100 100 100 88 88 82 80 96 94 100 100 100 100 100 100 100 99 91 99
4 5 5 6 7 11 14 19 24 29 27 31 37 47 61 68 69 87 99 100 99 95 90 90 63 79 81 100 94 100 95 83 91 90 98 94 96 100 100 100 100 99 90 82
4 6 6 6 7 10 14 18 23 31 26 35 41 56 68 70 74 94 99 96 98 91 70 76 85 90 82 88 92 91 98 94 93 98 92 96 96 96 100 99 100 99 79 69
4 6 6 6 6 8 13 21 27 38 31 42 46 58 67 70 76 88 88 84 90 93 94 89 97 91 90 84 80 81 90 94 98 100 100 100 100 100 97 96 93 76 69 52
4 5 6 6 6 8 12 22 27 42 42 46 52 64 71 67 80 98 95 82 86 93 94 91 85 86 94 93 91 83 85 91 98 97 100 100 95 100 92 62 62 50 46 45
4 5 5 6 6 7 9 15 31 48 62 61 68 71 64 72 95 100 94 84 87 88 90 90 79 60 68 74 44 41 53 64 70 82 96 96 88 70 59 58 42 39 39 43
4 5 5 5 6 7 9 18 36 63 65 65 75 78 73 80 92 98 85 99 100 90 86 97 92 69 53 62 50 39 36 37 42 49 55 61 66 65 62 44 38 38 40 41
4 5 4 4 5 6 8 15 24 56 75 71 82 77 80 76 89 92 77 90 100 88 96 94 96 80 69 89 60 54 38 36 36 40 51 72 91 88 99 80 69 70 70 66
4 4 4 3 4 5 7 13 24 51 83 80 91 77 72 78 83 88 71 78 100 92 98 98 97 85 82 96 84 78 68 62 68 79 95 94 100 100 99 96 96 94 89 87
4 4 2 2 2 5 6 9 18 42 65 95 94 88 74 68 76 84 73 73 90 98 94 96 96 97 100 99 91 97 97 100 97 100 100 100 98 97 94 92 86 84 80 75
4 4 1 1 3 4 6 7 14 44 74 92 100 97 89 76 76 73 72 75 91 98 92 94 88 95 100 100 100 100 100 100 100 100 100 100 100 100 100 99 98 89 84 83
5 5 2 1 3 4 5 6 17 46 79 92 100 100 99 88 81 78 72 66 88 98 82 82 77 77 94 100 100 100 100 100 100 100 100 100 100 99 89 82 83 90 99 100
7 6 5 2 3 6 7 8 18 54 81 95 95 94 96 96 99 83 75 77 76 87 95 84 82 82 86 86 86 98 100 100 100 100 100 100 100 100 100 100 100 100 98 92
10 7 7 5 4 8 11 11 23 63 69 72 92 97 100 100 90 84 82 82 86 80 74 78 84 88 99 100 100 95 98 90 86 87 92 94 99 98 95 91 85 82 87 95
11 9 8 7 5 10 14 18 25 45 55 62 82 97 100 91 93 90 93 89 96 100 94 100 82 75 78 94 100 98 95 91 82 86 86 80 84 82 83 83 87 86 78 72
14 13 9 10 6 8 13 22 31 32 39 50 60 89 100 100 99 95 99 100 100 89 85 87 84 75 74 75 88 83 79 76 84 94 99 100 100 94 88 93 98 100 98 89
27 15 14 10 11 7 8 12 25 35 30 32 54 71 99 98 100 100 100 100 100 70 70 84 86 87 81 77 74 85 88 91 100 100 100 100 100 90 78 89 96 100 100 100

GFSNW_250_rhum_003.txt.gz
RH
4 3 2 3 3 3 3 3 4 7 9 12 24 56 74 100 100 100 100 100 100 100 100 100 100 100 100 99 81 78 77 87 76 57 63 43 19 8 5 2 2 2 5 11
5 3 2 3 3 3 3 4 5 8 10 10 30 68 71 100 98 100 100 98 100 100 100 100 100 100 99 78 85 93 90 74 65 66 58 22 18 14 10 6 4 4 4 8
5 3 3 4 4 4 3 4 6 7 9 12 32 66 65 96 99 100 100 99 100 100 100 100 100 100 88 89 80 75 86 70 58 44 62 54 46 32 18 16 10 7 7 7
7 3 3 4 4 5 5 4 6 9 10 13 24 41 61 92 100 100 100 100 100 100 100 100 100 99 88 85 71 75 78 70 79 68 85 85 94 87 77 57 32 15 12 9
8 4 3 4 4 5 6 6 7 9 9 11 15 32 57 76 100 100 100 100 100 100 100 100 100 97 84 87 80 89 79 76 100 91 100 100 95 98 82 74 58 34 20 15
10 5 4 4 5 5 8 7 7 9 10 13 21 27 52 70 100 100 100 100 100 100 100 100 92 92 87 80 65 100 66 92 100 100 86 100 100 100 94 98 77 65 36 30
12 6 4 4 6 6 8 9 9 10 10 12 23 33 49 74 87 96 100 100 100 100 100 91 96 88 79 60 94 78 60 90 100 100 93 88 100 100 100 100 100 93 63 70
16 6 4 5 6 8 8 9 9 9 10 12 16 28 47 76 88 100 100 100 100 100 100 84 92 78 79 78 87 72 80 82 100 100 86 97 100 87 100 100 100 100 100 99
17 7 5 6 6 8 9 12 13 11 12 12 16 21 37 63 83 99 100 100 100 100 91 74 64 65 60 74 84 96 84 100 87 98 100 100 80 100 100 100 98 100 100 100
19 8 5 6 6 8 9 12 13 15 15 15 15 18 28 43 69 72 98 100 100 96 76 68 64 66 61 83 94 100 89 90 99 100 100 100 100 100 100 100 100 100 100 96
17 10 6 6 6 8 11 13 15 16 17 18 17 20 22 33 48 59 96 99 98 90 80 65 65 60 66 78 100 99 100 100 100 86 79 81 100 100 100 100 100 100 100 100
19 13 7 7 7 7 10 12 15 20 21 23 23 24 29 33 40 61 88 90 85 71 59 63 70 74 74 81 100 100 100 100 100 100 96 98 91 95 100 100 100 100 100 100
17 16 8 6 8 7 11 12 18 24 32 30 28 28 40 38 44 59 76 80 66 60 72 70 75 77 86 88 98 100 100 100 100 100 99 100 97 90 93 98 100 100 100 98
14 16 8 5 7 7 10 13 16 25 35 42 33 30 44 58 70 69 64 73 66 55 69 86 75 64 73 80 69 79 86 99 100 100 100 100 100 100 96 94 88 98 92 94
13 15 7 5 6 6 8 11 15 20 31 47 45 50 63 64 62 74 83 82 66 70 84 87 86 84 82 75 71 76 83 96 100 100 100 98 100 100 100 100 95 94 69 73
14 13 7 4 6 6 6 9 12 18 34 49 54 53 65 70 73 95 95 80 63 72 76 80 72 85 90 83 61 63 62 80 82 87 86 100 96 100 100 100 88 76 66 64
15 12 6 4 6 6 7 10 13 20 33 51 58 74 70 77 84 98 82 76 80 76 71 83 98 88 74 66 62 75 60 49 54 62 69 74 89 91 100 93 75 67 65 62
16 11 5 4 5 5 6 8 10 15 32 50 76 87 74 79 95 92 72 76 81 77 74 88 93 79 80 76 62 54 40 37 41 44 55 64 87 100 96 85 73 64 70 72
16 9 5 4 2 3 6 7 8 11 20 48 82 90 79 79 92 94 76 85 86 78 73 81 89 80 81 77 82 69 47 41 41 44 49 49 64 76 85 98 98 93 95 99
16 9 4 4 1 2 3 6 9 9 18 44 76 86 87 85 94 92 79 92 99 87 78 78 74 78 81 91 90 94 88 62 64 76 84 81 86 88 91 98 93 88 83 82
14 12 5 4 1 2 2 6 9 15 23 35 61 80 90 95 95 91 75 80 96 99 96 91 79 84 82 86 94 100 100 100 98 96 89 89 95 98 93 86 80 80 83 83
15 16 6 5 1 3 3 8 11 18 26 38 47 71 95 100 97 94 84 76 83 98 99 97 96 93 84 90 99 100 95 94 93 96 94 93 94 93 87 80 80 78 79 85
18 21 7 6 3 5 6 10 11 17 26 28 38 70 98 100 100 96 85 77 76 83 90 96 99 99 99 99 100 100 98 100 100 100 100 100 100 100 100 99 100 99 95 96
28 29 13 7 5 4 10 18 19 19 22 23 34 58 90 95 94 93 96 88 78 89 93 99 97 86 92 99 98 100 100 96 95 99 100 100 100 100 100 100 100 100 100 99
40 36 27 11 8 7 6 16 26 27 28 24 30 43 81 85 92 86 88 91 82 87 85 100 100 96 92 100 100 100 98 97 100 100 100 97 98 97 98 92 84 86 80 86
50 49 45 22 13 8 8 7 13 22 24 26 25 38 64 93 90 92 93 98 96 78 77 92 100 100 97 99 100 100 100 100 100 99 99 99 97 98 90 85 98 100 100 100
46 63 55 41 23 16 9 9 10 10 14 19 23 31 54 85 100 100 100 100 95 74 71 78 88 96 99 93 89 100 100 100 100 99 96 97 96 100 100 100 100 100 100 100

GFSNW_250_rhum_006.txt.gz
RH
6 6 3 2 3 3 3 3 3 4 6 9 20 43 57 84 88 85 100 99 83 88 100 94 96 100 100 100 96 92 69 63 63 75 75 89 79 48 31 24 14 5 2 1
5 6 3 2 3 4 3 3 3 5 8 11 20 42 56 99 99 95 98 97 100 100 100 97 88 99 99 100 88 69 70 73 73 81 76 92 91 82 39 22 14 7 4 2
6 8 4 2 3 4 4 4 4 6 9 14 29 58 80 100 100 94 88 99 100 100 100 97 98 100 100 93 74 76 81 76 74 68 98 100 92 83 71 41 21 14 10 6
7 8 4 3 4 5 5 6 5 7 10 15 40 59 99 100 95 96 96 100 100 100 100 96 100 100 98 82 88 83 89 85 85 67 83 100 100 98 74 65 51 24 14 11
8 8 6 3 4 6 7 8 7 7 11 20 33 56 97 99 97 94 100 100 100 100 100 100 100 100 76 90 84 89 92 90 81 95 76 100 100 100 100 63 66 50 26 16
8 7 8 4 4 6 7 8 9 8 10 17 31 56 88 100 100 100 100 100 100 100 100 96 100 98 92 94 80 98 98 89 90 78 92 94 100 100 100 100 63 62 62 56
10 8 12 5 4 6 9 9 11 10 10 15 31 50 67 97 97 99 100 100 100 100 90 100 100 94 96 85 82 80 93 85 66 90 92 80 87 100 100 100 94 62 61 61
10 9 15 8 5 5 8 9 11 15 10 14 20 40 62 88 96 100 100 100 100 100 94 100 100 100 82 83 86 92 71 93 71 79 69 85 98 100 96 100 100 98 72 63
11 10 15 15 6 6 6 10 11 15 14 11 15 28 47 65 90 100 100 100 100 100 97 100 100 88 88 84 78 72 66 90 72 78 64 73 100 100 100 100 100 100 100 90
13 12 12 21 10 7 7 10 12 13 15 14 14 20 39 58 72 96 100 100 100 100 98 100 92 87 84 84 77 67 71 82 79 70 93 92 100 98 100 100 100 100 100 100
14 13 14 21 13 8 8 8 12 11 14 17 15 20 28 45 64 85 100 100 100 100 100 99 81 83 78 84 76 64 76 96 94 85 97 100 100 100 98 100 100 100 100 100
15 14 13 26 15 9 8 8 13 14 18 22 20 20 27 38 53 75 99 100 100 100 94 91 79 83 77 84 87 71 85 99 97 100 100 100 100 100 100 100 98 100 100 100
14 14 13 28 16 8 8 8 10 13 18 22 22 25 27 37 49 71 94 100 100 93 90 88 75 80 71 73 74 80 92 100 99 92 96 100 100 100 100 100 96 100 98 100
13 13 13 25 13 7 7 7 8 15 15 22 24 26 27 34 51 70 90 97 93 88 88 78 77 68 70 68 67 79 90 96 96 93 90 91 94 88 98 95 90 100 94 98
11 11 13 21 9 6 7 6 8 12 16 22 26 30 30 32 46 66 83 86 84 78 79 76 71 70 79 84 88 78 69 83 92 87 84 83 82 88 97 82 92 100 87 79
11 11 14 17 7 5 7 5 8 11 14 20 26 34 37 37 41 51 58 58 60 79 68 65 80 89 92 95 72 63 66 81 84 78 82 77 78 91 91 94 96 93 77 59
11 10 17 14 6 5 6 6 7 11 15 18 26 42 45 45 40 38 43 54 65 68 63 78 89 94 95 88 71 92 99 84 76 69 63 69 73 81 82 100 98 74 72 60
10 10 18 11 5 4 3 4 6 12 14 19 29 43 60 56 51 59 77 85 86 61 71 78 89 98 100 99 92 65 53 49 50 50 54 58 65 81 96 86 74 68 62 62
10 10 16 7 5 4 1 3 6 11 13 20 31 45 65 63 77 84 100 100 84 64 75 80 88 92 100 90 90 76 57 41 36 37 41 45 52 66 62 68 63 67 58 74
11 10 16 6 4 2 1 2 6 8 12 18 26 41 62 74 84 99 96 96 95 85 82 86 89 100 100 87 88 83 61 46 45 45 43 43 47 53 69 80 81 92 86 90
12 10 19 8 5 2 2 2 5 9 13 13 25 40 59 76 92 100 97 98 97 86 85 92 99 95 95 94 94 90 89 75 57 52 54 60 76 85 97 100 96 100 100 100
13 12 21 13 6 4 3 4 8 12 12 14 22 32 58 79 97 100 100 100 98 91 88 88 99 93 98 90 96 99 100 100 96 95 95 89 86 86 93 91 90 100 100 96
16 14 17 28 8 7 5 6 13 16 13 13 21 36 52 74 93 97 97 100 100 93 92 100 100 100 100 100 89 86 91 100 100 100 100 100 99 98 98 100 100 94 93 94
18 16 13 30 21 8 8 5 13 17 13 12 25 36 52 62 89 95 93 97 97 100 100 100 100 100 100 100 100 88 84 91 100 100 100 100 100 100 100 100 100 98 99 93
19 21 17 25 36 21 10 10 10 12 14 14 24 39 46 62 80 91 88 93 95 98 90 100 100 100 100 100 100 100 100 100 100 100 100 100 100 100 100 99 98 95 91 93
16 26 20 29 45 40 23 10 11 13 10 9 21 32 41 58 76 92 97 87 89 86 83 88 89 83 92 100 100 100 100 100 100 100 100 100 100 100 100 100 100 100 99 92
17 26 24 25 41 55 46 26 15 9 15 14 13 24 32 50 68 99 92 86 79 75 80 87 94 100 97 94 100 100 100 100 100 100 100 100 100 100 100 100 100 100 99 96

GFSNW_250_rhum_009.txt.gz
RH
7 6 8 3 3 3 3 4 3 3 5 7 11 24 52 64 88 87 92 100 100 100 90 64 50 55 69 77 91 87 90 100 100 92 82 65 66 75 77 80 71 38 27 21
8 7 10 3 3 4 4 4 4 4 6 7 18 37 56 78 92 85 90 95 99 100 84 65 61 60 75 86 90 99 100 94 83 73 69 78 85 93 79 73 85 73 34 15
8 10 11 4 3 4 5 6 6 6 7 10 19 39 57 70 81 92 90 92 100 100 89 71 60 72 79 91 100 99 90 77 81 70 68 91 95 100 96 80 96 88 52 22
7 10 10 8 4 5 6 8 9 7 10 13 28 57 64 63 83 90 91 99 100 100 89 74 71 73 80 100 99 86 77 87 94 85 77 76 99 80 94 72 83 97 77 39
6 10 11 14 5 6 6 10 11 12 9 15 27 52 71 84 91 94 95 98 100 96 76 77 72 81 100 100 90 75 90 96 85 98 89 84 85 82 100 97 100 86 99 58
7 9 11 15 6 6 8 11 13 12 13 16 35 61 84 87 96 100 99 97 100 97 91 89 90 97 100 98 73 86 93 83 84 100 91 78 81 100 100 100 100 100 99 83
11 9 10 13 14 7 8 11 14 16 17 19 40 69 93 83 80 95 99 100 97 100 95 94 98 96 98 80 79 86 96 89 90 78 92 70 100 100 100 100 100 100 90 95
14 12 11 12 20 9 9 11 14 16 17 20 35 70 92 90 93 98 98 97 98 100 95 94 100 85 86 79 97 94 96 88 95 77 66 74 90 99 96 87 92 96 100 100
13 15 14 14 13 20 9 10 12 18 18 20 30 54 82 72 92 100 100 97 94 98 85 90 97 100 100 95 98 98 99 91 82 71 77 80 70 100 92 100 99 74 80 100
17 20 17 16 14 22 11 9 10 15 18 19 24 41 74 72 80 89 100 100 100 92 81 81 95 100 99 100 98 95 93 96 81 80 83 77 78 99 100 100 100 100 100 76
16 23 21 18 18 17 21 9 9 10 17 19 18 36 57 66 80 90 96 100 95 90 78 92 97 100 95 100 99 100 100 87 72 74 79 79 83 90 99 100 99 100 100 100
14 19 22 20 19 19 27 11 9 9 14 17 18 19 37 62 81 90 98 100 97 88 83 95 100 99 98 100 98 99 99 93 86 72 99 80 89 99 91 100 95 100 100 100
14 17 19 18 17 22 30 11 8 9 11 19 20 20 23 43 63 82 95 99 100 91 90 94 96 98 95 78 93 95 91 87 68 69 79 92 90 94 90 92 98 99 100 100
12 14 16 15 17 20 28 10 7 9 8 14 19 19 21 25 52 71 86 97 100 100 100 92 91 95 90 84 92 94 92 90 82 67 66 73 75 70 78 79 91 100 100 88
11 13 14 13 14 20 21 8 6 8 7 13 20 20 19 23 29 58 68 90 100 100 99 91 92 95 95 96 99 100 94 97 88 77 68 64 63 64 70 78 82 94 97 69
10 12 13 12 12 16 13 6 6 7 7 11 20 23 20 23 28 36 59 74 97 97 95 94 88 92 97 99 100 90 80 87 88 75 72 68 60 68 70 79 82 97 85 70
11 12 12 11 12 15 7 5 4 6 6 10 20 22 22 24 30 36 50 65 80 88 100 99 100 99 100 99 79 69 84 92 94 84 70 70 57 61 69 84 82 86 83 82
11 13 11 11 12 13 5 4 3 4 6 9 17 24 25 28 31 40 47 56 65 80 96 100 97 98 96 78 78 90 90 79 71 70 63 62 59 64 69 72 76 75 75 87
11 15 12 12 14 9 4 2 1 3 7 10 18 24 24 34 38 42 46 56 66 80 93 100 96 90 82 95 90 94 84 88 90 71 51 43 42 50 59 62 61 58 77 79
12 17 13 12 13 6 3 1 1 4 8 11 17 26 33 42 44 46 50 56 64 78 84 85 89 86 100 88 91 100 97 83 61 44 39 39 43 43 46 56 60 65 68 79
15 18 14 13 16 6 4 2 3 6 7 10 16 26 35 47 52 56 55 60 68 75 89 95 96 100 97 100 100 100 98 90 55 45 44 46 50 51 56 63 78 76 92 98
19 21 16 13 23 11 6 4 6 7 8 10 13 25 40 49 60 66 66 75 86 99 92 98 98 100 100 100 100 100 100 89 76 69 71 76 77 72 73 92 100 100 100 100
22 21 18 13 25 20 8 7 6 7 10 12 16 27 42 54 63 78 83 89 92 91 97 100 98 100 100 100 100 100 100 100 100 98 98 100 100 100 100 100 100 100 100 100
27 22 21 12 14 35 18 11 8 10 13 15 20 28 37 47 60 76 88 90 82 90 91 92 100 99 100 100 100 100 100 100 100 100 100 100 100 100 100 100 100 100 100 100
29 24 23 16 17 18 39 27 12 11 11 13 22 28 36 48 61 71 88 97 92 95 91 94 99 97 100 100 100 100 100 100 100 99 99 100 100 100 100 100 100 100 100 98
30 27 22 20 20 22 23 44 32 13 12 17 18 24 36 47 59 68 86 93 100 97 91 95 100 94 99 100 100 99 98 98 100 100 100 100 98 99 100 100 100 100 100 100
30 29 24 20 21 24 22 28 49 41 20 11 17 23 25 36 53 71 78 81 83 88 92 96 97 95 92 97 98 100 100 100 100 100 100 100 100 100 100 100 100 100 100 100

GFSNW_250_rhum_012.txt.gz
RH
8 7 9 6 4 3 5 4 4 3 4 5 8 11 16 36 60 77 98 90 82 97 92 95 98 99 98 93 90 83 67 57 54 76 80 96 100 86 61 72 51 66 70 73
8 7 10 7 6 3 6 4 5 5 6 9 12 18 30 57 76 93 93 78 91 98 100 100 100 96 79 66 53 53 61 70 83 88 100 99 67 57 74 50 89 99 81 83
8 7 9 8 8 4 6 5 7 7 9 9 14 24 45 67 88 85 84 97 97 96 100 96 75 54 57 59 60 74 87 88 97 100 92 72 57 59 65 100 89 82 93 79
8 8 8 10 10 6 6 7 8 10 12 12 16 32 58 69 78 79 93 97 95 90 92 70 54 60 56 64 81 90 90 92 88 75 66 67 79 100 99 78 98 94 81 75
10 9 7 8 10 13 6 11 10 12 16 20 22 37 44 71 80 97 100 99 96 97 92 79 61 54 63 81 89 84 86 80 77 85 90 77 99 100 91 100 97 94 86 82
12 10 8 8 10 14 12 12 14 16 18 31 47 61 77 91 86 89 99 98 99 100 99 84 71 72 74 88 79 65 83 99 81 84 100 100 100 100 100 100 91 81 85 96
14 12 10 8 9 12 23 14 18 17 21 37 53 69 91 85 90 98 100 100 98 100 97 80 75 73 76 86 66 79 94 75 88 80 98 88 75 100 100 88 73 75 79 89
15 14 11 12 10 10 15 33 16 23 20 31 65 88 97 83 92 98 98 98 92 100 97 83 73 73 71 72 70 74 86 82 99 96 87 85 88 75 87 95 86 73 64 84
18 15 13 14 14 11 10 18 31 16 24 23 35 87 100 94 87 88 92 95 91 100 98 94 92 81 80 74 70 83 75 99 100 94 82 80 98 88 87 100 100 93 74 76
18 16 14 14 18 16 11 10 24 22 16 25 25 26 56 93 89 92 91 99 100 97 94 100 98 85 80 66 72 83 99 100 100 96 88 77 86 78 86 99 99 100 92 100
15 14 16 14 18 21 17 11 13 29 16 16 24 28 49 66 68 77 86 96 98 99 98 93 99 86 74 66 72 83 97 97 100 99 90 82 86 74 84 86 91 87 96 100
15 13 14 16 18 22 19 15 12 20 29 12 17 20 32 54 67 76 83 92 96 91 93 92 88 93 79 77 75 83 98 98 100 100 95 90 82 71 76 70 74 80 90 100
13 11 12 13 16 20 19 15 15 21 31 17 11 19 19 37 60 73 86 90 91 85 80 80 81 86 90 95 86 80 100 100 93 94 86 90 86 67 62 62 63 74 87 84
12 11 11 11 14 16 16 13 14 21 29 19 10 11 20 19 49 85 83 92 94 83 74 70 82 80 90 98 89 96 100 100 99 100 98 92 75 64 57 62 61 72 92 85
11 10 10 10 11 14 12 10 12 20 20 10 8 9 16 17 22 72 91 86 94 94 76 70 75 78 84 97 100 93 89 98 100 99 95 90 75 68 70 66 70 74 88 80
11 10 9 9 10 12 9 7 12 12 7 7 7 9 14 19 19 29 72 92 94 100 99 77 70 76 89 95 100 88 87 86 99 100 94 79 70 71 68 68 68 79 86 74
12 10 9 8 10 10 7 7 8 5 5 5 7 9 14 18 19 21 38 74 99 100 100 100 88 84 90 88 83 93 100 100 100 100 79 74 83 77 70 68 69 85 87 71
12 9 9 8 10 8 6 9 5 3 4 4 8 9 15 21 22 22 26 43 82 100 100 100 99 99 99 83 100 100 100 98 87 78 75 68 68 78 70 67 74 89 85 71
14 9 10 10 10 8 8 8 3 2 2 5 8 10 14 23 24 23 26 30 45 89 98 100 100 100 94 97 100 100 83 87 81 82 71 68 73 66 72 66 70 78 80 73
16 10 12 11 11 9 11 6 2 1 1 4 8 12 18 29 31 28 30 32 36 51 80 95 91 96 96 100 100 95 96 88 81 72 79 66 53 49 46 46 52 67 74 70
19 10 13 11 14 10 14 8 4 3 5 10 12 17 24 36 38 33 34 37 38 44 57 73 77 78 91 99 100 100 89 82 89 82 79 65 44 43 45 49 53 62 64 58
21 12 14 13 16 13 14 9 6 5 8 13 17 23 29 41 41 41 39 42 44 51 55 58 65 75 92 100 100 97 80 91 94 98 83 51 60 61 50 51 69 79 82 96
23 15 16 15 18 18 15 20 8 9 10 13 19 26 34 41 50 55 52 46 52 59 61 68 80 87 100 100 100 88 92 91 95 98 79 76 72 70 81 84 96 100 100 100
24 17 19 16 20 21 21 30 24 11 12 14 19 26 37 42 54 68 78 63 67 72 78 70 83 94 100 100 100 94 96 98 100 100 100 86 83 79 81 89 95 95 95 96
23 18 23 21 21 22 19 21 37 19 14 14 18 24 30 38 49 62 72 82 70 74 83 83 98 100 100 100 100 100 100 100 100 100 100 98 94 88 95 98 96 98 100 100
23 20 24 25 24 24 23 19 24 44 20 16 19 21 28 38 47 56 67 82 89 89 87 89 100 100 100 100 100 100 99 100 100 100 100 100 100 93 88 91 99 100 100 100
23 22 25 28 28 27 25 22 19 25 52 34 18 19 21 32 48 58 63 72 77 89 93 96 98 99 100 100 100 100 100 97 97 97 96 100 100 100 96 100 96 96 98 100

GFSNW_250_rhum_015.txt.gz
RH
11 10 8 9 6 6 6 4 5 5 6 6 6 6 12 23 50 69 72 71 76 83 80 55 55 69 84 84 86 94 100 91 83 100 100 100 100 96 94 86 84 72 63 65
11 10 8 9 8 6 7 4 6 6 9 7 8 9 16 30 53 63 73 75 93 87 88 98 100 96 89 100 99 100 100 100 100 100 100 97 89 87 67 69 68 75 65 66
11 10 8 9 10 7 8 4 6 8 10 11 10 12 22 49 53 64 72 92 89 85 94 95 90 100 97 98 98 100 98 95 94 94 99 89 76 79 66 70 67 98 86 88
11 10 8 9 9 9 8 7 7 10 15 16 13 19 26 43 55 73 87 88 86 94 98 86 89 100 100 100 95 86 73 82 93 100 96 83 73 70 62 83 99 78 88 73
11 11 9 10 10 11 12 12 8 12 23 29 35 46 54 61 80 87 94 91 91 99 97 88 86 78 61 66 68 73 76 98 100 94 79 76 73 62 100 100 67 66 70 81
12 11 11 10 12 12 16 18 13 13 29 43 48 56 73 88 98 96 96 100 94 91 84 74 63 62 67 75 69 69 89 88 77 71 67 79 82 84 100 78 77 71 94 69
12 11 12 11 11 14 14 17 23 15 19 50 60 75 85 96 97 95 91 90 90 88 74 77 75 75 70 64 68 76 77 78 66 62 75 72 86 92 89 84 79 69 85 72
12 12 12 12 12 13 12 17 21 25 17 22 47 85 100 91 100 89 94 87 84 82 82 84 82 81 76 69 74 73 82 70 69 74 90 98 94 95 100 100 79 78 82 75
12 12 12 13 12 14 13 11 17 27 24 20 26 50 100 97 99 100 99 90 89 91 94 97 94 87 75 68 60 75 84 77 87 98 90 91 100 100 100 88 76 80 87 76
12 12 14 13 12 14 16 13 12 15 26 28 22 23 66 77 84 100 100 97 87 89 98 96 89 85 73 65 62 68 68 78 95 87 94 92 88 94 98 76 71 70 75 87
12 13 15 13 13 14 17 17 13 12 13 26 29 18 26 73 74 72 92 100 91 89 91 99 97 90 78 70 64 69 76 87 89 91 90 95 92 94 80 77 69 68 70 76
12 12 12 12 12 15 18 18 17 16 12 12 21 28 15 23 79 91 78 93 95 90 82 88 86 82 87 73 68 64 73 87 92 97 100 95 91 96 90 82 69 67 63 73
12 12 12 11 10 13 17 17 16 17 16 10 11 23 25 14 22 67 93 81 98 99 92 91 84 82 84 76 71 64 66 76 91 95 100 96 100 99 97 89 80 76 67 71
12 11 10 10 9 12 15 14 13 15 15 11 10 17 21 12 13 28 70 92 85 94 100 98 100 93 90 82 79 62 61 68 78 90 100 100 100 100 100 93 87 88 88 78
12 10 9 8 8 11 11 10 10 12 10 11 11 16 12 10 10 18 39 71 92 86 93 95 98 100 97 84 91 57 67 69 93 93 97 100 100 100 98 93 100 100 97 82
11 9 9 7 8 10 8 8 9 8 9 10 10 10 7 7 9 16 22 42 89 96 92 89 85 97 91 82 73 77 89 87 98 100 94 100 88 90 96 100 100 90 100 95
11 9 9 7 8 10 7 7 8 8 8 5 4 5 5 7 8 13 22 31 61 100 100 89 80 87 84 75 77 98 85 86 93 80 64 58 72 78 77 79 84 96 93 99
11 9 8 7 8 9 6 8 9 8 4 3 2 4 5 7 9 16 23 22 40 90 100 96 84 79 84 76 79 85 95 97 89 73 78 96 100 99 84 75 71 78 83 92
11 10 9 8 9 9 7 9 8 7 4 2 2 2 5 8 10 19 26 25 24 54 87 100 95 86 84 75 77 77 89 90 97 100 100 99 94 79 78 67 72 67 68 74
11 11 11 8 10 9 8 10 8 8 4 2 2 4 8 10 14 21 26 28 25 28 58 80 100 100 96 86 85 85 90 90 93 92 94 89 75 70 66 73 52 43 54 59
11 13 13 10 12 10 9 11 11 8 5 4 5 7 10 14 20 28 32 30 27 25 27 49 92 100 100 96 92 92 88 93 95 90 86 78 75 79 75 48 38 41 43 57
12 14 16 13 14 13 12 12 12 12 8 7 8 11 16 25 32 38 39 32 28 29 29 34 64 93 100 100 100 100 99 98 96 86 84 82 94 88 59 50 47 39 49 61
14 16 21 17 14 18 15 16 12 23 16 11 12 15 23 29 32 40 46 40 32 34 34 33 38 52 90 100 100 100 100 94 88 86 89 99 99 81 57 56 59 55 62 68
14 18 24 19 15 19 18 18 16 22 29 13 15 18 27 34 40 51 52 48 47 40 44 44 44 46 59 79 97 99 93 88 86 84 91 100 92 86 73 69 83 87 90 94
16 21 24 20 16 21 20 21 20 19 34 29 15 16 22 32 44 49 61 64 57 51 51 58 63 66 68 71 74 82 97 96 87 84 96 94 100 100 91 89 92 94 96 98
18 24 25 20 17 22 22 22 22 22 22 41 24 18 18 24 37 51 57 61 64 68 62 67 70 76 81 90 98 100 100 94 91 93 96 97 93 95 100 100 98 91 88 90
20 23 23 19 19 22 22 22 26 22 23 26 49 30 23 21 28 38 50 49 52 74 82 78 74 78 84 92 100 100 100 100 97 99 96 97 97 96 98 100 100 100 93 91

GFSNW_250_rhum_018.txt.gz
RH
13 10 10 10 10 8 6 6 5 6 6 8 8 7 10 28 48 74 86 81 85 83 78 82 81 83 82 87 72 71 88 95 100 99 94 92 85 78 86 93 90 99 100 100
13 11 9 10 11 9 7 5 7 6 9 11 11 13 22 39 53 64 77 84 77 85 92 96 88 74 77 75 83 91 85 98 99 96 97 80 86 99 92 100 100 95 84 76
14 12 9 12 11 9 8 8 8 8 13 16 14 16 33 50 57 58 70 75 92 97 78 75 85 93 91 86 85 85 88 97 93 92 93 95 99 96 100 90 85 73 65 80
15 13 10 12 12 11 10 10 11 13 18 24 22 25 28 40 58 63 68 83 96 89 81 92 98 97 95 93 95 93 98 98 98 97 97 88 96 96 78 77 89 98 78 62
14 12 13 13 13 13 12 12 14 16 20 34 38 39 41 50 63 72 78 96 92 81 87 88 94 91 88 86 91 97 100 100 100 94 91 98 82 81 77 82 97 75 72 57
13 12 12 12 13 13 14 13 16 16 21 31 50 58 63 69 85 95 95 82 86 86 81 81 86 92 89 96 93 100 100 100 99 92 85 81 80 77 89 70 51 79 52 58
13 13 13 12 12 12 13 16 16 19 20 28 41 51 76 84 89 91 87 88 76 84 86 82 85 87 90 86 81 79 90 100 95 84 84 78 72 72 74 52 68 58 61 61
12 13 13 12 13 12 13 16 18 21 20 23 27 56 73 76 84 91 88 85 82 84 86 82 70 55 50 55 75 90 98 82 79 74 79 83 79 83 86 61 63 67 72 70
12 14 12 11 14 13 12 14 15 19 25 20 22 24 44 87 82 82 90 85 85 85 72 58 57 66 81 90 89 87 79 73 68 69 66 66 65 81 69 64 70 89 85 70
12 13 12 11 13 14 12 13 14 14 22 28 21 24 23 34 68 90 84 86 84 86 78 62 62 84 86 86 84 90 85 78 60 64 67 69 76 68 78 79 89 89 88 83
12 13 12 11 12 13 13 12 14 12 13 19 25 22 22 25 33 70 84 91 86 84 82 73 70 80 82 86 82 100 86 76 69 84 87 86 77 77 91 82 95 97 99 88
12 13 11 11 12 13 13 12 14 14 12 11 14 23 23 20 26 28 65 76 95 88 89 90 84 82 74 72 82 85 93 97 86 88 90 88 81 87 91 84 89 100 100 98
11 11 10 10 11 11 11 11 14 15 15 11 10 11 21 26 21 26 30 66 78 95 92 94 94 87 82 74 73 75 75 80 81 81 85 95 93 92 100 100 99 100 100 99
10 9 10 9 9 8 10 11 13 12 13 13 10 11 14 17 20 25 24 28 71 83 98 94 94 89 85 82 81 69 74 68 70 86 93 84 89 100 100 99 100 100 100 84
9 9 9 8 8 7 9 10 10 9 9 9 10 12 10 12 17 21 31 17 33 79 89 96 95 90 88 87 72 66 74 69 70 75 98 94 96 83 90 97 100 100 100 95
9 9 8 8 6 6 8 7 7 7 7 8 9 9 11 12 12 23 31 17 18 39 89 91 97 100 91 86 80 79 76 68 70 64 74 72 69 68 80 92 100 100 97 88
9 9 8 8 7 7 7 7 6 6 7 7 7 6 4 4 6 17 24 14 13 26 56 88 88 100 99 94 91 96 89 70 71 63 68 68 67 75 98 100 100 90 75 78
9 9 8 7 7 6 6 7 6 5 6 7 6 3 2 4 6 8 10 10 12 20 41 64 84 100 100 100 99 100 95 76 70 66 66 69 77 80 100 100 92 86 79 70
9 9 8 8 7 7 7 7 6 6 7 8 5 2 2 4 6 7 9 10 14 19 26 50 94 100 100 97 100 100 97 80 79 81 76 78 79 81 97 96 84 77 72 78
9 10 10 8 8 8 8 8 8 7 9 8 4 2 2 4 7 9 10 12 17 20 21 36 76 100 95 93 100 100 96 87 83 75 78 80 87 96 94 82 76 72 73 79
10 10 8 9 8 9 10 10 10 10 13 11 6 4 5 8 10 11 13 17 21 23 23 32 64 98 96 96 100 100 92 85 84 80 82 84 88 94 84 77 67 73 67 48
11 10 12 11 10 10 11 11 12 13 13 14 11 7 7 9 11 13 18 22 27 26 25 26 44 79 100 97 98 100 100 87 80 83 88 86 93 96 88 81 80 72 48 45
13 12 13 11 12 13 12 13 14 15 16 16 15 11 10 12 13 19 22 29 33 33 31 27 28 49 97 100 99 98 98 90 88 90 88 85 99 97 84 82 91 75 62 62
15 14 14 15 15 16 13 16 16 17 18 18 20 16 12 14 22 28 27 32 43 43 37 34 30 30 46 97 100 100 100 97 99 100 99 86 98 91 82 84 93 86 76 83
17 16 16 15 18 17 15 18 20 19 21 19 23 22 16 16 20 30 34 32 45 57 50 40 39 36 36 42 66 93 100 100 100 100 100 90 94 89 92 94 95 93 89 89
19 19 18 18 20 19 17 20 23 22 22 23 21 32 26 18 18 19 26 25 30 56 68 61 49 46 42 40 43 52 74 92 99 100 97 92 88 83 92 94 97 99 97 94
19 18 18 20 21 20 18 21 23 23 24 25 23 22 44 29 23 20 18 13 22 40 57 81 82 55 53 52 51 51 55 63 77 91 94 93 90 87 93 100 100 99 98 100

GFSNW_250_rhum_021.txt.gz
RH
12 11 9 8 10 11 11 8 7 9 10 10 14 16 24 35 50 83 78 78 80 79 81 74 61 68 77 80 67 53 46 41 48 58 69 77 91 96 87 86 96 98 96 91
12 11 10 8 10 12 12 9 9 9 14 14 17 28 33 45 52 66 73 72 84 95 94 97 97 96 82 78 87 92 85 99 100 100 97 96 89 82 82 92 90 84 94 91
11 11 10 8 12 14 12 10 11 10 15 21 19 24 36 42 56 58 69 76 88 90 87 77 93 97 93 93 95 100 100 100 100 96 84 76 76 84 90 97 97 94 100 99
10 11 11 9 12 15 14 11 12 12 18 23 32 30 35 41 48 55 59 72 86 88 84 83 81 84 90 90 95 98 97 100 100 98 90 96 100 100 100 99 99 100 100 91
9 9 10 11 10 14 16 13 14 14 15 27 34 42 44 46 52 60 70 80 91 94 82 71 70 76 78 78 73 81 89 99 99 94 90 100 99 100 100 100 100 93 81 78
9 9 10 11 9 14 15 16 15 16 16 20 40 48 51 60 76 77 76 82 89 86 86 71 68 72 75 75 80 75 89 100 100 93 100 100 100 100 100 100 94 79 64 58
9 9 10 12 11 13 15 18 17 16 20 18 23 36 56 69 66 87 85 85 83 77 80 75 69 75 77 81 84 86 94 98 97 99 93 97 100 100 98 88 70 61 61 57
8 8 10 11 12 12 14 15 19 19 18 20 22 24 35 53 82 78 77 83 74 79 87 85 79 89 96 98 100 100 100 100 89 89 94 100 100 92 78 72 65 63 54 61
7 8 9 9 11 11 12 12 16 17 20 19 19 23 24 31 58 73 83 77 77 74 83 99 97 94 94 97 100 100 100 95 79 85 94 95 81 72 74 80 73 65 58 60
7 8 8 9 10 9 11 11 14 15 18 24 21 18 22 24 28 42 62 72 84 81 78 88 85 74 61 53 54 66 60 64 78 95 89 76 73 70 85 94 69 59 72 78
6 7 8 8 9 8 9 9 12 14 13 18 23 24 18 19 22 29 39 50 71 79 79 81 65 51 48 45 50 64 86 99 89 71 68 73 62 65 87 79 65 70 85 89
6 7 7 8 8 7 8 8 11 12 13 11 15 18 21 21 24 23 30 39 45 72 78 82 71 53 51 60 81 87 86 77 80 66 60 63 70 79 80 79 78 88 99 97
6 6 7 8 8 8 8 7 9 11 12 12 11 10 15 21 20 18 21 28 36 49 77 81 83 62 61 71 76 74 83 89 85 68 80 80 77 91 94 88 82 92 91 100
6 6 7 7 8 8 7 8 8 9 10 12 12 9 9 12 17 22 19 19 30 34 57 80 87 74 67 74 80 71 87 98 92 86 87 98 100 100 99 96 96 92 98 99
6 6 6 7 8 7 7 7 9 9 8 9 10 9 7 10 12 18 21 18 20 32 39 70 84 85 76 76 70 72 92 92 94 84 97 92 78 71 70 73 77 81 87 92
6 6 7 7 7 7 7 8 8 8 7 7 8 7 7 9 10 13 18 18 18 25 32 50 83 94 86 84 76 81 84 80 81 71 81 80 78 76 82 84 83 86 88 91
6 6 7 6 7 7 7 8 8 7 6 7 6 6 8 9 10 11 14 19 22 21 34 30 64 94 98 92 87 96 90 89 85 74 80 76 74 85 79 73 68 73 74 85
6 7 7 7 7 8 7 8 8 7 7 6 6 6 6 5 3 4 5 19 21 21 29 33 30 84 100 97 93 100 100 97 92 88 85 79 85 82 78 72 67 70 82 88
6 7 8 7 8 8 7 9 9 7 6 6 5 7 5 2 1 2 4 7 12 17 27 34 27 53 100 92 100 100 100 94 94 100 99 93 88 82 74 76 78 82 88 96
7 9 9 10 9 8 8 10 9 9 7 7 6 8 6 2 2 4 6 8 10 15 25 28 23 27 71 88 95 100 100 96 98 100 100 99 90 85 72 71 86 86 87 89
8 11 11 11 9 10 9 10 10 10 10 9 8 10 9 5 4 5 7 8 10 11 14 15 17 20 48 80 94 100 100 100 100 100 100 100 96 88 79 84 88 89 86 81
9 10 13 12 10 10 11 11 12 12 12 11 11 12 12 9 7 9 11 12 12 14 14 17 22 24 40 72 96 100 100 100 100 98 100 100 97 92 86 83 87 89 82 72
12 13 14 14 12 12 12 12 13 14 15 14 13 15 16 14 10 13 16 19 23 25 27 29 28 27 32 64 97 100 100 100 100 100 100 100 100 100 99 91 89 86 81 79
13 15 17 17 14 13 13 14 15 15 17 16 16 18 18 18 14 18 24 37 41 39 37 36 34 31 31 47 93 100 100 99 98 100 100 100 100 100 94 93 87 81 87 88
16 17 17 19 14 16 16 16 17 18 19 19 18 19 21 19 16 16 21 29 39 44 46 40 36 34 32 34 60 97 100 100 100 100 100 100 100 96 96 93 84 83 92 92
18 18 19 19 16 19 18 17 18 21 21 21 21 22 21 25 22 16 14 19 24 39 51 52 45 39 36 34 36 56 95 100 100 100 100 100 100 99 91 91 91 90 91 92
19 20 22 21 21 22 21 19 19 23 22 23 22 22 24 25 27 22 18 14 24 40 48 63 70 60 47 42 38 38 43 70 98 100 100 100 100 100 98 86 93 96 95 88

GFSNW_250_rhum_024.txt.gz
RH
11 10 8 7 7 10 12 12 10 8 13 15 20 21 25 37 50 49 54 57 64 77 76 61 42 54 56 48 48 39 33 27 30 40 72 100 100 100 100 97 100 99 91 81
10 9 8 7 7 10 12 13 10 10 12 19 23 26 36 41 54 63 71 77 74 65 58 70 75 72 56 56 54 48 41 39 46 55 66 77 85 99 100 100 98 100 96 97
9 9 8 8 7 10 12 14 12 11 12 16 30 34 34 46 54 68 74 78 81 89 85 68 68 70 72 77 76 77 68 50 50 67 66 66 71 73 82 91 94 85 89 93
8 8 8 8 7 10 10 14 12 11 12 14 25 39 44 44 46 53 59 71 86 90 90 80 80 66 75 80 83 79 77 81 73 64 54 57 58 60 69 82 87 95 100 100
7 7 8 8 8 9 11 13 13 13 12 14 17 27 44 56 57 59 58 69 80 81 79 72 69 76 81 84 84 83 87 87 86 86 94 97 100 100 93 86 87 95 100 100
7 7 8 8 7 8 10 13 12 13 13 14 15 20 26 41 55 71 76 75 77 87 78 76 72 73 70 74 85 93 96 94 90 86 89 92 99 100 100 100 100 100 100 78
7 7 7 8 7 7 8 12 12 13 14 14 17 18 22 28 42 49 71 84 88 86 80 87 88 77 70 78 83 78 83 88 90 88 98 100 100 98 98 100 100 98 80 86
7 7 7 7 7 7 7 9 10 14 16 13 15 18 20 23 33 42 56 57 78 89 73 78 89 87 86 81 88 90 85 94 87 87 98 94 96 95 99 100 95 87 89 99
6 7 7 7 7 7 8 9 9 11 15 18 16 15 18 19 22 28 50 45 60 74 79 82 86 87 96 100 100 100 100 96 99 96 100 96 100 98 94 94 100 97 93 74
6 6 6 7 7 7 8 8 9 9 11 15 17 17 16 17 21 24 28 38 52 60 69 70 88 92 94 94 94 98 100 100 94 96 100 100 100 90 94 100 100 92 73 63
6 6 5 6 7 7 8 7 8 9 9 12 15 16 17 18 19 21 24 28 41 44 55 68 72 94 98 92 87 88 95 97 80 90 87 91 83 82 100 93 80 72 70 69
5 5 5 6 7 7 7 7 8 9 9 10 12 12 16 19 20 22 20 25 25 33 43 70 68 77 92 77 63 57 61 75 79 63 67 81 94 95 73 74 74 83 76 75
4 5 5 5 6 7 7 7 7 8 9 11 11 10 11 16 18 22 28 22 22 26 28 39 76 70 76 65 50 44 42 48 57 74 86 92 82 77 79 70 83 84 80 87
5 5 5 5 6 6 7 7 6 7 9 12 12 10 9 9 13 19 22 23 21 21 27 31 47 76 76 66 52 45 52 62 77 78 86 70 71 79 76 82 93 98 100 97
5 5 5 5 6 7 7 6 6 7 8 9 10 11 9 8 9 12 16 17 19 17 23 26 30 65 78 76 60 56 79 75 84 72 86 66 72 82 78 83 100 100 95 91
5 5 5 5 6 7 7 6 6 8 7 8 9 9 8 8 7 8 10 13 16 16 20 22 28 36 79 82 66 73 92 83 88 80 97 86 73 86 92 100 100 96 83 87
5 5 6 6 6 7 7 7 8 7 7 7 7 7 6 5 6 7 10 12 15 16 16 19 21 32 66 84 80 78 95 87 90 82 90 90 80 96 100 96 87 81 78 66
6 6 6 6 6 7 8 8 8 7 8 7 6 6 6 6 7 6 8 10 11 15 17 18 20 31 43 84 80 85 88 91 92 86 85 96 99 94 100 100 95 88 85 74
7 7 7 6 6 8 9 10 7 8 9 8 8 6 6 6 6 4 2 2 4 11 17 18 20 27 41 54 77 92 95 93 96 89 84 87 92 97 90 86 84 84 81 76
8 8 7 6 7 11 10 9 8 10 8 8 9 7 7 7 7 4 2 2 3 6 16 22 23 26 36 36 63 86 100 100 98 100 100 99 100 100 97 97 99 92 88 80
8 8 8 9 10 14 13 10 10 12 12 10 10 9 8 9 9 6 4 5 5 6 11 22 28 28 33 42 39 70 95 100 99 94 100 99 100 100 100 100 100 96 90 81
9 9 9 10 16 16 14 11 12 13 14 13 12 11 11 12 12 10 8 8 8 10 11 17 17 20 32 43 44 37 79 100 100 100 100 100 100 100 100 98 100 91 85 89
10 9 8 11 15 16 16 12 13 15 16 16 15 14 13 15 15 14 11 12 12 12 12 14 15 21 27 32 39 40 36 91 100 100 100 100 100 100 100 100 98 94 92 97
10 10 11 14 19 18 16 16 17 17 19 18 18 17 16 18 19 18 15 14 16 16 18 18 18 19 18 16 19 21 26 55 100 100 100 100 100 100 100 99 90 92 89 92
11 12 14 18 18 21 19 18 19 18 20 20 20 19 18 20 22 23 22 19 22 25 26 28 27 29 29 27 26 26 25 46 98 100 100 100 100 100 98 92 95 97 90 93
11 12 14 17 21 22 21 21 19 21 20 22 22 22 20 22 24 27 29 21 29 42 46 46 45 41 41 40 36 33 33 40 75 99 100 100 100 100 97 99 100 100 99 96
12 13 15 18 18 21 20 21 20 23 22 25 25 24 23 24 27 24 27 28 30 52 51 50 53 57 51 48 46 40 35 37 45 82 99 100 100 100 100 100 100 100 100 99

GFSNW_250_rhum_027.txt.gz
RH
7 6 7 7 6 7 8 8 10 10 10 12 17 21 29 31 33 36 40 45 48 39 37 37 35 33 37 38 39 41 42 33 36 38 46 72 90 91 98 97 95 92 94 98
7 7 7 7 6 6 8 8 9 10 12 11 14 23 30 36 41 40 46 56 61 61 58 38 38 46 40 39 43 44 40 37 40 44 49 49 73 91 96 99 94 93 94 90
8 7 7 7 7 6 7 8 9 10 13 13 12 19 33 42 46 51 55 58 60 69 68 67 66 46 48 52 52 51 45 40 42 44 47 46 60 63 83 97 95 100 86 99
8 8 8 8 8 7 7 8 9 9 10 12 14 15 25 38 51 57 61 66 76 81 83 79 76 78 63 53 58 61 61 52 47 48 51 47 43 47 53 69 81 96 100 100
8 8 8 8 8 8 7 8 9 9 10 12 13 14 17 26 38 51 66 69 68 72 77 76 78 85 88 86 74 75 72 66 57 55 52 68 68 76 94 100 100 100 100 100
8 8 8 8 8 8 7 8 8 10 10 10 13 14 16 18 24 40 50 59 79 83 76 65 65 72 98 92 83 87 85 77 75 62 54 53 62 66 80 86 81 87 95 99
8 7 8 7 7 7 7 7 8 9 10 11 12 13 15 17 19 22 34 51 62 89 98 66 65 67 71 85 99 100 98 97 90 82 84 78 79 84 92 97 100 100 100 99
7 7 6 6 6 6 6 7 8 8 9 12 13 12 14 15 19 21 22 33 44 56 99 88 66 70 80 85 80 84 94 99 100 99 95 89 93 94 97 99 100 100 100 96
6 6 5 5 5 6 5 6 8 8 8 10 14 12 12 15 18 21 24 24 29 33 67 99 89 74 83 95 92 94 94 88 94 98 100 100 100 99 96 99 100 100 96 97
6 5 4 4 5 5 5 6 7 8 8 8 12 14 15 14 15 18 24 27 27 26 30 67 100 94 92 93 100 100 98 98 100 100 100 98 95 91 98 100 99 100 100 100
6 4 4 4 4 5 5 6 6 8 8 8 9 12 17 19 19 17 18 24 29 31 28 31 79 99 100 95 93 100 100 100 94 96 99 100 92 93 97 98 98 100 100 100
5 4 4 4 5 5 5 5 6 8 8 7 9 10 12 14 20 22 28 27 18 28 35 28 31 83 95 100 100 100 98 100 99 86 88 98 93 100 100 100 96 96 96 99
5 5 4 4 5 5 5 5 6 8 8 8 7 10 11 12 14 17 22 26 25 19 22 31 29 36 74 90 100 100 100 94 93 90 79 92 96 96 89 93 89 96 93 79
5 5 5 4 5 5 5 5 6 7 8 10 8 9 10 11 13 15 17 15 20 22 18 20 29 27 45 75 92 100 93 71 56 65 87 88 60 71 77 71 75 88 76 77
5 5 5 4 5 5 5 5 5 7 8 10 8 9 11 11 9 10 12 13 14 18 18 18 22 26 28 60 83 99 94 68 46 46 70 54 54 74 72 73 85 82 81 93
4 5 4 4 5 5 5 4 6 7 7 9 8 9 9 9 9 9 10 9 11 12 16 20 19 24 27 35 76 86 99 67 47 50 56 56 61 62 63 62 74 78 83 94
5 4 4 5 6 6 5 5 6 7 9 8 8 9 8 9 8 7 6 8 10 10 14 18 17 20 27 30 58 72 99 73 54 55 67 63 70 63 64 77 80 80 88 92
5 5 5 6 7 7 6 5 7 9 11 8 8 7 7 7 6 6 6 7 8 9 13 16 17 20 26 29 31 71 95 86 61 57 67 70 72 80 74 74 86 96 98 96
6 6 7 7 7 7 7 7 9 12 12 8 9 8 7 7 6 6 6 6 4 6 11 14 19 21 26 25 26 51 80 90 77 64 67 76 82 86 90 89 88 92 95 88
7 7 8 8 8 8 8 9 13 13 10 11 10 10 8 7 7 7 7 5 2 2 8 17 18 20 22 23 24 32 70 86 90 78 76 75 86 100 100 100 100 100 98 95
8 8 8 9 9 8 8 12 15 13 12 12 12 10 11 9 8 8 9 6 4 3 6 15 22 23 22 24 27 29 40 78 90 89 84 78 83 98 100 96 90 95 97 93
9 9 9 10 9 8 9 16 17 16 15 14 14 13 12 11 10 11 12 10 8 6 6 11 18 21 27 28 27 28 34 48 81 97 95 87 86 100 100 100 98 98 100 100
10 10 10 9 10 10 12 20 21 18 18 17 16 17 17 13 12 14 14 14 11 10 9 8 9 17 22 25 30 30 31 39 49 85 100 100 96 100 100 100 100 100 100 100
10 10 10 10 11 11 12 18 20 19 20 19 20 19 20 19 17 16 16 17 15 12 14 15 14 15 15 17 22 28 33 36 42 50 93 100 97 100 100 100 100 94 96 98
9 10 10 10 10 11 13 18 19 19 20 18 23 22 22 22 20 21 21 20 20 19 17 17 20 20 18 18 18 19 24 32 41 48 50 86 100 100 100 100 100 100 100 100
9 9 10 11 11 11 13 16 18 20 23 21 24 26 26 25 24 22 24 24 29 34 39 38 37 38 36 32 31 27 22 19 24 38 51 50 65 100 100 100 99 100 100 98
8 9 10 10 10 12 14 16 20 22 24 23 25 32 28 28 26 24 22 23 38 43 39 39 37 38 37 38 38 37 36 34 30 27 26 34 48 75 100 100 100 98 99 100

GFSNW_250_rhum_030.txt.gz
RH
12 10 9 8 8 8 8 10 10 9 8 9 10 11 17 27 38 37 38 43 40 36 36 34 31 29 41 50 38 39 38 30 37 36 38 62 59 89 100 96 94 95 94 94
12 10 9 8 7 7 8 9 9 10 9 9 11 12 15 21 34 42 48 51 54 51 48 49 47 41 44 50 57 55 46 45 32 45 53 60 95 96 95 96 100 94 92 99
13 9 8 8 7 7 7 7 7 10 9 9 10 12 12 19 25 41 53 59 62 61 64 58 54 45 47 46 46 50 50 47 45 34 43 54 67 97 98 99 94 93 98 99
14 8 8 8 7 6 6 6 6 8 10 9 10 12 14 15 24 33 49 66 69 73 72 67 67 61 59 48 49 50 55 55 46 42 42 40 38 52 76 91 89 90 97 97
13 9 8 7 7 6 5 5 6 6 9 10 9 11 14 15 16 23 39 55 81 91 94 77 64 71 67 68 52 56 58 59 58 52 51 52 52 39 43 70 82 88 92 92
11 9 7 6 6 6 5 5 5 5 7 10 10 9 12 15 16 19 24 35 49 78 92 79 70 72 75 82 82 71 66 64 68 66 57 56 58 54 50 48 49 58 68 76
10 8 6 5 6 6 5 5 5 5 7 9 10 9 10 12 13 15 19 22 32 47 83 83 76 65 73 81 84 87 80 79 69 68 65 65 62 76 76 86 93 100 100 100
10 8 6 5 5 5 5 5 5 6 6 8 10 10 11 12 14 16 16 20 22 28 49 81 90 82 75 83 92 97 93 89 87 78 71 65 74 74 81 83 92 88 100 100
9 8 7 6 5 5 5 5 5 6 6 7 9 10 12 14 15 16 16 17 21 26 32 59 85 93 95 78 84 93 99 99 98 97 93 81 70 71 77 81 92 96 100 100
8 8 7 6 5 5 5 5 5 5 6 7 8 9 10 14 15 15 18 20 17 21 26 35 71 91 98 94 92 85 89 97 97 100 99 100 98 96 93 90 97 100 100 100
6 7 6 6 5 5 5 5 5 5 6 7 8 8 10 14 16 15 19 21 22 22 20 23 37 88 94 98 100 99 100 99 86 93 98 99 98 100 100 99 98 99 98 100
6 5 5 4 4 4 5 5 5 5 5 6 8 8 9 11 14 14 18 22 18 22 25 24 23 39 83 97 96 100 100 98 98 93 80 88 98 100 100 96 96 96 100 100
6 5 4 4 4 4 4 5 5 5 5 6 8 8 10 14 13 16 15 16 19 22 21 26 30 25 36 85 83 99 100 100 93 95 92 85 86 92 94 93 91 95 100 100
6 5 4 4 4 4 4 5 5 5 6 6 8 10 10 10 11 13 14 13 16 18 20 22 24 26 26 32 77 92 88 98 93 92 98 92 88 85 94 97 90 97 96 97
6 5 4 4 4 4 4 5 6 6 6 6 8 9 9 10 11 12 13 12 13 15 15 18 24 24 27 27 32 84 89 84 88 84 90 93 89 91 87 94 87 84 83 97
5 5 4 4 4 4 4 5 6 7 7 7 9 10 12 9 9 11 10 9 10 13 14 14 20 24 21 24 33 29 77 88 80 77 66 60 78 100 90 92 68 75 74 93
5 4 4 4 5 5 5 6 7 6 6 8 10 12 10 10 10 9 8 8 8 8 10 12 14 20 18 25 29 23 35 81 81 68 55 51 53 79 95 64 63 69 63 69
5 5 4 5 5 6 7 7 7 7 7 11 14 12 10 10 9 8 8 7 7 7 8 11 12 16 20 26 22 24 30 51 81 71 51 51 61 64 64 65 71 60 58 62
5 5 5 5 6 6 7 8 8 7 10 12 13 12 11 11 9 8 7 7 6 7 8 10 12 16 18 20 17 22 30 29 69 75 54 48 58 63 68 65 57 57 64 68
5 6 6 6 7 7 8 8 8 9 11 16 15 12 12 12 9 8 7 7 7 7 5 5 9 15 17 16 16 21 27 28 41 74 67 50 59 66 69 72 61 61 70 76
7 8 8 8 8 8 8 8 8 10 14 16 16 15 13 13 11 9 8 8 8 7 3 3 6 12 15 18 19 21 26 29 29 64 76 56 53 67 70 74 77 78 77 74
8 8 8 10 9 8 8 9 9 11 16 16 16 16 14 15 13 12 10 10 10 9 6 4 6 14 17 19 20 22 25 29 29 33 74 76 55 59 75 88 92 89 89 90
8 9 9 10 9 8 9 10 9 13 16 16 17 19 18 16 16 17 13 12 14 12 9 6 10 22 27 26 26 27 26 27 28 29 36 73 77 61 68 92 100 100 99 94
9 9 9 9 9 9 9 10 10 13 16 17 18 21 24 21 18 18 19 16 16 16 14 12 10 12 15 16 17 19 22 27 30 30 30 38 77 84 72 79 97 100 94 86
9 9 9 9 9 9 9 10 10 13 16 16 18 22 27 27 25 21 19 18 20 22 21 18 15 14 14 13 14 16 20 24 31 32 31 33 42 74 88 88 92 98 100 100
8 8 9 10 9 9 10 10 10 13 15 16 18 25 29 30 32 30 25 21 20 20 26 26 23 22 22 21 18 16 16 19 26 35 38 34 39 45 68 91 99 100 98 100
7 8 9 9 9 9 10 10 10 13 14 17 20 27 28 33 37 30 26 27 24 26 30 31 27 27 29 37 42 41 33 25 19 20 26 35 39 45 49 57 84 99 100 99

GFSNW_250_rhum_033.txt.gz
RH
22 18 13 9 7 7 6 6 7 6 8 8 9 10 12 13 19 33 37 40 36 42 35 29 27 24 26 36 31 25 26 22 32 32 30 25 24 19 20 24 34 34 40 46
19 20 14 10 8 7 6 6 7 6 7 7 9 10 12 12 16 26 39 47 48 48 40 40 49 47 37 30 29 28 25 26 29 32 43 45 34 30 21 19 29 39 42 56
18 19 13 9 7 6 6 5 6 6 6 8 8 9 11 13 14 22 34 51 57 60 60 54 42 42 48 49 44 40 39 32 32 32 44 82 82 67 67 48 52 57 82 100
20 17 12 10 8 6 6 6 5 6 6 7 8 9 10 12 14 14 23 37 52 56 59 62 64 56 50 52 52 53 45 39 41 36 39 54 73 94 100 100 100 98 97 100
19 16 12 9 8 6 5 6 5 6 6 6 8 8 9 10 13 15 16 26 40 56 54 52 55 56 60 57 51 43 39 42 41 41 46 47 62 70 83 97 100 100 100 100
18 14 11 10 8 6 5 5 5 5 6 6 7 8 9 9 12 14 17 19 28 45 58 57 45 52 60 59 56 60 54 45 43 49 40 47 53 58 70 88 88 100 100 100
14 12 8 8 7 5 5 5 5 5 6 6 6 7 8 9 10 13 16 17 18 26 39 70 54 48 58 70 68 63 67 65 55 52 47 56 51 58 58 55 76 84 92 95
17 12 8 7 6 5 4 4 5 5 5 6 6 7 8 9 10 13 15 16 18 20 26 48 76 59 58 64 74 77 77 84 85 79 72 62 63 68 74 76 69 70 73 76
14 11 7 6 5 4 4 4 4 5 5 6 6 7 8 10 10 10 14 14 16 18 22 28 54 70 55 60 63 71 81 85 89 88 85 89 79 80 98 100 100 95 91 85
11 9 6 6 5 4 4 4 4 5 6 6 6 7 9 10 12 13 14 14 16 18 18 23 29 60 69 63 64 70 73 80 87 95 94 94 91 87 88 98 86 98 96 100
10 7 6 5 4 4 4 4 4 4 5 6 7 7 9 10 12 16 19 20 16 18 20 22 26 37 66 74 74 81 89 91 82 83 90 96 96 97 93 89 84 87 94 95
9 7 5 5 4 4 4 4 4 4 5 7 8 7 9 11 11 13 14 20 25 27 22 23 26 33 38 74 80 83 84 84 96 96 92 87 92 98 99 100 98 89 100 100
7 6 5 5 4 4 4 4 4 4 4 7 8 8 10 11 12 14 14 14 18 31 28 31 34 28 30 42 71 82 81 79 82 82 90 96 94 90 92 91 96 97 88 98
7 6 6 5 4 4 4 4 4 5 5 7 8 8 10 11 12 17 19 17 14 16 24 31 32 33 30 30 38 58 85 88 76 86 91 88 91 94 94 90 91 88 94 98
6 7 6 5 4 4 4 4 5 6 6 7 8 8 10 13 13 14 18 18 16 15 16 20 25 28 26 26 27 34 50 77 85 75 85 92 96 94 91 96 90 88 88 91
6 7 6 5 5 5 5 5 6 7 7 8 9 11 13 13 15 14 14 14 13 12 14 15 18 19 20 20 26 38 29 42 71 84 76 88 87 100 86 89 95 90 85 90
5 6 7 6 6 5 5 6 6 7 8 9 10 12 15 15 12 12 12 12 12 12 11 11 13 14 13 17 25 34 21 30 42 78 77 84 87 85 88 82 86 91 95 96
6 7 8 7 6 6 6 7 7 8 9 9 11 13 15 16 14 13 10 11 10 9 9 10 11 10 10 16 29 24 21 27 29 39 73 82 91 85 71 76 90 89 94 100
6 8 8 8 7 7 7 8 8 8 10 11 12 15 16 16 13 12 12 10 10 8 8 8 8 8 8 16 19 17 19 25 27 29 37 72 86 89 67 47 56 89 95 100
6 8 8 8 7 8 8 9 9 9 10 12 13 14 16 15 14 12 12 11 9 7 7 8 8 8 10 14 17 19 18 21 24 28 31 37 73 88 73 45 43 64 95 86
6 8 8 7 8 9 10 10 9 9 10 12 14 14 16 14 15 15 13 13 10 9 8 7 7 6 8 10 12 15 16 19 22 26 29 29 49 85 77 48 55 72 70 72
7 7 8 8 9 10 10 10 10 9 10 12 14 15 17 14 15 16 14 14 12 10 10 9 7 4 3 6 12 16 18 20 22 25 26 27 32 69 81 52 52 60 76 78
10 7 6 8 9 11 11 10 9 10 10 12 14 16 18 16 17 18 17 15 15 14 13 12 10 7 7 9 14 18 20 22 23 25 26 27 30 38 75 66 53 62 73 77
11 9 7 8 10 11 11 10 9 9 10 11 13 16 18 17 17 21 22 18 17 18 16 16 13 11 9 9 15 21 24 28 27 26 28 29 30 31 41 76 69 63 68 71
10 10 9 8 10 11 11 10 9 10 10 10 13 15 18 19 18 21 23 22 21 22 19 20 21 17 14 12 11 11 15 22 26 27 26 26 29 29 29 39 80 83 69 68
10 12 9 8 9 10 10 9 9 9 10 11 12 14 16 20 21 19 22 23 24 26 24 24 25 24 20 15 15 15 15 15 16 17 22 28 31 30 29 31 40 78 94 85
10 12 10 9 10 9 9 8 9 9 10 10 11 13 14 17 20 19 19 24 25 27 30 31 29 29 28 23 24 25 21 20 18 17 17 19 25 32 34 31 32 38 58 90

GFSNW_250_rhum_036.txt.gz
RH
46 47 34 32 16 10 7 5 6 7 7 6 6 6 7 9 12 14 19 24 29 28 30 30 27 27 27 32 34 24 24 27 30 30 26 24 20 18 18 17 15 16 19 28
35 49 34 42 21 10 7 5 6 6 6 6 6 6 6 8 11 12 17 25 34 40 43 34 32 32 32 34 34 29 28 25 26 27 34 32 29 22 20 21 21 16 14 18
30 35 51 48 18 9 6 5 6 6 6 6 6 6 7 7 10 11 13 22 30 43 52 50 48 34 38 38 36 36 37 27 31 34 43 35 29 28 26 24 24 23 21 19
33 42 42 40 17 9 6 5 5 6 6 6 6 7 7 7 8 11 12 12 17 30 46 55 58 55 45 36 37 42 44 39 29 39 41 43 46 41 37 33 25 26 23 23
37 40 41 33 13 9 6 5 5 5 5 5 6 7 7 8 8 10 12 14 16 16 24 38 53 55 55 54 42 36 38 36 40 37 40 41 52 54 55 43 42 28 23 30
34 27 29 25 12 9 5 4 4 4 5 5 6 7 7 8 8 9 12 12 13 16 18 24 34 44 53 64 56 46 36 35 36 39 36 46 58 57 54 65 81 81 89 39
26 18 26 19 10 8 5 4 4 4 4 4 5 6 7 8 9 9 11 14 14 15 18 21 24 40 44 48 62 65 53 42 36 38 38 50 53 76 78 82 82 86 74 76
26 17 22 15 10 7 5 4 4 4 4 4 5 6 8 8 9 9 11 14 16 18 18 20 22 27 46 44 47 57 68 60 50 46 41 45 52 59 64 74 80 75 67 70
23 20 21 13 8 7 5 4 4 4 4 4 5 6 8 8 9 10 11 13 16 17 20 21 24 26 29 46 44 45 60 74 74 70 65 70 61 66 70 65 63 76 78 78
20 17 16 14 7 6 4 4 4 4 4 4 4 6 8 10 10 11 11 13 17 20 23 21 23 26 31 36 50 50 48 65 74 82 80 78 74 62 68 79 66 68 78 85
12 13 12 10 7 6 5 4 4 4 4 4 5 6 8 10 11 12 12 16 13 20 24 24 24 25 29 32 46 59 55 53 58 83 90 93 79 78 91 72 70 75 83 88
11 8 8 8 6 6 4 4 4 4 4 4 5 6 8 11 12 14 14 16 24 32 21 26 27 30 29 33 49 68 73 68 66 66 82 88 94 94 91 95 87 87 97 100
10 7 8 8 5 5 5 4 4 4 4 5 6 7 9 10 12 13 14 16 17 26 32 38 36 33 30 34 33 50 66 74 79 81 80 76 83 92 96 92 88 96 88 86
9 8 6 8 6 6 5 5 4 5 5 5 7 8 9 10 12 14 14 15 20 28 32 47 56 47 39 36 37 40 45 70 75 83 83 88 84 93 96 96 93 91 96 90
8 6 5 6 7 5 5 6 5 5 5 6 8 9 10 12 14 17 17 17 16 25 26 31 39 42 38 38 35 51 45 38 46 69 86 89 93 89 94 98 96 94 88 92
11 6 5 5 6 6 6 6 6 6 6 7 8 10 11 12 14 16 18 20 18 19 21 23 31 31 17 20 30 42 26 28 35 39 58 86 95 88 98 99 94 94 93 89
18 6 6 5 7 8 7 7 7 6 6 8 9 10 12 12 14 17 19 18 16 16 19 20 18 18 12 14 23 35 21 22 25 38 37 59 92 94 90 92 96 96 92 93
13 7 5 5 7 7 9 8 8 8 8 8 9 11 12 13 16 19 19 19 18 15 13 13 13 13 8 13 28 23 23 21 22 24 31 37 48 84 89 92 92 95 91 87
20 8 5 6 8 9 11 10 9 9 9 10 10 12 13 14 16 18 19 18 16 12 13 13 13 11 10 12 10 14 19 19 22 28 29 31 34 41 66 90 91 85 92 93
25 9 5 6 7 10 11 10 10 10 11 10 10 12 12 13 14 18 18 16 15 14 14 11 10 9 8 9 11 13 13 19 24 27 30 31 34 34 42 62 91 90 84 87
24 17 9 5 6 12 12 11 11 11 11 11 10 12 12 12 14 15 14 14 16 14 13 12 10 9 8 8 9 11 15 20 23 24 29 32 32 32 36 43 56 80 87 81
30 21 15 8 6 11 11 12 11 11 11 11 10 11 12 12 14 14 14 14 17 16 16 13 11 10 9 7 6 8 13 16 19 20 24 28 30 33 31 34 37 50 80 82
27 20 15 13 13 10 9 11 12 11 11 11 11 11 12 12 14 14 14 14 18 18 18 14 13 12 11 8 6 4 10 16 19 21 21 25 25 26 28 29 33 38 62 83
26 20 17 20 14 10 8 10 12 11 10 11 11 11 12 13 13 14 14 14 17 20 22 19 16 16 14 12 9 6 6 11 18 22 22 23 24 26 30 30 31 34 52 80
28 14 16 16 12 11 10 9 10 11 10 9 11 10 12 13 14 14 14 14 16 20 22 22 21 18 19 16 13 10 8 10 16 20 23 25 28 29 32 34 32 33 37 65
22 16 12 10 10 12 11 9 8 9 10 10 9 10 11 12 14 14 14 16 17 19 24 24 25 22 22 20 19 16 14 15 15 16 18 21 24 27 28 30 31 32 36 41
19 13 10 10 10 10 12 10 8 8 8 9 10 10 10 10 12 14 13 15 17 20 28 30 30 26 26 25 26 25 21 18 18 19 18 18 20 26 31 32 30 31 32 35

GFSNW_250_rhum_039.txt.gz
RH
28 28 35 46 44 40 29 12 6 5 4 5 5 6 6 7 6 9 11 16 18 22 23 22 21 25 25 29 28 29 30 34 34 29 22 20 18 16 16 15 14 14 14 16
25 27 33 36 42 30 24 12 6 5 4 4 5 5 6 7 7 7 10 11 17 26 32 31 27 26 28 26 27 28 31 27 28 36 36 33 26 20 18 16 15 14 13 15
24 31 33 32 33 38 33 18 6 5 4 4 4 5 5 6 7 7 9 11 14 15 23 38 43 38 34 30 26 26 26 31 37 34 33 30 26 25 24 20 19 17 15 16
25 27 33 34 37 36 23 14 8 6 4 4 4 4 5 6 7 7 8 10 13 15 14 20 37 44 41 37 36 32 28 25 25 31 40 39 39 31 27 24 20 20 17 18
24 27 33 35 36 34 17 12 7 6 5 4 4 4 4 6 7 8 8 9 13 15 16 18 18 35 47 47 44 41 44 40 30 29 37 40 36 42 46 27 25 21 19 21
25 30 34 31 33 34 15 11 6 6 5 4 4 4 4 6 7 7 8 9 10 14 17 18 23 24 34 43 45 45 40 41 43 39 27 40 47 43 41 38 28 24 24 22
27 32 37 31 28 36 15 9 7 5 5 4 4 4 4 5 7 7 8 8 10 14 17 18 19 22 27 47 48 47 47 41 34 35 44 44 37 38 49 38 35 39 28 24
31 29 31 30 20 31 17 8 7 6 5 4 4 4 4 5 7 8 9 9 9 11 15 18 19 19 20 29 55 55 56 53 47 39 35 38 36 44 48 44 43 50 47 42
32 36 28 27 17 24 20 9 7 7 5 4 4 4 4 5 7 8 9 10 10 11 15 18 19 20 21 25 34 57 60 60 55 51 43 36 33 46 59 55 62 63 66 70
34 32 25 22 14 21 18 10 10 8 5 4 4 4 5 5 7 9 9 11 12 12 13 15 20 20 22 23 27 37 60 60 65 63 58 41 46 54 56 70 74 76 80 81
32 31 22 19 15 17 14 10 13 8 5 4 4 4 5 6 8 9 10 12 12 16 16 16 19 21 24 24 28 29 40 64 66 73 65 64 61 58 57 56 59 74 84 79
31 23 20 18 12 15 12 11 12 9 5 4 4 5 5 6 8 9 10 14 14 16 20 23 24 24 26 28 28 32 38 48 73 70 69 68 74 68 64 68 64 66 70 82
26 17 22 11 11 10 16 17 12 10 6 5 5 5 6 7 9 10 11 13 14 14 16 27 38 28 32 34 33 36 37 44 52 71 71 70 80 79 81 77 78 78 72 74
19 17 16 10 9 8 11 17 12 9 6 5 5 5 7 8 9 10 12 14 15 15 17 29 37 38 40 36 37 46 38 42 43 58 72 81 86 79 84 84 80 81 87 81
16 17 12 7 8 8 8 17 15 10 8 5 5 6 7 9 10 12 14 15 18 20 20 22 29 38 43 50 48 71 53 43 44 38 53 68 79 85 77 82 84 88 87 85
24 17 10 10 7 7 8 15 16 11 12 6 6 7 8 10 11 12 14 16 17 18 19 23 29 22 28 45 62 82 51 40 37 50 52 51 61 86 90 83 84 85 86 87
36 22 11 7 7 7 7 13 13 13 15 8 7 8 9 10 12 13 14 17 17 17 17 17 17 17 21 31 58 74 46 43 55 37 50 58 48 54 74 92 90 86 90 92
38 26 16 8 8 7 6 14 13 12 14 8 8 8 9 12 13 13 14 17 18 16 17 19 16 14 14 19 28 44 31 21 18 25 33 34 40 50 48 55 78 93 91 91
42 34 28 11 7 8 9 14 13 16 14 10 9 9 10 12 13 14 14 14 15 17 16 15 16 14 14 15 17 18 15 18 18 17 17 33 33 38 46 48 44 51 77 88
44 48 30 23 16 8 8 13 12 13 15 12 10 10 10 11 14 15 15 16 16 16 18 18 14 13 13 14 13 12 13 12 14 15 16 21 30 31 37 39 47 46 47 61
50 55 43 35 30 14 11 12 12 11 13 12 12 10 10 11 12 14 15 16 16 15 17 18 16 16 14 13 11 11 11 11 13 17 18 20 23 35 38 38 36 38 42 40
57 60 55 42 28 30 23 14 12 11 11 12 12 11 11 12 12 13 13 14 16 17 19 17 15 17 16 15 13 11 10 10 12 15 18 22 24 31 40 39 36 35 39 41
64 64 59 44 37 33 21 15 12 10 8 11 12 12 12 13 13 13 13 13 15 16 16 17 16 16 19 16 13 12 9 7 9 13 18 22 27 31 35 35 34 36 38 39
91 81 81 47 34 26 15 15 13 12 9 8 12 12 11 12 12 13 13 13 14 15 15 15 18 18 20 19 16 13 11 8 6 8 13 19 24 27 27 28 30 34 35 37
86 77 68 54 42 26 16 12 11 12 11 10 8 12 11 12 11 12 13 14 14 13 12 15 20 23 23 23 19 16 15 12 9 7 11 19 23 25 26 27 26 28 32 34
91 83 66 37 29 28 16 11 11 11 12 12 9 10 12 11 12 12 12 14 11 11 13 18 18 24 23 25 23 20 18 17 13 13 12 13 19 24 25 26 28 31 35 37
84 88 57 26 28 17 13 9 10 10 12 12 8 8 10 13 11 11 12 12 13 14 15 18 17 21 29 28 26 21 21 22 20 17 16 16 18 21 24 26 27 28 29 31

GFSNW_250_rhum_042.txt.gz
RH
39 35 33 30 34 42 44 40 25 21 15 6 4 5 5 4 5 6 7 7 8 10 23 20 17 19 22 25 24 29 32 32 33 34 31 27 26 22 19 17 18 21 20 18
39 32 28 28 34 33 44 52 28 22 19 8 5 5 5 5 5 6 7 7 7 9 12 29 29 21 21 22 24 31 34 35 36 34 31 29 27 26 21 17 16 16 18 18
37 29 24 27 32 32 41 48 35 32 25 13 4 4 5 5 5 6 7 8 8 10 11 17 34 44 32 24 26 26 26 28 32 32 30 26 24 22 18 16 17 16 16 16
32 31 23 28 25 31 41 44 36 28 23 16 5 5 5 5 5 6 7 8 9 10 12 14 17 28 50 48 31 30 31 31 29 32 31 31 28 25 22 20 18 18 15 16
31 30 24 24 25 31 43 39 32 27 14 19 6 4 5 5 5 5 7 9 9 10 11 13 16 23 33 49 53 39 34 28 34 40 43 36 30 28 27 23 18 18 17 17
34 31 26 21 21 29 36 32 37 22 14 13 8 4 4 5 5 5 7 9 9 10 11 15 16 19 26 30 46 56 51 32 30 30 32 32 39 26 26 23 24 24 24 19
40 28 21 21 22 29 32 35 28 21 13 11 10 4 4 4 5 6 7 9 10 11 11 13 16 18 21 27 40 52 63 61 45 35 33 31 31 31 30 28 27 30 26 22
41 26 21 22 28 27 27 37 27 21 18 9 10 5 4 4 5 6 6 9 12 12 13 12 15 17 18 19 26 38 50 57 68 61 41 30 29 33 39 28 28 29 28 28
34 27 24 23 21 22 28 34 29 19 16 13 11 5 4 5 5 6 6 9 11 13 13 14 16 19 21 20 24 31 50 56 59 67 62 46 35 35 34 36 36 32 31 42
41 37 31 25 23 22 25 25 28 18 19 14 11 6 4 4 5 6 7 8 12 12 12 13 16 19 22 21 24 25 30 52 60 64 60 64 59 39 32 33 37 42 40 50
40 44 37 32 29 25 20 22 22 15 18 18 12 6 4 4 5 6 7 9 10 14 15 15 16 19 21 21 23 24 25 32 52 61 60 73 67 56 44 50 54 60 55 57
37 41 39 34 32 24 18 20 21 19 19 17 10 6 5 5 5 7 8 9 11 13 16 19 20 25 24 26 29 29 27 26 35 50 64 71 76 72 68 56 62 67 71 70
29 40 30 37 32 22 18 25 20 20 15 16 11 7 5 5 6 7 8 10 12 14 15 20 22 25 28 27 29 40 39 35 32 38 48 64 75 82 88 82 72 60 67 72
28 32 28 23 27 21 19 31 18 17 18 26 13 8 6 6 6 8 9 11 12 14 16 20 20 20 35 38 44 52 54 56 42 42 40 58 63 80 82 91 98 92 83 80
30 33 23 27 22 25 26 26 16 14 28 25 16 9 7 7 7 8 10 11 13 15 16 18 19 23 48 42 46 72 43 48 56 56 46 55 55 60 71 86 89 99 100 94
48 33 19 23 26 20 21 23 11 14 25 24 23 11 8 8 8 9 10 12 13 15 17 18 18 21 36 43 50 59 58 44 45 61 51 66 62 59 66 82 90 96 93 97
56 46 33 30 23 22 31 16 12 13 24 34 29 20 9 9 9 10 11 12 14 14 17 20 20 21 27 35 37 44 38 25 33 48 44 53 56 49 46 49 72 88 97 97
72 56 49 40 33 28 18 9 9 15 19 36 46 39 13 10 10 10 11 12 13 14 16 18 21 23 23 22 27 34 28 32 33 39 50 54 46 39 55 57 53 52 64 81
81 71 58 54 48 42 17 10 7 10 18 25 26 40 19 12 10 10 10 12 13 14 14 16 18 20 18 21 19 21 26 35 24 11 15 24 36 42 50 44 49 47 52 53
88 82 77 74 55 40 22 16 20 10 16 22 19 19 19 14 12 12 11 11 13 13 13 14 16 14 14 15 15 15 17 21 16 15 18 19 20 27 38 45 46 51 44 48
89 90 83 63 49 35 31 30 24 28 29 16 12 18 16 16 14 13 12 12 12 14 14 14 12 11 12 13 14 14 14 15 15 15 14 14 18 21 29 38 43 44 48 43
83 70 55 50 42 43 35 39 34 32 30 24 19 13 12 16 15 14 13 13 13 14 14 14 12 14 14 15 17 15 15 14 14 13 13 14 17 22 26 32 37 40 43 44
72 52 56 44 47 52 38 45 45 40 23 20 22 17 11 13 16 16 13 13 12 14 14 12 13 14 13 15 17 17 18 16 13 12 11 14 16 19 21 25 32 34 40 46
72 67 51 52 62 65 55 50 46 42 29 17 16 12 11 12 13 16 15 13 12 11 10 12 13 14 15 16 15 18 21 19 16 14 10 8 13 18 21 20 24 30 36 43
67 62 70 52 68 68 55 52 52 42 33 21 20 14 11 10 12 13 17 14 12 11 10 10 12 14 18 16 18 17 21 22 17 16 11 7 7 12 20 23 25 27 30 33
70 70 61 70 60 66 58 61 48 48 31 28 19 12 11 10 12 13 13 16 13 12 10 11 13 14 15 14 17 18 20 23 22 19 17 12 10 8 12 19 25 28 29 28
82 83 79 62 58 55 54 49 59 41 50 23 16 12 10 8 10 14 12 12 14 12 11 10 14 14 13 14 15 17 19 20 24 22 20 18 13 13 12 14 19 24 27 29

GFSNW_250_rhum_045.txt.gz
RH
48 33 32 30 27 29 30 33 39 60 38 22 21 10 4 4 5 5 5 8 8 10 17 22 18 16 18 20 24 24 23 24 28 31 34 34 31 30 22 21 26 27 27 24
51 33 31 28 27 26 24 26 37 64 59 17 14 9 5 3 4 5 5 6 8 9 11 23 29 20 22 23 26 28 29 32 27 31 28 28 26 24 22 21 22 24 28 32
49 34 31 27 24 23 23 24 36 57 66 24 13 10 5 3 4 5 6 6 8 9 10 14 24 38 28 26 26 27 27 26 26 22 26 20 18 18 19 20 21 20 22 24
45 35 30 28 20 20 22 20 30 46 60 37 10 9 5 4 4 4 6 6 8 10 10 12 16 23 41 40 32 34 34 31 28 29 27 21 20 22 23 22 19 19 18 20
44 37 28 26 21 22 20 18 28 40 47 52 10 9 6 4 4 4 6 7 8 10 11 12 14 19 26 43 52 42 32 32 39 41 38 43 40 34 32 26 21 20 18 18
42 36 28 28 23 21 19 17 29 35 40 46 18 8 7 4 4 4 5 6 8 10 12 14 15 19 22 26 37 54 60 48 36 36 31 34 49 35 37 32 28 23 24 18
45 37 38 30 26 21 20 22 30 35 36 35 28 8 8 4 4 4 5 7 8 10 13 14 16 17 20 24 28 40 51 52 63 48 44 51 39 33 34 31 27 28 26 18
42 44 50 40 36 23 23 22 32 29 36 36 32 11 7 4 4 4 5 7 9 9 12 13 14 15 17 20 21 27 42 52 53 63 63 54 44 39 40 41 31 30 31 26
48 55 54 50 40 28 25 28 32 30 37 36 32 14 8 4 4 4 6 6 9 10 11 13 15 18 21 22 23 26 30 40 53 52 66 72 60 55 46 47 34 37 42 33
58 66 59 48 34 30 30 31 30 25 28 37 36 18 10 5 4 5 6 7 9 11 12 14 15 16 19 22 25 25 26 27 34 46 47 55 70 73 65 54 46 48 42 44
66 66 57 49 39 38 33 31 26 24 23 35 36 26 12 6 5 6 6 8 9 12 13 14 15 17 18 23 26 27 24 25 30 36 48 51 52 64 74 71 52 42 47 53
64 65 56 56 46 43 35 33 30 24 31 28 30 24 15 8 6 6 8 8 10 12 14 16 17 20 20 26 30 37 37 33 31 31 36 49 57 59 63 77 72 50 47 52
64 59 54 55 48 49 37 38 32 26 22 23 28 20 26 11 7 7 8 9 11 13 15 16 18 20 27 27 32 38 36 32 28 29 27 35 51 63 64 64 76 82 78 76
64 54 57 56 58 48 41 50 32 25 21 24 26 20 25 21 8 8 9 10 11 13 16 17 17 20 22 22 26 32 46 50 44 48 37 45 51 73 86 78 72 85 96 91
52 49 59 59 59 43 42 40 32 28 26 24 25 28 31 37 15 9 10 10 11 13 15 17 19 21 27 24 25 23 37 44 52 56 50 54 41 49 65 78 88 83 85 96
60 56 50 52 53 43 34 40 25 25 19 21 25 31 35 46 29 12 11 11 10 12 15 16 18 22 26 27 24 29 31 34 27 40 44 57 54 54 39 40 58 79 91 92
61 62 47 43 44 31 27 24 30 27 20 22 23 36 46 45 46 22 12 12 11 11 13 15 17 21 22 23 20 24 25 22 22 32 46 56 77 74 63 52 51 57 68 81
78 77 64 49 40 30 26 25 25 19 19 20 20 33 44 51 59 64 15 12 12 12 13 14 16 17 18 19 20 22 21 23 22 24 42 62 51 55 72 57 59 58 65 67
100 91 67 60 51 49 34 30 25 19 15 18 22 32 41 49 57 77 22 13 13 13 13 13 14 15 16 18 19 20 21 22 23 36 50 50 45 30 34 42 66 65 60 66
98 79 79 83 69 56 39 37 43 32 20 17 16 15 33 35 42 59 25 19 14 13 13 13 13 13 16 17 17 17 17 16 22 28 30 20 13 15 18 20 36 53 52 51
87 94 99 87 78 62 62 59 47 36 29 33 26 22 21 19 32 48 47 23 17 15 13 12 11 12 13 16 16 16 15 15 14 18 19 18 16 18 19 22 28 39 46 57
100 99 85 88 85 88 77 68 53 40 36 26 25 29 27 29 18 35 51 24 18 15 14 12 12 14 12 14 15 14 14 14 13 16 16 16 16 15 16 18 21 28 38 50
100 97 88 90 95 93 78 70 48 41 41 39 41 38 29 44 40 28 19 17 18 16 14 12 12 12 12 13 13 14 14 13 13 14 16 16 15 14 15 17 19 23 29 40
100 100 98 92 100 87 77 60 50 46 53 46 51 57 52 51 49 40 26 16 14 17 16 14 12 12 12 12 14 13 15 14 14 14 14 15 16 14 13 16 19 22 24 28
100 100 100 100 93 85 71 59 46 58 52 50 59 65 54 66 56 49 21 29 17 15 16 17 14 11 12 13 13 13 14 14 14 15 14 16 16 14 12 11 15 20 23 28
100 100 100 100 89 79 66 54 58 59 52 58 63 64 62 61 50 37 50 14 15 16 20 16 14 12 11 12 13 12 12 13 14 15 15 16 19 17 14 9 8 11 18 22
100 100 100 98 83 68 59 60 67 64 66 65 61 62 62 48 80 24 18 11 12 13 15 19 13 10 12 11 12 11 12 12 13 14 15 19 21 19 18 16 11 10 10 14

GFSNW_250_rhum_048.txt.gz
RH
85 77 76 55 51 39 37 29 30 39 32 39 39 10 5 5 3 3 4 6 6 7 8 8 12 12 10 14 16 19 24 27 29 35 36 36 34 29 30 32 34 36 35 37
88 72 74 62 53 41 34 33 27 36 36 42 44 24 5 6 3 3 4 5 7 8 9 10 16 14 15 14 15 18 23 28 30 38 38 43 43 47 33 30 28 32 32 59
78 81 74 69 56 44 32 32 25 29 39 48 44 32 7 6 4 3 4 5 7 9 10 11 13 22 20 19 19 18 20 18 22 23 25 25 32 32 29 23 24 30 29 37
80 83 73 72 55 46 34 35 26 27 42 44 43 43 12 6 4 3 3 4 6 9 11 13 14 28 37 32 24 25 23 24 25 24 23 22 21 22 23 23 23 18 24 23
89 85 82 78 56 46 37 38 28 29 33 42 49 49 22 6 6 3 3 4 6 9 11 12 15 16 22 51 54 40 35 34 36 42 41 34 31 30 29 28 20 20 18 21
98 92 90 81 58 56 46 40 31 33 30 44 52 57 39 8 6 4 3 4 6 8 10 13 16 19 19 21 32 56 61 48 38 34 30 34 45 29 31 26 24 23 24 22
95 94 94 69 64 61 49 43 32 35 33 44 48 58 51 12 6 4 3 4 6 7 12 13 14 17 21 24 26 26 30 54 62 55 49 50 41 36 40 43 39 30 31 24
97 100 92 69 68 60 59 48 37 40 36 45 46 59 47 19 8 5 4 4 6 7 10 14 15 15 17 19 25 28 32 34 50 55 59 66 59 52 48 53 32 38 48 33
100 98 77 75 73 61 58 56 44 36 35 46 42 48 58 29 11 6 4 4 6 8 9 13 16 18 20 21 23 29 29 28 28 38 57 61 53 63 65 64 52 50 50 41
98 86 78 77 73 64 52 53 47 40 33 45 46 43 48 41 17 9 6 5 6 8 10 12 15 19 20 23 25 30 33 33 29 34 40 43 60 62 66 69 63 58 56 47
90 84 76 66 72 60 55 54 43 43 32 39 42 45 48 60 33 10 6 5 6 8 10 12 15 18 19 22 26 32 34 33 33 31 28 33 52 57 64 67 70 66 60 52
74 77 76 87 76 62 46 54 38 40 36 33 38 45 38 56 36 21 9 7 7 8 10 11 14 17 20 23 25 28 29 30 31 34 30 32 41 52 66 67 73 78 72 60
64 79 80 91 72 62 48 44 40 42 35 32 34 42 35 47 39 43 32 7 8 9 11 12 14 17 19 20 21 26 28 41 51 57 39 43 39 43 64 68 75 72 84 74
78 93 100 100 80 65 42 44 40 52 32 32 34 36 33 38 46 46 46 16 8 8 11 12 15 17 18 19 22 25 41 46 41 42 46 46 40 36 31 32 54 75 77 88
93 82 100 100 86 67 53 44 43 47 40 44 37 35 36 34 45 51 54 29 12 11 11 13 14 16 18 17 19 21 32 33 44 49 54 57 46 50 51 49 44 50 63 70
78 100 100 95 86 58 55 46 53 42 33 33 35 35 38 33 36 47 60 64 59 10 10 13 14 16 18 16 15 26 31 36 37 41 44 55 48 51 61 62 51 52 64 74
100 100 95 86 75 71 60 45 49 40 36 31 31 29 37 35 40 50 62 64 61 29 11 11 13 15 16 17 21 23 25 28 29 37 40 44 42 55 54 77 71 70 61 60
100 100 95 86 63 65 49 46 42 44 37 25 29 24 33 38 37 49 54 60 60 58 19 11 12 13 16 17 19 21 25 25 25 30 33 41 45 42 44 46 78 76 78 76
100 95 100 89 85 65 37 46 40 31 31 22 26 18 28 33 34 46 56 58 62 55 59 12 12 14 16 16 17 18 20 23 21 22 23 32 37 37 35 40 41 50 63 74
100 100 100 82 94 65 46 47 52 46 37 34 28 22 21 25 30 42 40 61 74 58 56 21 14 15 15 15 16 17 17 18 21 19 19 24 24 26 28 25 21 16 21 40
100 100 99 83 87 69 74 63 66 54 56 40 43 48 28 26 30 33 35 56 57 53 54 42 20 17 15 16 16 16 16 16 18 20 19 20 29 24 17 14 15 21 26 36
100 100 100 97 79 96 92 86 74 62 70 62 56 53 46 36 33 38 32 40 56 47 48 45 16 20 17 15 15 16 15 15 15 17 18 17 22 22 16 16 17 18 16 22
100 100 100 100 97 81 88 86 81 81 76 70 70 70 52 40 41 47 39 43 43 34 38 30 16 17 18 18 16 14 14 14 13 13 15 16 15 18 19 16 18 19 19 20
100 100 100 98 91 81 77 100 91 86 81 82 74 67 54 40 35 47 55 58 43 46 46 69 14 15 16 17 16 14 14 14 12 12 13 15 16 14 17 20 20 19 17 17
100 100 97 98 100 100 100 100 91 93 92 92 77 71 64 40 41 54 57 73 81 60 45 57 16 17 18 16 13 12 13 12 12 12 11 12 14 15 15 20 20 18 15 15
100 96 100 100 100 100 96 94 87 93 100 80 87 69 60 42 48 64 59 60 49 80 52 25 12 13 15 17 14 8 8 10 10 10 11 11 12 14 14 17 22 20 16 13
100 100 100 100 100 100 98 81 87 96 95 82 69 65 45 48 72 61 67 60 68 82 36 14 11 11 11 10 8 8 6 7 8 8 10 10 11 11 13 15 20 21 19 14

GFSNW_250_rhum_051.txt.gz
RH
100 97 90 86 94 77 70 83 54 39 36 43 51 52 11 5 4 3 3 4 4 4 6 6 9 10 9 10 12 18 29 37 45 56 58 51 43 36 38 36 40 38 44 38
100 95 93 87 95 76 79 80 51 36 31 48 51 53 37 7 6 4 3 4 4 5 5 7 8 11 13 12 14 17 23 28 31 44 46 51 45 42 35 36 40 39 40 53
100 92 96 92 85 89 82 75 57 35 29 41 51 56 57 11 8 5 4 4 5 6 6 7 8 9 13 16 16 18 20 24 30 33 41 47 50 45 41 37 47 45 49 50
94 91 91 89 91 100 78 72 53 35 30 36 52 55 56 38 9 6 4 4 5 6 7 8 9 10 12 18 21 19 20 21 23 26 27 30 35 37 37 36 37 26 72 29
100 90 85 88 99 94 79 67 56 35 30 33 44 52 52 61 22 11 6 5 5 6 8 10 11 12 14 17 25 27 24 22 21 22 24 24 27 26 25 27 27 28 30 29
90 90 86 91 100 90 82 64 54 28 28 31 40 46 58 60 47 13 9 6 5 6 8 10 12 14 18 20 24 29 34 40 30 27 24 25 24 21 25 26 25 26 28 28
89 95 93 100 98 96 81 69 49 28 29 30 34 40 52 60 71 31 12 8 5 5 7 10 12 13 18 21 26 31 37 43 46 45 49 37 29 27 30 28 23 28 32 25
98 92 100 100 100 97 80 64 37 27 36 34 31 35 40 58 63 61 24 10 7 5 7 9 12 12 15 18 24 27 32 34 40 48 64 71 61 45 35 27 25 33 34 30
100 100 100 100 100 84 74 49 27 32 39 34 29 35 37 48 56 73 56 21 8 6 7 9 11 14 15 18 20 28 29 31 29 28 35 47 53 63 66 55 47 44 38 37
100 100 100 100 96 83 61 49 33 43 41 36 37 33 32 42 51 62 84 42 16 8 6 8 10 13 15 17 19 23 26 34 40 44 35 28 39 55 66 77 79 72 64 58
100 100 100 100 86 69 53 59 48 50 44 36 37 31 32 38 48 54 77 61 28 12 8 7 9 11 12 16 18 20 22 23 32 38 36 36 40 38 50 65 64 70 73 68
99 100 100 100 82 57 49 59 58 56 42 35 35 36 36 37 43 49 69 86 68 25 12 8 8 10 11 15 18 21 24 29 35 39 45 44 45 42 39 41 48 60 65 76
98 94 100 89 70 74 81 71 75 65 45 43 44 36 38 41 45 45 46 65 69 48 21 11 8 9 11 12 16 21 30 46 42 39 38 42 44 43 38 36 35 46 63 64
90 100 96 82 95 84 100 93 83 65 59 49 51 38 39 39 43 48 47 48 57 55 30 18 11 9 10 12 15 21 30 37 40 46 54 70 58 63 65 57 48 41 46 60
100 100 89 86 88 97 100 99 92 79 69 55 54 45 37 43 43 49 53 43 53 52 52 39 23 11 9 11 14 21 31 39 42 48 62 59 53 71 85 84 72 66 55 52
100 93 83 92 77 100 88 84 83 80 73 67 56 54 49 49 50 55 56 55 49 59 52 48 56 20 12 10 14 15 21 27 39 44 41 51 54 59 74 92 86 97 96 73
100 95 94 97 100 100 84 73 86 86 64 67 73 53 50 46 45 51 58 51 54 57 80 76 66 28 16 12 10 13 16 19 24 39 44 42 40 46 48 64 92 92 94 96
97 100 91 81 100 81 71 94 100 93 86 99 67 54 61 42 52 53 55 53 51 60 72 82 68 37 24 13 12 12 14 15 17 22 31 38 37 42 41 40 46 77 99 89
100 100 92 89 93 91 100 88 71 74 88 63 68 54 52 41 43 53 53 42 42 52 60 68 73 58 26 16 13 12 13 15 15 15 19 23 28 30 32 30 35 43 45 70
100 100 90 84 93 100 94 67 77 86 67 79 64 52 41 34 41 50 52 47 40 55 50 64 74 95 33 18 14 12 12 14 16 16 16 19 21 25 29 28 27 33 37 34
89 100 100 100 99 87 82 81 72 67 87 74 62 58 44 41 46 56 58 49 42 54 38 50 45 67 42 20 18 14 14 12 13 15 16 16 16 17 20 23 24 20 20 26
100 100 100 100 100 100 100 69 91 90 82 75 62 56 57 66 57 63 64 66 62 56 58 38 30 20 64 27 24 27 20 14 12 12 13 14 16 16 16 17 19 19 16 15
100 100 100 100 93 96 82 99 78 82 89 79 81 77 68 69 68 78 63 61 76 58 66 62 41 34 69 23 20 19 22 19 14 11 11 12 12 14 15 15 15 17 16 14
100 100 100 86 95 100 100 89 84 96 85 84 81 73 75 80 73 76 70 72 92 62 77 92 82 31 42 18 13 17 23 17 12 11 8 9 11 11 12 13 14 15 16 14
100 100 100 100 98 96 100 100 100 87 87 91 78 76 81 82 68 78 68 81 65 70 92 79 81 47 47 14 10 11 11 10 9 8 7 6 7 9 10 12 12 13 14 14
100 100 100 100 100 100 100 98 83 88 100 100 81 76 84 76 79 76 75 84 78 60 70 86 92 53 27 10 9 8 8 6 5 4 4 4 5 6 8 10 12 12 12 14
98 100 100 100 100 100 100 100 95 87 97 98 75 96 93 84 89 73 80 81 67 79 96 87 83 39 15 7 8 6 5 4 3 3 3 3 4 4 6 7 10 11 12 12

GFSNW_250_rhum_054.txt.gz
RH
100 100 100 100 90 81 83 71 75 59 72 37 34 36 30 12 7 5 5 4 4 4 5 6 8 8 8 10 12 21 31 40 47 48 55 57 58 54 48 44 44 36 32 29
100 100 100 100 89 82 90 75 66 65 68 32 32 34 41 30 7 7 6 5 4 4 5 7 7 10 10 10 12 20 28 41 52 67 62 69 64 57 53 47 48 51 50 41
100 100 100 96 91 89 90 81 60 66 64 28 32 40 48 40 11 10 7 7 5 5 6 6 9 8 12 13 12 14 18 31 47 53 55 54 56 53 51 48 56 62 58 51
100 100 100 95 94 86 99 73 61 67 48 26 34 40 48 47 35 12 12 10 8 6 6 7 8 9 11 15 18 16 17 19 27 39 44 53 51 46 43 44 43 48 47 38
100 100 99 89 96 91 100 67 58 59 43 26 34 42 50 51 60 28 19 14 10 8 6 7 8 10 10 10 15 20 19 22 21 24 30 37 42 40 37 37 31 31 31 35
100 100 100 97 100 96 87 69 55 56 43 30 35 38 50 51 53 56 30 18 15 10 8 7 9 10 12 13 14 15 30 28 25 25 24 26 27 24 27 29 27 33 36 38
100 99 100 100 98 90 81 74 58 71 34 28 34 40 48 51 56 64 48 29 20 17 11 8 8 10 13 14 14 14 15 20 32 36 30 26 26 28 29 27 27 29 29 29
100 100 100 100 88 100 92 80 63 67 31 31 38 45 41 44 51 66 64 52 26 17 17 13 8 8 12 14 16 20 21 21 21 25 28 36 43 43 41 36 39 42 40 38
100 100 100 97 98 100 86 84 75 57 29 36 37 45 50 45 49 65 70 61 56 28 18 13 9 8 10 13 17 19 22 24 31 34 31 31 37 50 61 62 80 87 68 49
100 97 98 100 100 98 86 71 75 44 32 40 36 43 51 47 46 57 68 64 60 53 33 24 17 14 10 11 15 19 21 23 26 31 34 41 51 48 45 40 63 69 65 72
100 95 100 99 99 100 85 79 65 36 37 47 42 51 48 46 44 54 56 64 61 61 43 33 27 18 12 10 12 16 21 24 26 31 33 42 42 49 43 42 42 49 59 68
95 100 100 100 96 94 78 76 60 42 45 48 41 53 62 62 42 49 50 57 57 56 43 35 26 24 17 12 12 14 18 22 27 29 32 35 40 44 47 45 42 41 38 65
100 100 100 94 100 88 85 83 59 48 53 56 42 67 72 67 61 49 49 60 56 64 61 49 33 22 21 15 12 12 14 17 20 22 26 34 34 38 52 57 43 45 43 38
100 100 97 100 100 95 98 85 62 55 57 55 61 72 68 75 62 53 49 59 59 62 68 51 42 30 26 23 16 12 12 14 17 20 26 32 36 48 62 65 62 53 48 41
100 100 100 99 100 100 100 84 74 60 63 52 66 73 78 78 60 50 52 61 60 61 71 57 47 50 41 30 23 16 14 15 17 16 25 26 28 44 52 53 67 77 60 57
100 100 100 100 100 100 95 84 84 64 64 58 73 69 83 58 62 59 55 59 59 65 69 62 50 43 46 44 29 20 14 14 18 20 20 24 26 36 54 60 55 68 79 78
93 98 100 100 100 100 100 98 78 68 57 83 73 74 73 53 60 66 54 62 62 78 73 73 54 41 49 40 52 28 18 14 16 21 22 21 26 30 38 58 64 66 69 81
98 100 100 100 100 100 95 99 84 61 66 68 89 91 92 58 66 71 55 58 66 64 71 77 68 56 53 47 40 37 21 17 17 18 25 24 20 22 27 30 34 41 61 73
100 100 100 100 100 100 100 92 82 66 69 77 100 93 87 71 85 80 65 58 65 61 76 70 70 77 72 68 61 68 42 18 14 15 17 21 27 28 26 26 27 27 29 38
100 100 100 100 100 100 100 100 97 80 66 100 100 84 80 90 66 71 54 65 61 60 71 66 61 70 64 66 74 69 69 28 16 15 13 17 18 19 21 22 23 25 28 35
100 100 100 100 100 100 100 100 78 73 84 82 77 78 78 74 72 60 67 78 63 66 76 70 67 58 65 55 54 41 67 53 24 15 15 16 15 15 20 20 18 17 16 18
100 100 100 100 100 100 98 78 82 82 74 82 93 88 80 82 60 74 63 75 68 69 79 80 63 48 67 60 53 48 29 42 32 25 18 14 13 13 12 13 14 20 18 14
100 100 100 100 100 100 87 79 77 77 75 95 84 75 70 70 65 85 74 89 72 78 93 81 68 66 63 83 68 65 25 18 15 16 20 16 13 10 9 8 10 11 13 16
100 100 100 100 100 100 100 98 79 84 93 85 73 77 73 67 81 86 87 78 88 94 93 85 83 80 75 73 88 73 38 18 10 9 8 9 11 9 7 6 6 7 9 10
100 100 100 100 100 96 74 100 100 94 93 82 77 82 63 71 86 91 88 83 86 83 96 77 87 73 86 67 77 36 34 20 8 6 6 5 5 5 5 4 5 5 7 8
100 100 100 100 95 99 98 93 97 92 87 80 83 81 86 83 93 86 90 82 80 88 83 90 67 68 63 77 58 27 16 9 6 6 4 4 3 3 3 3 3 4 5 7
100 100 100 100 100 100 100 91 93 96 86 74 94 90 70 90 98 88 93 88 98 93 93 81 50 58 83 69 32 20 12 6 5 4 3 3 3 3 3 3 3 3 3 5

GFSNW_250_rhum_057.txt.gz
RH
100 92 85 100 100 100 100 99 89 59 65 66 50 39 29 20 9 7 6 6 5 4 5 6 7 8 7 9 14 22 26 35 37 39 43 45 44 40 32 27 32 28 27 26
80 87 98 100 100 100 100 99 85 61 61 66 55 39 35 27 13 8 7 7 6 6 5 6 8 10 10 8 10 17 23 30 40 50 53 56 58 58 51 43 38 33 30 30
71 86 100 100 100 100 99 100 79 64 67 63 50 38 38 40 28 7 9 8 7 8 7 6 8 10 12 12 12 14 20 26 35 46 51 55 62 63 63 60 63 57 51 43
74 96 100 100 100 100 100 99 77 69 72 60 48 36 39 44 45 17 9 11 10 9 7 7 7 10 12 15 14 15 17 21 26 39 48 53 64 66 72 73 56 46 45 35
91 100 100 100 100 100 100 92 88 78 70 65 36 32 40 48 49 34 25 14 12 12 11 10 8 8 12 13 18 18 18 21 20 29 38 41 49 58 56 58 56 53 51 43
95 100 100 100 100 100 99 89 93 80 65 71 44 31 37 43 53 58 45 28 21 17 16 16 13 9 9 13 15 20 25 22 24 26 28 28 32 30 33 37 42 40 43 43
100 100 100 100 100 100 89 90 92 79 70 61 41 32 35 42 49 51 53 53 40 30 21 21 20 15 10 9 12 15 20 24 33 29 29 27 32 31 36 41 45 53 55 57
100 100 100 100 100 100 86 100 82 74 72 62 40 36 35 45 45 50 56 59 63 51 32 19 19 19 16 13 11 14 16 19 21 22 31 38 34 36 38 39 42 46 49 49
100 100 100 100 100 93 97 97 74 70 75 66 43 42 36 41 44 44 49 56 62 66 48 28 20 21 17 16 12 12 16 19 22 23 23 23 44 46 54 50 48 48 45 44
100 100 100 100 97 99 100 89 76 77 84 56 45 52 41 47 46 41 42 52 60 75 77 52 37 25 23 19 16 14 12 15 20 24 25 30 43 30 26 25 43 66 70 65
100 100 100 99 99 100 100 83 75 81 80 58 48 50 44 52 48 47 42 46 53 62 80 77 62 42 30 25 20 18 16 15 17 21 24 28 34 42 42 43 45 48 40 42
100 100 98 99 100 100 100 79 75 67 75 70 54 54 49 54 57 53 49 45 48 53 66 84 74 60 56 31 23 21 19 17 16 19 25 33 36 41 48 53 51 49 46 49
100 100 100 100 100 100 97 78 75 68 77 68 65 64 57 52 58 66 54 50 49 49 60 70 88 66 55 47 32 30 22 19 17 17 17 22 28 38 44 51 52 54 62 51
100 100 100 100 100 100 90 93 82 73 86 81 71 64 59 67 73 80 75 58 53 50 55 65 75 75 54 47 44 40 30 23 17 17 18 18 20 30 41 50 52 50 53 57
100 100 100 100 100 97 98 97 85 78 84 87 80 72 62 61 82 69 78 61 58 58 60 60 67 69 70 49 40 44 31 30 26 18 17 17 20 28 38 39 42 55 54 52
100 100 100 100 100 100 100 97 79 86 76 84 81 76 58 77 75 88 71 75 75 65 62 59 65 70 63 60 43 37 38 33 37 30 18 18 18 19 27 39 42 46 55 65
100 100 100 100 100 100 99 91 91 86 88 78 78 78 62 79 78 95 85 86 68 63 65 61 69 83 72 66 56 40 43 37 46 42 38 19 17 18 19 23 39 49 45 53
100 100 100 100 100 100 100 97 100 89 88 80 76 89 71 71 91 96 98 80 79 65 70 66 72 96 90 72 74 59 46 38 33 34 44 32 19 17 19 21 21 26 38 44
100 100 100 100 100 100 100 100 91 85 89 76 78 88 75 75 96 86 84 88 78 68 70 79 69 89 97 90 96 65 76 51 39 41 33 34 22 16 16 17 19 22 23 26
100 100 100 100 100 100 100 100 100 98 69 79 74 73 70 86 97 77 86 96 66 72 72 65 70 85 74 80 89 64 64 60 46 43 46 45 31 16 15 15 16 18 17 21
100 100 100 100 100 100 100 100 100 92 96 92 66 67 67 96 100 91 91 78 71 79 78 68 70 75 73 82 99 92 63 58 46 33 25 35 42 22 13 12 13 14 15 16
100 100 100 100 100 100 100 100 100 100 94 71 67 71 82 100 100 100 96 73 69 72 74 66 78 69 80 82 89 90 75 55 45 36 23 21 16 14 20 15 9 8 9 10
100 100 100 100 100 100 100 100 100 100 84 70 78 82 97 100 100 100 93 78 76 85 71 70 75 76 90 71 83 86 80 59 42 30 25 16 9 7 7 8 10 7 5 5
100 100 100 100 100 100 100 100 100 96 75 80 87 84 100 99 100 83 75 80 77 88 68 76 71 89 88 88 77 90 86 57 38 26 19 9 6 5 5 4 4 5 5 4
100 100 100 100 100 100 100 100 100 99 85 77 94 96 92 87 90 86 84 79 72 80 63 72 71 82 81 87 78 93 75 48 30 19 13 6 5 4 4 3 3 3 3 3
100 100 100 100 100 100 100 100 100 94 79 85 81 92 98 100 99 81 88 72 81 80 68 75 68 78 73 93 81 89 63 35 19 16 8 4 4 3 3 2 2 2 2 2
100 100 100 100 100 100 100 100 90 90 88 87 100 100 100 92 87 91 78 86 75 75 66 72 75 77 83 74 96 84 55 28 17 10 5 4 3 2 2 2 2 2 2 2

GFSNW_250_rhum_060.txt.gz
RH
80 100 100 100 94 98 100 100 100 98 81 69 62 37 48 38 20 13 11 7 6 6 4 5 5 8 8 8 8 17 22 27 34 34 30 25 23 22 21 21 22 21 21 25
92 100 100 100 91 100 99 100 100 97 76 71 64 39 45 40 23 15 12 10 8 7 7 5 6 8 10 10 10 13 16 26 32 35 40 37 30 25 22 21 24 29 28 26
98 100 100 90 93 95 100 100 100 94 77 63 65 46 44 39 28 17 14 14 12 11 9 9 7 7 10 12 12 12 13 14 24 32 38 40 38 38 34 30 30 28 28 26
100 100 100 100 100 100 100 100 100 89 82 63 62 42 40 42 35 24 14 14 15 12 13 11 12 9 8 11 15 15 15 17 15 20 32 44 53 54 54 59 50 49 41 38
100 100 100 100 100 100 100 100 100 94 80 68 66 47 37 37 41 31 33 16 18 14 13 17 18 18 16 10 11 15 18 20 19 21 26 32 34 42 46 47 42 47 47 45
100 100 100 100 100 100 100 100 92 93 78 65 69 49 38 35 38 41 42 34 24 28 18 12 17 21 24 19 12 13 18 24 26 22 22 23 29 30 35 36 36 43 52 49
100 100 100 100 100 100 100 96 100 90 85 79 73 57 37 31 37 43 47 47 50 44 30 22 14 15 19 25 23 16 14 18 24 26 28 27 31 32 34 34 38 43 39 42
100 100 100 100 100 100 100 100 98 98 94 76 63 54 38 36 33 38 45 54 55 59 59 39 30 17 17 18 21 21 18 18 21 25 34 42 42 46 44 42 46 46 49 51
99 100 100 100 100 100 100 97 98 100 99 81 76 54 50 44 36 39 41 50 56 62 60 67 53 38 25 23 22 20 20 19 17 18 24 36 78 51 45 46 53 60 51 54
99 100 100 100 100 100 96 96 100 100 96 82 75 54 54 47 39 39 40 45 50 56 57 67 75 71 65 40 32 28 24 22 21 21 20 21 28 32 35 50 60 71 62 57
100 100 100 100 100 100 93 100 100 100 88 80 76 59 58 58 46 45 38 44 42 50 51 58 64 68 73 67 54 35 21 28 25 23 22 22 23 24 23 27 37 48 53 45
100 100 100 100 100 100 91 100 100 99 88 77 75 70 69 62 48 48 50 46 42 43 46 51 56 59 64 58 57 58 59 48 42 29 24 20 20 23 26 39 36 35 45 54
100 100 100 97 100 94 97 100 100 95 85 69 73 69 83 74 53 56 48 52 42 43 46 49 52 53 55 58 58 57 64 41 43 41 38 34 22 20 23 24 26 31 42 46
100 100 100 100 99 91 100 100 100 92 84 69 68 75 86 75 57 58 60 58 55 52 58 51 47 51 54 56 62 59 62 70 49 49 46 36 32 31 18 20 25 29 31 36
98 100 100 98 100 100 100 100 98 91 86 79 70 75 76 80 70 64 60 58 56 59 58 51 66 53 52 54 59 57 58 65 60 49 43 34 33 32 30 20 19 22 28 31
93 100 98 95 100 100 100 100 96 92 97 92 81 80 76 96 80 69 67 67 79 72 71 65 70 60 57 50 52 57 66 66 44 52 44 36 32 36 29 27 23 20 24 31
91 99 88 96 100 100 87 94 87 92 98 98 80 79 87 98 77 71 72 76 83 71 73 69 68 73 67 60 51 56 68 61 60 47 49 36 29 31 35 25 24 20 20 26
83 96 76 90 100 98 88 88 87 99 100 98 85 73 88 95 81 74 80 83 86 79 84 75 64 91 84 78 66 71 64 85 74 74 62 39 28 28 34 26 24 23 18 20
77 65 85 100 100 83 81 90 94 97 100 98 73 69 85 95 81 80 85 77 90 83 78 88 72 87 82 74 71 72 68 91 82 81 92 72 62 44 40 27 16 18 17 14
66 60 91 100 100 92 99 98 97 81 99 95 77 86 94 98 71 85 79 87 92 83 88 91 89 74 73 72 77 83 71 67 95 76 96 84 65 52 39 26 19 20 13 11
62 80 99 100 100 100 100 100 94 89 90 83 89 99 100 95 78 88 88 86 95 98 100 88 84 77 78 72 64 71 66 64 88 67 92 81 69 47 36 17 10 12 16 15
76 84 99 100 100 100 100 100 87 91 93 88 94 100 100 97 82 93 98 98 100 100 100 94 83 86 86 70 58 62 60 68 72 74 82 65 48 34 23 12 8 7 7 8
70 83 100 100 100 100 100 99 91 100 100 99 100 100 100 99 93 92 85 100 100 97 98 96 98 87 68 53 59 71 64 86 69 64 61 59 44 37 14 8 6 6 6 5
80 99 100 100 100 100 100 93 92 100 100 99 100 99 97 100 94 99 96 100 100 99 89 96 88 69 68 80 67 70 61 68 75 75 60 50 33 18 8 5 5 4 4 4
95 100 100 100 100 100 100 100 100 100 100 100 100 100 100 97 95 92 84 85 86 86 96 86 75 65 67 69 66 64 68 64 54 76 49 32 17 8 5 4 3 3 3 3
100 100 100 100 100 100 100 100 100 100 100 98 100 98 100 98 87 82 82 90 80 88 70 79 82 61 64 58 60 60 55 63 60 64 33 24 12 5 4 4 3 2 2 2
100 100 100 100 100 100 100 100 100 98 100 100 100 100 100 87 94 92 80 68 67 82 100 77 71 54 57 64 57 60 66 64 51 51 22 16 6 4 4 3 2 2 2 2

GFSNW_250_rhum_063.txt.gz
RH
17 32 36 77 100 100 100 100 93 100 90 86 97 62 52 47 30 18 14 11 6 5 6 6 5 5 8 8 8 8 11 12 17 19 24 25 25 23 22 21 24 26 28 29
22 65 73 77 100 100 100 100 100 100 84 98 90 60 46 45 31 18 15 11 10 6 6 7 8 6 8 10 11 11 12 15 22 23 28 28 27 24 22 22 22 26 28 29
71 88 98 96 100 99 100 100 100 99 86 100 93 60 43 44 33 22 15 14 14 9 8 8 9 10 8 10 13 14 14 14 17 21 22 27 27 26 25 23 24 24 25 25
100 100 100 100 100 100 100 100 100 94 100 100 88 62 48 44 33 25 17 18 17 15 10 9 11 13 13 10 10 15 18 18 16 19 23 28 30 32 29 28 24 26 25 25
100 100 100 100 100 100 100 100 100 100 100 98 85 66 42 43 38 32 26 25 23 23 16 14 13 15 18 18 15 12 15 20 24 23 21 25 39 42 42 37 32 32 28 29
100 100 100 100 100 100 100 100 100 98 100 100 82 65 45 43 36 34 35 38 35 40 28 20 21 17 18 23 23 20 17 14 16 21 26 31 30 27 42 45 49 55 54 49
100 100 100 100 100 100 100 100 98 99 97 100 80 74 52 39 35 39 43 44 47 49 43 38 28 26 31 27 26 26 25 22 17 17 21 28 29 34 34 34 39 44 44 43
100 100 100 100 100 100 100 100 97 97 100 100 86 70 49 36 34 35 38 43 48 47 48 48 41 52 36 29 30 32 34 33 31 25 21 24 25 28 34 37 39 39 37 40
100 100 100 100 100 100 100 100 96 94 100 99 87 75 54 40 36 34 42 42 43 44 45 49 50 51 52 54 60 47 45 41 48 50 39 26 23 20 19 23 35 36 42 44
100 100 100 100 100 100 100 100 93 98 100 94 85 85 63 42 46 42 41 47 43 42 42 49 51 56 53 53 48 47 50 60 54 51 51 45 41 28 26 28 42 42 37 40
100 100 98 100 100 100 98 98 96 100 100 97 88 79 64 51 50 45 43 44 49 45 40 42 45 50 51 54 57 54 50 50 57 65 57 48 43 42 32 24 25 33 42 45
100 100 100 100 100 98 98 94 100 100 100 100 93 74 64 62 68 51 48 44 47 56 48 42 44 44 46 48 56 55 53 53 52 47 65 53 50 47 39 38 32 22 26 37
100 100 100 93 100 100 100 100 100 100 100 98 95 68 65 70 70 60 52 46 49 57 48 47 39 41 44 50 52 58 51 55 57 62 50 55 57 44 42 34 31 34 24 22
100 100 93 98 99 98 100 100 100 100 99 93 88 71 68 77 73 75 66 56 51 55 74 63 51 47 45 52 49 51 57 57 46 50 57 55 64 66 52 47 36 27 33 28
100 100 98 100 90 93 100 100 100 100 97 93 89 76 67 80 75 82 70 68 64 73 75 81 66 49 44 47 47 50 56 56 62 47 49 42 65 53 54 50 46 29 22 25
97 78 70 86 97 95 100 100 100 100 100 96 89 75 65 79 81 87 78 73 63 60 74 85 75 70 60 58 55 51 55 52 61 58 58 60 50 58 48 40 34 35 21 15
82 88 79 84 91 91 100 100 100 100 100 95 87 78 71 74 75 84 94 84 69 69 74 83 83 75 77 82 71 60 55 56 60 62 56 60 59 68 65 42 27 27 26 16
96 100 86 79 91 99 100 100 100 100 100 92 87 88 76 74 75 84 98 94 72 71 78 83 80 83 78 91 86 69 58 61 57 56 62 60 64 67 66 50 38 27 15 12
100 93 76 90 95 100 96 100 100 100 91 84 85 92 81 85 81 98 98 98 79 78 87 94 94 84 91 93 77 76 62 58 60 68 68 89 69 84 92 78 52 33 19 13
83 92 83 93 96 99 100 100 99 97 82 84 92 82 93 90 82 100 98 100 90 83 84 88 87 84 89 90 76 64 55 61 51 63 57 77 77 91 88 61 39 23 14 12
81 92 91 85 100 98 92 94 91 79 78 87 93 84 94 84 85 100 100 100 99 95 84 96 89 73 86 96 75 70 59 63 55 61 60 64 74 80 75 49 32 17 9 7
89 84 78 74 88 85 92 90 80 73 86 96 95 82 92 100 94 97 100 100 100 94 90 89 84 85 80 91 78 64 62 62 58 53 76 60 68 71 53 32 21 10 7 6
76 80 79 80 92 96 98 94 77 86 100 100 95 85 100 100 98 100 100 100 99 85 86 84 85 90 82 74 70 60 74 62 77 52 64 64 70 68 35 21 12 6 5 5
69 77 78 97 100 100 100 95 90 95 99 91 100 98 100 90 92 98 98 100 93 100 94 79 94 80 64 64 56 63 70 56 64 59 59 58 71 64 29 17 8 5 4 4
65 78 98 100 100 100 100 100 93 80 84 100 100 99 99 96 96 100 100 100 100 100 88 80 82 70 70 62 60 48 49 57 55 67 56 61 70 43 28 11 5 4 3 3
94 100 100 100 100 100 100 99 94 89 100 100 100 99 99 98 95 100 100 100 98 95 81 79 79 68 63 56 52 48 42 61 52 56 62 58 62 36 15 7 4 3 3 3
98 100 100 100 100 100 100 100 100 100 100 100 100 99 94 96 100 100 100 100 97 97 80 73 68 63 68 51 47 57 46 53 58 51 63 63 49 22 7 4 3 2 2 3

GFSNW_250_rhum_066.txt.gz
RH
6 7 17 26 63 100 91 100 100 90 100 96 84 59 83 71 31 15 15 14 7 5 5 4 6 4 6 8 8 7 7 8 10 11 16 22 25 26 24 23 19 19 20 23
6 8 19 33 100 100 100 100 100 98 100 100 72 69 83 60 29 21 15 14 10 6 6 5 7 6 6 8 11 14 12 11 12 12 12 16 24 28 26 23 22 19 20 22
8 13 28 66 100 100 100 100 100 100 100 99 69 79 77 52 32 25 18 14 13 11 9 8 8 10 8 9 10 13 15 15 16 15 16 17 25 29 30 29 27 24 22 22
17 30 60 100 100 100 100 100 100 100 100 92 81 78 68 52 37 25 21 16 13 16 13 10 10 10 14 15 14 11 12 17 19 21 20 20 21 24 29 28 26 26 24 22
30 68 99 100 100 100 100 100 100 100 100 98 93 80 64 44 35 29 26 25 23 23 22 16 14 15 13 15 18 17 16 14 16 23 26 25 28 30 32 28 29 28 24 24
41 64 100 100 100 100 100 100 100 95 100 100 88 81 48 40 37 33 32 35 36 34 30 33 34 28 22 22 22 24 27 24 20 18 20 24 25 29 29 31 35 32 29 25
44 98 100 100 100 100 100 100 97 99 100 100 88 72 48 39 33 32 33 40 43 46 46 40 33 43 46 42 39 34 27 33 33 33 30 24 21 23 29 34 37 37 36 36
68 100 100 100 100 100 100 100 98 100 100 100 80 69 52 41 37 33 34 36 45 47 48 48 44 42 44 49 55 55 55 56 41 37 37 37 38 36 28 22 32 44 46 42
100 100 100 100 100 100 100 100 100 100 100 100 84 72 54 42 43 41 36 34 37 45 44 46 47 48 49 48 50 48 48 54 64 74 65 56 56 46 38 43 35 27 38 49
100 100 100 82 100 99 98 100 100 100 100 96 95 81 68 52 45 48 45 40 38 36 37 45 47 48 50 50 46 46 43 44 51 60 67 74 83 80 57 60 45 36 35 32
90 100 90 100 100 88 100 100 100 100 100 97 100 85 68 58 48 48 48 45 39 39 41 45 42 44 43 44 46 52 46 42 54 51 59 70 73 73 74 64 54 45 34 34
100 96 100 100 98 94 100 100 100 100 100 100 100 89 71 62 59 52 55 57 51 43 42 46 50 45 42 43 47 46 49 50 50 53 46 53 64 73 67 70 48 45 36 28
99 100 100 100 93 100 96 100 100 100 100 100 100 100 76 69 67 60 62 66 66 53 47 50 49 46 44 41 41 46 48 46 46 50 47 61 61 70 72 67 57 45 35 32
91 100 100 96 96 98 100 100 100 100 100 100 100 98 73 73 65 64 62 67 78 71 59 51 52 49 43 38 43 48 42 47 48 50 52 60 62 70 74 68 60 53 52 37
100 100 100 100 95 89 100 100 100 100 100 99 100 99 77 72 68 66 62 62 81 84 77 66 59 61 64 48 44 47 50 41 48 44 49 54 61 69 74 81 64 66 38 38
100 100 99 100 100 79 100 100 100 100 100 100 100 100 83 66 68 72 71 67 76 84 82 84 83 78 72 60 57 50 49 47 48 51 56 52 61 74 81 93 95 82 72 34
100 100 100 100 94 88 100 100 100 100 100 99 100 100 86 69 70 84 76 65 68 74 79 91 87 77 81 71 60 61 53 50 49 51 49 57 74 78 91 86 95 76 72 43
99 100 95 95 92 93 95 100 100 100 100 100 100 100 93 80 81 88 76 72 83 84 78 79 82 83 88 78 69 64 62 58 52 45 55 65 74 73 88 79 86 93 84 49
100 99 93 90 89 100 90 100 100 100 100 100 100 100 93 84 88 89 89 80 81 78 90 79 86 94 95 90 79 77 64 56 57 53 56 71 67 78 84 86 77 82 87 50
96 92 91 100 93 100 99 100 100 100 100 100 100 99 93 89 95 95 92 89 80 79 86 91 89 85 95 91 86 78 70 55 55 57 59 62 77 83 90 95 74 77 81 34
87 92 99 100 100 100 98 96 95 100 100 98 100 100 95 98 100 88 88 92 86 77 86 88 87 85 100 99 92 79 63 55 57 64 55 60 70 78 90 95 66 68 48 21
100 94 80 89 97 99 97 99 99 100 99 100 100 88 85 95 99 97 93 96 87 89 87 81 84 88 100 97 87 90 62 60 64 58 57 58 71 69 90 80 59 64 30 13
95 95 61 87 93 95 92 100 100 99 97 92 84 72 80 93 100 100 98 94 92 96 92 81 99 97 99 98 100 92 63 59 57 52 59 63 77 67 78 57 54 39 15 7
92 89 80 81 92 100 100 99 98 93 88 87 83 76 78 97 100 100 98 100 96 93 94 94 97 94 99 95 94 88 63 61 54 53 72 64 69 79 64 48 53 17 7 5
100 95 74 90 100 95 97 99 99 93 98 100 95 89 88 100 100 100 96 100 94 99 94 96 100 99 95 88 82 77 66 56 57 55 66 66 74 78 80 39 36 8 4 4
100 98 100 100 96 99 100 100 100 100 99 100 100 100 100 100 95 94 98 97 100 97 96 96 91 87 94 90 87 74 62 58 54 57 56 68 67 72 73 32 22 6 4 3
96 100 99 93 99 97 100 100 98 100 100 100 100 100 100 95 94 92 100 97 96 84 92 93 82 93 99 94 84 58 60 60 48 54 58 68 69 62 45 28 12 4 3 3

GFSNW_250_rhum_069.txt.gz
RH
2 7 7 10 38 94 65 100 100 100 100 99 100 100 100 58 23 13 14 11 8 6 6 4 6 6 5 6 6 7 7 6 8 10 16 21 23 28 30 28 26 24 30 28
3 6 8 12 95 76 98 100 100 100 100 100 100 100 77 52 22 12 15 12 8 6 6 5 7 8 7 7 9 10 9 10 10 10 12 16 21 24 25 24 26 28 25 24
4 6 8 53 56 73 100 100 100 100 98 100 100 100 66 50 29 19 13 14 11 8 7 7 9 11 10 9 9 11 12 15 16 16 16 16 18 23 27 28 24 22 20 23
6 6 13 38 70 99 100 100 100 100 100 100 100 91 60 41 30 25 18 17 15 13 11 11 10 12 13 14 14 14 12 12 14 18 23 27 28 24 22 25 28 29 27 23
7 8 10 35 97 100 100 100 100 100 100 100 100 70 48 36 31 27 23 26 24 25 21 17 14 15 17 23 23 22 23 26 20 18 20 23 24 31 40 37 34 35 34 32
8 9 24 48 96 100 100 100 100 100 100 100 95 55 43 37 34 31 29 32 29 31 32 29 29 25 29 30 29 29 30 32 31 36 33 26 21 18 22 26 33 43 48 43
9 18 58 73 100 100 91 100 100 100 100 100 84 49 41 37 36 33 33 32 32 38 39 37 35 36 42 38 37 38 46 44 49 44 42 38 35 33 33 26 21 22 25 30
15 23 65 63 88 98 100 100 100 100 100 99 82 50 43 42 37 36 33 36 37 43 42 44 45 43 44 50 51 52 54 41 41 46 54 74 68 61 50 44 36 34 30 22
28 40 48 77 98 100 100 100 100 100 100 98 83 52 46 45 38 38 35 34 37 40 39 40 42 46 45 48 46 51 53 62 56 56 58 42 66 78 85 76 75 68 48 33
27 39 52 73 92 99 100 96 100 100 100 95 86 79 60 56 39 40 44 41 36 35 34 36 38 41 42 44 46 42 40 46 51 55 63 61 61 64 67 62 66 73 64 50
13 30 50 86 92 99 100 99 100 100 99 91 93 81 67 50 44 45 45 48 48 50 44 41 39 43 44 42 40 43 46 45 49 54 59 66 62 66 65 64 79 79 75 58
37 46 74 76 99 100 89 100 100 100 98 85 93 86 72 61 53 51 48 47 52 57 58 54 53 55 49 40 39 39 40 42 42 49 55 60 54 68 75 58 53 55 56 57
60 79 89 85 100 97 84 100 100 100 91 88 98 100 82 74 59 52 50 48 50 52 50 54 59 62 62 70 60 53 44 42 40 47 53 58 63 72 83 85 65 63 57 62
84 100 93 100 100 84 100 100 100 100 93 94 100 100 90 78 67 59 55 54 51 55 53 58 54 59 54 60 73 72 60 53 50 48 57 56 59 80 92 95 79 80 71 79
97 100 88 100 97 85 100 100 100 100 100 100 100 100 95 86 70 66 71 60 58 58 52 63 59 61 66 61 64 80 68 69 71 52 53 54 62 72 88 98 93 92 89 78
100 100 95 100 98 100 100 100 100 100 100 100 100 99 100 98 73 74 74 66 61 62 58 61 67 65 67 68 68 82 83 73 79 72 58 55 64 73 80 81 100 94 96 82
100 90 100 100 100 99 100 100 100 100 100 100 100 100 100 100 87 85 79 70 62 65 66 66 72 67 66 67 64 72 80 77 95 86 67 60 70 64 68 85 100 99 100 92
100 100 100 99 99 89 100 100 100 100 100 97 100 100 100 100 100 97 89 85 68 66 63 69 71 68 62 60 62 73 78 86 83 87 86 66 80 63 77 86 100 100 100 78
96 94 100 100 100 93 96 100 100 100 100 100 100 100 100 100 100 98 96 97 75 73 70 69 68 71 66 68 70 75 85 86 78 90 90 96 66 75 77 95 100 100 88 76
100 98 100 100 91 100 88 100 100 100 100 100 100 100 100 100 100 100 100 100 87 73 74 72 68 73 69 70 73 82 87 87 92 99 91 92 69 74 66 86 100 100 86 76
100 97 100 100 99 100 99 90 90 100 100 100 98 100 100 100 100 100 100 100 93 82 79 78 73 80 74 78 76 86 90 95 100 96 99 95 77 71 74 90 99 95 77 50
100 97 100 100 100 100 100 94 85 100 100 82 82 98 100 100 100 100 96 94 89 81 79 80 80 78 78 82 79 93 100 90 86 80 98 79 71 70 82 87 100 81 63 42
88 99 98 100 100 100 100 100 99 100 100 92 83 100 100 97 100 96 87 89 81 78 82 70 79 83 84 79 79 99 93 80 71 74 80 69 65 69 86 94 93 60 44 25
88 100 100 98 100 100 100 100 100 99 94 92 95 97 100 100 100 98 98 95 88 84 82 75 76 79 78 81 90 92 81 77 71 72 64 63 65 80 87 99 70 48 27 12
97 100 100 99 100 100 100 100 100 99 92 92 99 100 98 100 100 97 98 95 94 89 80 68 72 80 74 86 86 85 79 77 73 72 71 63 68 90 92 71 44 26 12 7
97 97 100 100 100 99 100 100 100 100 99 95 99 100 95 99 98 98 96 96 95 86 72 68 74 75 86 84 85 82 82 78 66 77 70 67 72 80 90 64 35 14 7 5
88 100 100 100 94 95 97 91 90 95 100 100 100 98 100 98 95 94 97 94 89 76 63 65 75 84 88 93 97 79 81 77 68 78 63 70 69 69 56 46 21 10 5 3

GFSNW_250_rhum_072.txt.gz
RH
2 2 2 5 10 11 37 46 80 100 100 100 100 86 37 19 18 14 10 8 6 5 3 4 4 4 4 5 6 6 6 7 8 9 10 13 18 20 19 19 18 18 17 19
3 3 4 8 8 26 58 99 100 100 100 100 100 67 32 23 18 17 12 8 7 6 5 4 6 7 6 6 7 8 10 11 12 10 16 19 22 27 24 26 27 25 22 20
4 4 7 8 20 21 61 98 100 100 100 100 89 60 37 25 19 17 12 10 8 7 6 6 8 10 10 10 9 10 12 13 15 22 22 23 22 25 30 30 32 32 29 25
5 5 7 11 29 45 72 90 100 100 100 97 73 56 38 26 24 16 13 12 11 9 8 8 11 16 18 18 17 17 20 16 16 18 18 21 30 38 38 35 37 41 40 39
5 6 8 16 24 55 74 100 100 100 100 82 61 46 41 34 28 21 17 15 14 11 13 15 12 16 20 23 27 33 28 25 23 25 24 22 24 24 23 26 34 46 49 46
7 5 11 14 42 60 96 100 100 100 96 72 52 42 38 37 32 29 27 25 23 23 24 24 23 20 23 31 36 41 43 43 38 38 35 32 27 28 28 28 28 28 27 27
8 10 11 32 51 92 100 100 100 100 84 56 48 42 39 35 33 36 36 33 33 36 39 39 39 38 36 37 36 40 41 45 53 64 64 71 67 60 53 46 40 35 35 35
8 9 15 37 71 94 100 100 100 89 60 52 47 46 44 38 37 36 37 34 38 40 40 39 39 40 46 47 49 53 50 45 44 45 52 60 73 67 68 64 69 68 65 52
8 9 18 51 88 100 100 100 98 87 56 51 48 50 46 42 40 35 35 35 38 38 39 37 40 41 39 39 42 46 48 54 56 55 56 60 48 51 52 68 73 74 73 66
9 16 26 58 94 100 100 100 96 90 60 51 50 58 46 46 40 43 43 43 40 37 44 45 54 52 53 53 51 50 51 49 51 56 59 69 63 64 68 59 60 58 61 63
12 24 43 81 100 95 96 100 98 94 80 72 68 60 50 51 46 42 43 45 44 42 45 47 49 44 41 43 47 54 56 54 54 56 61 64 63 69 74 71 68 58 57 54
26 39 75 100 99 100 100 100 100 100 97 83 68 59 54 52 52 44 42 42 40 41 41 41 45 46 51 51 49 50 54 52 56 70 62 72 68 72 70 70 77 92 62 87
40 72 81 100 94 100 93 100 100 100 99 91 80 69 69 60 53 52 49 47 44 41 41 44 45 52 53 56 53 53 59 60 64 76 76 77 68 81 88 77 86 88 100 92
46 74 96 97 100 96 100 100 100 95 98 100 91 76 75 69 62 60 54 46 44 50 50 51 54 57 59 58 58 54 65 69 64 66 74 74 70 92 100 99 81 90 98 94
69 93 96 99 98 100 100 100 100 97 100 100 100 99 92 82 71 67 58 54 51 50 53 55 58 61 63 62 59 62 66 66 81 78 81 87 77 92 100 92 82 88 100 96
83 78 100 100 95 100 100 100 100 99 100 100 99 100 95 94 88 76 69 62 59 58 57 58 61 61 59 61 67 66 71 72 79 81 94 86 88 87 97 99 91 99 100 100
89 97 100 99 94 100 100 100 100 100 100 100 100 99 94 93 97 98 84 73 64 66 65 67 68 63 65 68 63 65 67 71 85 98 92 86 92 94 99 95 89 100 93 100
86 98 100 100 94 98 100 100 100 100 100 100 98 99 98 96 92 95 94 87 75 74 70 71 66 64 64 69 68 69 66 78 82 92 94 85 91 95 100 100 95 85 90 83
82 96 100 100 99 80 100 100 100 100 100 100 100 91 89 95 92 97 99 92 86 79 76 71 66 64 64 64 64 68 71 75 84 94 97 80 100 97 100 90 93 100 79 84
85 100 100 100 100 93 100 100 100 100 100 100 100 99 95 100 99 97 100 96 91 82 79 74 72 71 72 68 63 65 66 75 86 93 97 96 100 97 100 94 87 99 77 91
98 95 100 100 100 100 87 98 100 100 100 100 99 100 100 98 100 100 100 94 94 98 87 80 80 75 70 64 59 60 73 76 93 96 97 95 99 99 99 85 87 86 74 74
100 84 99 99 100 100 100 98 92 100 100 100 100 97 89 92 94 100 100 100 100 99 86 80 71 70 70 64 58 64 76 86 96 98 95 97 91 94 96 80 76 94 72 55
98 82 89 94 98 100 100 100 95 99 100 100 100 100 93 97 93 85 100 98 99 90 86 75 70 69 68 60 58 68 86 94 97 93 95 99 92 90 82 72 75 82 74 36
100 97 91 88 95 100 100 100 100 100 100 100 100 100 98 92 93 97 89 96 88 84 78 73 66 65 61 59 65 87 92 88 93 98 94 96 84 91 77 82 76 66 50 23
100 90 88 93 100 100 100 100 100 100 100 100 100 96 90 95 96 94 95 99 92 82 73 65 62 59 64 70 73 91 94 81 89 91 96 92 85 74 69 68 73 56 29 15
100 100 92 97 100 100 100 100 100 100 100 100 100 96 93 96 96 99 95 90 82 79 67 59 58 60 70 79 83 94 91 84 84 86 83 88 72 75 72 69 63 52 22 11
99 100 97 100 100 100 100 100 100 100 100 100 100 98 96 98 100 89 84 82 80 73 64 60 57 67 75 81 98 95 84 83 81 81 71 74 66 67 72 77 69 38 15 9

GFSNW_250_rhum_075.txt.gz
RH
3 4 4 5 5 7 12 10 15 26 36 41 51 54 20 14 11 9 7 6 6 4 4 4 3 4 3 4 4 4 4 5 7 8 10 13 18 22 19 18 18 17 20 26
3 4 5 6 8 12 12 22 58 55 53 69 59 24 19 14 11 9 9 8 6 6 5 4 5 6 6 6 7 8 6 6 7 9 12 17 17 30 32 31 29 25 21 24
5 5 6 9 10 10 34 67 71 59 58 62 27 23 18 14 11 12 10 8 7 6 6 6 9 10 11 11 11 11 11 12 12 12 12 12 15 23 32 38 42 41 35 36
6 5 8 10 11 20 45 70 56 65 58 36 24 22 18 15 14 15 10 9 8 8 8 11 13 14 16 19 22 22 21 22 19 18 19 21 19 16 16 22 29 29 32 33
8 8 11 14 27 46 53 59 69 57 36 30 25 22 18 15 14 12 11 8 8 9 10 11 11 14 20 24 24 24 26 30 33 33 35 38 40 36 32 29 26 26 28 26
9 9 10 21 54 42 78 79 65 39 35 35 30 28 20 20 18 16 16 13 13 16 18 20 20 20 26 30 39 40 38 40 48 50 45 43 45 45 40 45 49 50 51 50
10 11 16 42 63 83 78 72 53 38 39 37 35 32 27 27 28 28 28 28 27 34 37 41 39 33 31 36 36 46 48 55 59 56 52 54 54 56 59 64 66 65 67 61
12 11 20 63 81 71 79 64 45 39 40 38 39 37 32 33 32 32 35 37 38 40 45 42 45 50 51 53 49 46 46 43 46 57 61 63 69 67 55 50 56 64 63 57
18 27 62 100 80 78 72 52 46 45 42 42 44 41 39 38 36 34 34 41 39 39 39 36 39 44 47 49 51 50 49 54 55 59 58 55 58 56 65 64 59 59 52 54
24 52 88 90 81 88 61 53 51 49 46 44 40 38 39 38 40 41 39 37 36 34 40 42 41 40 39 41 48 52 47 54 60 61 61 60 60 61 63 68 72 79 55 53
48 73 79 75 90 82 59 54 55 56 53 48 44 44 47 48 43 41 42 41 42 43 46 46 44 47 50 51 51 52 53 58 68 70 66 64 67 72 75 80 68 85 76 74
47 73 67 75 92 82 65 58 61 61 58 51 51 48 50 45 45 43 42 44 47 48 48 48 52 51 53 55 57 56 58 70 65 65 69 75 73 83 84 86 82 95 96 80
72 93 85 83 96 95 73 70 80 70 64 57 59 55 52 51 50 49 48 48 50 53 54 53 54 54 56 58 58 58 63 66 71 70 77 88 83 90 93 96 100 99 91 88
94 98 78 94 98 99 100 100 87 82 83 80 79 66 56 54 53 51 53 53 54 57 59 56 54 52 53 56 58 59 62 66 72 81 84 74 96 98 98 100 94 100 99 97
100 100 85 95 100 100 100 100 95 94 97 95 89 86 75 65 61 58 63 62 60 64 65 64 60 54 51 55 56 58 63 66 79 77 94 99 88 98 96 100 100 100 100 93
100 100 97 95 97 100 100 100 100 100 97 89 88 99 91 84 72 70 76 71 66 65 67 64 60 58 56 54 63 60 61 67 76 89 97 99 100 98 100 100 100 100 100 89
100 100 99 90 85 93 100 100 96 100 98 100 99 97 100 98 88 79 72 74 75 72 72 71 70 66 63 59 59 59 61 66 76 83 93 97 99 100 100 100 100 100 99 87
100 100 95 92 97 88 99 100 100 100 100 94 100 100 100 98 95 85 80 79 79 74 78 83 83 79 72 63 64 64 65 67 73 87 95 100 99 100 100 95 100 100 100 93
98 100 100 100 95 86 96 100 100 100 100 99 100 100 100 100 92 92 91 89 84 80 87 79 76 73 72 70 65 63 62 67 79 91 100 99 90 99 99 84 93 98 96 100
97 100 100 100 100 91 91 99 100 100 100 100 100 100 100 96 96 98 99 95 90 96 92 73 69 71 74 75 68 61 64 71 80 90 99 84 88 100 92 98 90 89 91 93
91 100 100 100 100 100 81 75 91 100 100 100 100 100 100 100 99 90 89 82 82 82 77 71 68 74 79 77 69 61 65 75 82 88 98 84 91 94 85 98 82 82 79 80
79 87 100 100 100 100 94 81 81 91 100 100 100 100 89 94 94 93 88 94 95 85 71 70 71 76 77 74 64 61 64 72 75 82 91 84 92 84 83 82 75 79 76 74
48 75 100 100 100 100 100 100 100 98 100 92 91 100 100 100 83 80 77 80 84 84 85 79 71 75 76 69 65 61 64 69 77 79 88 85 91 89 80 64 74 88 72 65
50 72 100 97 100 100 100 100 100 100 100 98 86 93 80 94 99 82 71 78 82 90 90 76 74 80 84 80 71 60 64 66 72 84 85 76 80 81 78 72 71 78 68 50
40 59 82 99 100 100 100 100 100 100 100 100 100 100 99 100 94 84 84 87 88 95 96 83 80 88 91 91 73 62 58 70 71 88 74 64 76 81 64 66 66 65 60 43
20 56 78 100 100 100 100 100 100 100 100 100 100 100 100 100 95 97 96 91 95 92 95 94 91 90 92 92 72 62 59 71 86 79 64 64 82 65 63 66 65 61 57 40
14 59 96 100 100 100 100 100 100 100 100 100 100 100 100 100 100 100 98 97 91 94 100 100 91 97 96 90 70 61 62 77 84 67 59 69 75 57 64 65 66 60 46 32

GFSNW_250_rhum_078.txt.gz
RH
4 4 4 4 5 6 8 10 10 13 16 15 15 14 11 9 7 6 6 5 4 4 4 4 3 3 3 3 3 3 4 5 7 10 15 20 21 19 19 21 16 22 35 43
6 6 6 7 12 11 10 13 18 17 16 14 13 12 10 8 7 7 6 5 5 5 5 4 4 3 4 4 5 5 6 8 8 10 15 21 30 34 34 30 30 28 28 34
7 8 8 12 14 14 21 20 18 15 14 14 15 12 10 8 8 8 8 7 6 6 5 6 6 6 7 7 8 8 9 10 11 12 12 12 16 19 29 31 29 35 35 40
8 12 12 14 22 33 20 17 15 15 18 19 17 14 12 11 11 10 8 7 8 8 8 10 12 14 15 16 18 19 20 22 21 17 17 20 18 20 21 24 25 26 27 28
10 10 16 34 44 26 20 19 19 21 22 19 18 16 15 14 12 10 11 10 10 11 11 11 11 14 18 21 23 23 22 23 23 26 28 31 38 40 37 33 33 31 32 33
12 12 21 34 34 23 22 24 23 22 19 17 16 15 15 14 11 10 10 9 9 12 13 16 21 26 28 32 35 35 34 33 30 32 35 38 38 37 39 42 40 46 48 51
17 24 29 37 25 23 23 23 23 22 19 18 18 17 16 17 17 14 16 18 20 22 23 23 25 28 34 37 37 38 42 45 44 42 42 48 49 45 47 47 48 49 52 55
33 41 45 34 29 27 28 30 27 24 27 26 26 25 23 22 24 26 28 30 33 35 36 37 38 41 39 42 41 42 43 48 49 51 48 51 51 48 50 55 54 52 50 55
40 55 46 37 34 33 37 40 36 29 28 32 31 31 30 32 33 34 34 36 38 40 41 44 44 44 46 50 49 53 53 52 60 61 53 54 50 57 56 53 55 59 57 56
50 60 55 41 40 40 40 39 37 34 35 35 36 36 36 36 38 41 39 40 43 49 50 47 50 52 50 51 48 47 53 52 55 67 74 75 71 72 67 58 60 62 64 71
56 69 58 43 45 45 47 47 44 40 42 47 46 44 44 46 47 48 47 48 50 50 48 50 50 49 49 51 53 54 61 70 60 55 79 80 65 72 82 86 77 71 78 80
74 81 60 48 50 48 48 46 47 47 48 48 47 45 44 45 45 47 49 48 48 48 49 47 49 51 51 52 57 60 57 65 70 71 75 77 80 93 82 80 91 92 90 85
93 93 64 51 52 57 56 51 51 53 54 51 48 48 48 48 48 48 49 49 49 50 49 48 48 51 54 56 57 62 66 67 70 84 90 92 100 99 94 77 83 91 88 86
100 100 82 57 55 59 60 56 57 56 56 54 52 56 53 56 55 56 55 53 55 56 54 52 56 58 57 54 58 64 66 68 73 87 95 100 99 96 99 98 97 86 92 79
100 100 100 83 60 71 75 69 67 66 69 64 61 55 58 64 71 72 65 64 63 64 67 70 70 68 67 64 65 65 64 66 76 80 91 97 95 99 92 95 89 98 88 88
100 100 100 100 90 92 90 87 84 81 80 80 74 79 77 79 86 83 79 74 73 77 78 76 76 71 66 66 69 66 61 66 71 83 91 93 96 93 95 97 92 83 79 87
100 100 100 100 100 100 99 93 93 96 91 92 92 91 90 92 92 94 87 82 80 88 83 79 73 70 65 69 76 76 67 66 72 78 75 76 89 98 89 88 83 75 84 81
100 100 100 100 100 100 100 100 100 100 99 93 94 97 84 93 92 89 86 85 85 80 77 73 70 67 71 76 80 82 73 67 66 70 70 69 97 97 87 78 77 72 84 73
84 100 100 100 100 100 100 100 100 100 92 94 86 81 84 78 85 88 85 88 84 78 73 72 72 74 79 80 79 90 84 74 69 67 64 62 96 96 73 66 75 65 76 65
83 84 88 100 100 100 99 100 100 100 100 100 99 93 85 79 79 79 76 71 73 83 90 72 74 84 81 83 86 98 89 78 70 69 61 61 95 90 72 65 63 70 72 77
32 82 94 87 80 99 99 86 99 100 100 100 100 100 98 84 77 73 69 68 67 76 71 71 76 81 86 85 87 86 85 84 73 71 64 62 89 81 70 63 58 66 66 76
19 30 84 92 80 93 100 98 92 99 100 100 100 100 100 100 86 71 69 65 67 74 73 77 86 90 89 95 91 92 82 78 78 72 61 71 85 83 66 60 62 58 66 69
33 23 41 92 99 97 100 100 100 99 83 100 100 94 100 100 100 96 80 68 70 72 82 88 93 96 96 100 100 100 87 74 75 73 62 80 80 81 66 55 59 54 65 65
88 37 22 40 98 100 100 100 100 100 100 99 98 98 94 87 86 82 77 79 79 80 85 96 93 92 99 100 100 100 96 79 80 74 71 75 77 76 64 53 59 51 62 57
98 63 20 20 59 100 100 100 100 100 100 100 100 100 100 95 100 98 94 91 100 96 94 97 100 100 100 100 100 100 93 83 82 74 92 79 78 72 58 52 52 55 62 52
96 78 29 10 41 93 100 100 100 100 100 100 100 100 100 100 100 100 100 100 97 96 98 95 100 100 100 100 100 100 94 81 77 92 91 80 75 65 56 49 47 51 73 49
100 100 36 11 14 43 99 100 100 100 100 100 100 100 100 100 100 100 100 100 100 99 96 100 100 100 100 100 100 100 92 76 80 94 93 80 72 57 50 49 46 57 59 44

GFSNW_250_rhum_081.txt.gz
RH
6 6 9 7 6 6 9 6 19 8 12 15 12 9 8 7 6 5 4 4 3 3 3 3 3 3 3 3 3 3 4 4 6 10 15 16 16 14 17 23 41 43 52 44
10 8 15 17 19 18 17 17 15 11 9 7 7 7 6 6 5 5 4 3 4 3 3 3 3 3 3 3 4 4 5 5 6 9 12 16 20 26 28 33 45 40 42 42
22 23 20 20 18 15 11 10 9 8 7 7 6 6 6 6 5 5 5 6 5 4 4 4 5 5 5 5 5 5 6 7 8 10 11 10 16 20 25 30 39 56 62 63
28 23 20 18 16 14 12 11 10 9 7 5 6 6 6 6 8 8 7 6 6 6 6 8 10 11 12 13 12 11 11 11 10 12 13 14 17 19 24 24 27 33 48 59
26 23 21 17 16 14 13 13 12 10 9 9 9 10 11 11 11 10 8 9 9 10 12 14 16 18 21 22 22 23 22 20 23 25 28 31 32 30 25 25 24 26 27 26
25 22 19 16 16 16 16 17 17 16 16 15 15 14 14 13 12 11 12 13 13 15 17 19 19 21 23 23 25 28 28 29 28 29 29 31 34 34 35 37 40 38 43 43
26 21 18 17 19 20 20 22 22 20 21 20 18 16 15 13 12 11 12 14 14 15 18 20 23 27 30 31 31 32 34 37 43 41 38 35 34 38 39 41 44 44 47 50
24 21 18 19 22 23 22 22 22 20 21 21 23 23 19 20 19 20 21 23 24 27 28 27 28 28 30 30 32 36 40 42 44 46 45 43 45 44 43 42 40 38 40 41
30 24 22 22 26 29 31 33 32 31 30 31 29 31 33 34 34 35 35 38 40 42 40 44 47 46 43 47 53 58 57 49 45 48 47 50 45 44 45 49 52 56 51 51
35 32 30 28 30 32 35 39 39 38 37 38 36 35 39 43 41 41 44 46 44 48 48 48 49 50 52 51 50 54 58 59 59 56 59 66 65 69 75 67 65 73 68 65
45 40 39 33 34 37 38 41 42 43 43 43 43 40 42 45 45 45 47 47 49 49 49 51 54 55 55 55 59 64 69 68 72 71 69 76 85 87 87 74 81 71 78 73
61 50 47 42 38 39 45 47 48 48 46 46 48 46 46 48 48 49 49 47 49 52 52 52 54 56 56 61 64 66 69 74 76 77 77 83 81 83 85 88 87 80 68 67
92 62 56 52 47 45 47 51 52 49 48 50 50 51 51 51 51 52 54 54 54 57 58 60 60 61 62 63 60 64 67 69 76 80 79 85 80 90 94 87 84 67 68 66
100 95 69 64 62 54 56 57 56 54 56 55 56 54 55 52 52 54 58 58 60 67 70 69 68 70 73 78 75 68 68 70 74 75 76 70 79 95 100 90 81 65 57 63
95 100 100 81 70 64 60 58 58 61 64 63 58 64 68 67 68 62 60 65 68 67 66 68 68 69 75 82 87 90 84 78 75 72 71 68 66 92 93 93 83 73 63 54
100 87 100 100 92 83 76 67 70 71 73 76 74 71 73 69 66 65 63 67 65 65 64 68 74 81 80 80 90 96 92 89 81 72 69 70 65 70 91 92 92 72 67 58
76 100 91 100 100 100 100 98 88 87 93 95 95 89 86 78 79 82 78 72 73 72 72 72 77 83 81 91 89 87 87 92 91 92 85 78 74 76 77 95 87 78 68 62
35 70 98 83 100 100 100 100 100 98 92 99 100 97 92 82 78 77 77 76 74 72 78 78 77 82 83 92 92 84 86 90 88 91 94 85 78 70 62 77 83 79 74 70
60 33 60 98 82 99 100 100 100 100 100 100 100 100 90 95 90 87 82 72 70 72 76 73 79 87 94 98 100 99 93 87 85 90 87 83 83 75 65 86 86 77 75 61
100 60 34 67 89 79 77 100 100 100 100 100 100 100 100 96 94 90 84 76 71 69 72 74 79 87 94 93 100 100 99 87 85 94 86 79 83 87 76 82 87 74 72 60
100 93 34 31 65 94 83 72 92 100 100 100 100 100 100 100 100 100 85 77 68 67 68 74 78 85 82 88 92 100 100 99 88 99 85 78 79 91 82 86 82 70 70 62
89 100 93 74 45 40 82 99 86 98 89 99 97 100 100 100 100 100 100 96 90 76 69 76 83 97 84 86 91 100 100 100 100 99 87 80 75 92 90 87 83 70 66 59
100 100 100 89 100 74 47 97 100 95 85 86 84 85 89 100 100 89 92 100 90 84 96 77 95 100 99 97 97 100 100 100 100 99 92 83 76 96 88 84 78 68 62 55
88 88 100 100 100 100 98 52 81 100 100 85 81 81 82 86 92 80 75 72 83 84 100 78 100 100 100 95 97 100 100 100 100 100 97 86 77 90 84 83 74 65 58 53
89 74 100 96 100 100 100 100 56 50 88 95 98 91 91 82 87 94 83 79 96 100 79 75 98 100 100 92 100 100 100 100 100 100 97 86 76 74 73 76 67 62 54 50
100 75 75 82 99 100 100 100 99 50 26 54 98 97 100 100 95 93 99 93 100 85 84 98 100 100 100 97 100 100 100 100 100 100 100 87 77 66 69 68 62 62 54 47
100 94 76 78 79 94 98 100 100 99 45 25 30 79 92 83 99 100 100 100 95 91 100 100 100 100 100 99 100 98 100 100 100 100 100 94 74 69 73 67 62 59 52 47

GFSNW_250_rhum_084.txt.gz
RH
17 16 15 16 11 11 6 7 13 6 5 7 8 8 7 7 6 5 5 4 3 3 3 2 2 2 2 2 3 2 4 4 6 7 9 10 11 13 20 17 21 26 26 32
15 14 14 15 14 14 13 9 12 9 7 5 5 5 5 4 4 4 4 3 3 3 3 3 3 3 3 3 3 4 6 6 9 9 8 11 12 16 21 25 33 44 51 43
14 12 11 11 9 8 8 8 7 7 5 5 5 5 4 4 4 4 4 4 4 4 4 4 4 4 4 5 5 6 7 7 8 10 10 12 11 11 11 16 27 32 53 78
15 13 11 9 9 8 7 8 7 6 6 6 5 4 4 4 6 6 5 6 6 7 6 7 8 9 9 8 8 8 8 9 9 10 13 14 18 17 16 16 17 22 25 39
16 14 12 12 11 10 10 10 8 10 10 7 6 8 8 10 10 11 10 10 10 11 11 12 14 16 16 17 19 21 22 24 24 24 25 25 24 21 19 21 28 31 34 28
20 18 16 17 14 13 12 11 14 17 15 15 15 13 14 13 12 10 11 13 13 14 15 17 18 18 20 21 23 25 27 27 27 28 29 32 35 38 41 42 43 43 42 46
26 23 20 20 21 20 20 18 20 20 21 19 18 18 16 15 14 14 16 16 18 18 19 21 22 25 26 27 28 27 27 28 29 30 33 34 38 39 37 38 39 38 44 45
33 27 25 22 22 22 21 21 20 21 21 21 23 22 22 23 23 23 25 23 24 26 28 29 30 31 30 32 34 35 36 38 38 38 40 41 42 43 46 48 46 43 40 42
39 34 31 29 29 29 28 27 28 28 27 30 30 30 33 34 34 36 35 36 34 36 36 36 40 42 42 40 40 44 43 43 45 45 44 43 44 45 47 48 51 52 48 44
51 45 38 38 38 39 39 37 36 36 38 39 39 39 42 45 45 45 45 47 48 49 48 50 51 52 52 53 55 53 53 55 55 57 57 59 55 58 57 50 48 48 49 50
70 56 51 42 43 44 45 46 44 43 43 44 44 43 42 43 44 44 45 47 50 50 51 53 54 56 59 64 64 64 66 65 66 64 62 60 60 67 70 63 64 63 59 57
88 68 59 57 48 48 46 47 52 52 49 48 48 48 48 47 48 51 53 52 53 55 58 60 60 60 60 59 62 65 68 70 69 65 64 62 65 67 73 85 86 82 78 69
100 87 65 68 68 53 55 52 56 55 54 54 55 53 55 55 54 56 58 64 68 69 69 74 79 84 84 88 88 82 76 74 71 71 70 71 69 68 82 99 91 93 92 87
60 100 99 77 67 77 63 65 61 63 66 63 66 67 62 65 68 66 61 63 67 69 74 77 77 82 85 86 84 87 87 86 85 84 86 84 82 80 73 68 76 80 84 79
54 46 84 100 94 75 73 70 68 73 75 74 74 72 72 69 69 68 69 69 73 75 74 77 79 83 83 82 85 88 92 93 90 89 90 90 89 83 77 72 72 80 84 80
95 83 56 59 98 99 79 70 79 95 93 92 89 93 92 82 78 83 85 81 75 77 78 80 85 83 91 92 90 86 89 96 93 84 95 99 89 84 78 74 73 75 73 73
82 94 64 56 68 97 94 88 73 82 91 100 100 97 90 87 83 83 85 86 88 82 78 73 78 87 91 92 96 96 92 85 91 100 82 81 78 77 79 74 71 68 74 70
84 100 92 66 51 78 87 97 98 99 88 92 98 100 98 91 92 90 92 95 98 96 84 84 88 85 85 87 85 93 100 100 99 93 97 94 86 72 73 82 76 70 67 71
64 97 100 100 73 48 75 91 90 93 89 100 100 100 100 92 90 90 91 98 96 82 81 80 82 89 83 85 96 96 99 99 100 100 90 100 96 81 73 77 77 66 67 67
64 64 86 100 100 55 38 56 100 87 96 100 90 100 92 84 89 91 90 85 89 98 86 86 96 77 100 86 88 100 100 98 100 100 100 100 100 96 85 80 81 66 64 63
50 67 68 84 100 100 70 30 50 69 95 93 81 76 78 92 94 92 96 98 95 97 90 76 100 65 100 91 94 91 98 93 98 100 100 100 100 100 98 87 86 75 65 63
60 58 61 71 93 100 97 82 95 98 95 90 85 90 92 79 67 69 66 60 68 92 100 100 100 57 74 78 88 82 77 92 100 100 100 100 100 98 100 100 89 81 80 72
81 54 57 55 73 95 100 100 100 100 100 100 100 100 96 87 87 88 78 68 66 74 78 100 100 65 78 80 90 84 81 83 100 100 100 100 100 100 100 100 100 83 75 73
100 97 56 53 58 70 89 100 100 100 100 99 100 86 73 73 84 73 82 93 93 92 93 100 100 68 69 78 89 76 80 94 100 99 100 100 100 100 100 100 98 86 77 77
100 100 87 71 52 58 74 89 90 100 100 100 100 100 88 64 46 60 89 97 100 100 100 93 87 61 67 84 90 86 87 78 87 98 98 97 100 100 100 100 97 92 86 78
98 100 100 87 60 52 60 64 74 100 97 98 100 100 79 52 53 28 53 97 100 99 99 99 96 81 87 91 83 91 90 88 86 93 98 95 100 100 98 100 100 92 90 77
100 100 100 100 64 44 51 66 80 91 95 94 97 99 99 73 55 40 17 24 71 100 100 100 100 100 99 84 94 100 100 100 100 100 100 98 100 100 97 100 100 99 97 77

GFSNW_250_rhum_087.txt.gz
RH
9 7 6 7 7 8 9 7 11 11 10 7 8 8 8 8 9 8 7 5 4 3 3 3 3 3 4 4 4 4 5 6 7 6 7 8 8 8 10 12 14 13 11 9
10 7 6 6 6 6 6 5 6 7 7 6 6 5 4 4 4 3 3 3 3 3 3 4 4 4 4 4 5 6 8 8 8 8 8 8 7 9 18 18 22 23 24 24
13 10 7 6 6 6 5 4 5 5 4 4 4 4 3 3 3 4 4 4 4 5 5 5 5 5 5 6 7 8 8 8 9 10 10 10 10 10 17 16 20 32 42 48
16 13 12 9 8 8 7 5 6 7 5 5 4 4 4 5 6 6 6 6 6 6 6 6 6 6 6 7 8 8 8 8 9 11 12 14 16 17 20 21 23 24 26 31
26 20 16 13 12 13 6 10 15 16 14 12 13 12 12 12 12 12 12 12 13 13 14 15 14 13 13 15 16 18 19 22 21 22 24 24 24 24 26 24 23 21 26 33
40 30 23 21 22 17 15 16 19 18 17 16 16 16 15 15 15 16 15 17 17 18 18 19 21 21 21 21 23 25 28 30 30 33 35 31 35 36 35 35 39 39 40 37
41 42 35 30 30 29 25 23 19 18 19 18 20 22 24 26 26 24 24 24 24 24 25 25 26 26 28 31 32 32 32 33 34 35 40 40 39 41 42 43 42 45 46 44
38 46 46 42 37 36 36 32 33 30 27 26 24 24 28 31 32 31 31 30 30 31 32 33 33 34 36 37 40 38 38 39 40 40 42 43 42 42 42 38 40 40 42 43
40 42 49 49 49 44 42 43 40 37 36 36 37 36 37 37 38 38 39 41 39 39 39 40 40 40 41 43 42 42 43 43 42 42 43 42 42 45 45 45 46 46 45 48
48 40 44 51 51 54 52 50 49 46 42 42 42 45 46 45 46 48 48 48 50 51 51 53 55 56 57 56 55 55 53 52 52 49 50 51 53 53 53 50 50 51 54 60
34 47 48 45 51 54 61 58 55 52 50 48 50 51 54 55 56 58 62 62 62 62 63 64 64 64 66 67 68 70 69 67 65 64 62 64 67 68 67 64 61 63 65 65
38 39 44 52 48 50 55 59 66 65 61 57 57 56 58 65 67 69 67 65 68 70 73 77 79 81 83 84 80 76 74 74 77 78 76 71 69 70 69 68 68 66 70 73
53 41 37 43 48 63 54 53 54 66 71 69 68 66 65 63 65 71 74 73 74 74 74 75 78 80 79 78 82 84 82 80 82 82 82 77 79 78 75 73 73 75 77 72
84 85 43 40 41 46 56 68 61 61 66 75 78 74 79 80 80 82 84 87 82 79 78 80 82 84 82 82 76 76 84 78 73 73 75 73 74 75 73 70 71 74 69 65
80 91 83 48 46 48 45 57 63 80 80 72 64 81 85 84 83 79 82 91 93 89 84 86 83 87 86 85 82 78 89 96 97 88 79 76 86 85 71 74 73 69 70 66
56 94 91 92 73 41 54 54 57 68 90 100 100 86 72 71 70 74 78 81 87 89 88 84 92 98 90 91 93 100 99 99 98 93 100 99 95 84 83 90 84 81 74 75
53 59 86 88 90 64 38 57 65 73 66 75 89 100 100 96 79 71 67 74 82 78 79 79 83 87 94 94 98 94 96 95 99 99 100 98 100 94 92 97 90 97 81 76
56 52 59 89 100 91 60 43 37 55 79 68 69 83 87 92 97 98 87 71 75 83 83 81 84 75 76 74 80 78 79 85 95 93 98 92 96 100 100 98 92 97 93 89
54 48 48 57 82 88 86 72 45 24 34 68 74 68 72 67 68 72 84 94 83 91 88 94 100 70 76 93 78 80 79 76 67 70 79 89 92 99 98 88 93 91 93 81
87 55 52 39 70 64 98 84 80 64 25 27 52 76 85 86 81 78 76 78 75 81 100 94 100 100 58 100 77 78 79 76 86 92 83 74 85 97 100 100 100 100 100 98
62 59 78 66 47 64 60 79 84 84 96 72 52 89 90 88 94 98 99 92 90 100 100 99 98 100 96 65 68 61 63 64 61 72 86 88 84 92 95 90 93 100 100 99
72 62 68 59 60 49 67 62 64 86 82 82 98 100 97 70 70 94 94 99 100 98 100 100 100 100 100 86 77 75 77 81 81 73 73 75 88 82 79 76 81 90 100 100
98 74 82 88 70 58 73 80 65 94 90 83 82 99 100 100 98 64 45 46 58 51 53 69 99 100 100 100 81 88 100 100 100 94 82 81 79 80 94 96 96 91 96 100
100 98 100 98 96 78 65 93 89 100 92 80 70 80 95 100 100 95 66 53 48 48 52 56 54 48 94 100 98 98 99 100 100 100 100 97 95 95 91 90 96 93 96 100
91 100 88 100 100 97 69 84 96 100 100 86 93 69 72 84 92 94 88 81 57 42 36 36 38 40 42 46 89 98 100 100 100 100 99 100 100 100 99 100 100 100 100 99
99 98 99 100 100 94 86 89 100 100 100 95 94 80 73 91 79 82 88 76 64 50 41 36 35 34 31 40 60 88 98 100 100 100 100 100 100 100 100 92 100 97 100 100
98 100 100 100 100 100 97 100 100 100 100 100 100 100 85 87 72 63 84 96 92 66 46 40 38 37 35 32 36 58 83 98 99 100 100 100 100 100 100 100 98 100 100 100

GFSNW_250_rhum_090.txt.gz
RH
14 10 6 5 4 4 4 3 5 6 8 9 10 11 10 10 11 14 14 11 8 6 5 4 4 4 4 6 7 8 7 7 9 7 9 9 7 7 8 10 8 12 11 12
20 13 10 7 5 4 3 3 4 3 4 4 4 4 4 4 4 4 4 5 4 4 4 5 5 6 8 8 9 9 11 10 9 10 11 14 8 11 13 15 19 22 17 20
28 22 14 11 11 7 4 4 4 4 4 4 4 3 3 4 4 4 4 5 6 6 7 8 10 10 11 11 12 14 13 12 11 11 13 15 13 14 18 22 25 25 32 43
31 34 26 19 14 10 8 10 11 10 8 7 6 6 4 4 6 6 6 7 7 8 12 12 11 11 13 14 13 14 13 13 14 14 14 14 14 14 16 19 20 21 27 39
31 36 37 34 29 25 19 18 18 15 14 14 14 14 14 14 16 15 16 17 17 17 19 20 22 22 23 22 21 21 22 22 23 22 23 22 24 22 22 22 23 23 22 25
34 31 38 41 39 36 34 30 27 25 23 21 20 20 20 20 21 23 22 25 25 26 27 27 26 27 28 28 28 28 28 29 30 31 32 31 31 31 32 31 30 34 36 40
43 35 34 39 46 43 40 39 38 37 35 32 29 31 29 29 30 30 32 34 35 34 34 36 37 36 36 37 36 35 34 34 35 37 40 41 40 40 39 38 37 37 37 37
69 48 37 38 44 52 49 44 42 40 40 41 40 39 37 36 36 35 37 38 38 38 38 38 38 38 39 40 43 44 44 46 49 52 55 57 54 54 54 51 53 51 54 53
50 39 46 40 41 48 56 56 51 46 47 48 50 51 49 47 46 48 48 49 49 47 46 46 47 47 48 48 48 47 50 51 52 53 56 60 60 60 60 56 49 47 52 54
76 74 53 41 41 42 48 53 59 57 54 56 60 61 59 56 54 54 56 56 56 56 56 55 54 54 55 55 57 57 58 58 57 58 58 59 58 58 55 53 53 51 52 55
65 77 83 60 41 45 44 48 51 55 62 63 61 59 63 67 67 66 64 63 63 64 64 65 64 62 61 63 63 66 66 68 69 70 71 72 72 70 69 69 69 68 67 63
48 71 85 100 67 35 42 51 49 51 53 53 56 67 71 72 72 74 70 68 68 65 63 62 64 65 71 68 65 66 65 65 65 64 66 68 72 70 70 68 64 62 61 57
39 47 69 80 100 71 39 40 58 60 54 64 74 69 67 73 74 76 76 71 69 70 75 73 73 73 70 69 69 67 66 65 64 64 62 61 64 64 60 59 57 55 54 57
37 38 46 66 83 93 75 46 34 54 71 72 73 90 98 85 79 75 74 74 72 71 76 80 78 76 80 84 79 76 79 85 88 83 74 72 77 72 71 67 66 65 70 72
31 50 38 45 57 69 95 93 57 32 38 73 83 76 80 84 84 79 76 75 78 77 79 78 80 88 78 76 74 73 76 83 80 76 76 74 78 76 77 75 76 84 85 81
51 42 46 41 41 46 64 67 94 59 33 32 61 86 81 76 81 90 88 81 75 78 83 92 84 78 82 87 89 86 84 79 77 82 83 88 88 78 79 81 84 88 88 91
77 46 33 55 51 52 57 68 66 100 84 77 26 32 59 79 83 82 78 74 77 86 90 87 81 71 69 75 86 81 76 77 81 66 65 74 76 80 84 86 87 93 98 94
88 61 38 39 64 54 60 63 52 69 90 91 72 30 22 31 53 64 70 85 100 100 100 99 100 100 80 94 96 61 63 67 67 69 73 77 79 86 90 97 98 98 97 93
86 88 61 39 42 67 53 61 58 58 60 74 96 94 63 39 32 30 48 74 76 98 100 100 100 100 100 100 100 100 96 89 82 73 64 68 78 87 95 99 98 98 99 100
81 91 81 60 42 48 75 65 69 56 54 53 48 86 98 86 69 60 46 45 39 44 56 47 56 51 49 56 53 78 94 100 100 99 94 100 99 100 100 100 99 100 100 100
68 77 82 69 61 52 53 84 77 76 68 61 69 52 100 90 97 84 84 86 82 65 54 49 55 63 69 60 60 54 53 57 64 84 99 100 100 100 100 100 100 100 100 100
55 65 70 71 77 76 64 81 100 93 89 83 79 69 65 93 83 85 89 95 99 98 91 85 72 62 58 48 45 46 49 47 44 60 87 99 99 98 100 100 100 100 100 93
79 89 55 64 79 76 91 67 100 90 100 100 100 96 80 67 89 100 89 91 84 96 99 99 94 82 71 55 40 33 33 32 30 33 52 88 100 100 100 100 100 100 99 88
77 82 100 74 89 96 80 77 96 100 96 86 96 96 82 96 72 98 89 78 74 77 88 86 85 96 96 81 64 43 35 31 34 30 27 42 64 90 98 100 100 100 100 100
67 76 100 100 100 100 88 93 84 97 100 97 89 100 97 99 89 100 88 92 71 80 74 78 80 82 88 94 99 81 61 50 40 46 55 49 42 49 64 87 96 97 100 100
84 57 81 100 100 100 92 83 95 98 100 92 76 100 100 98 100 100 83 100 100 87 77 73 75 79 75 73 94 85 85 71 73 62 58 65 66 64 62 55 52 54 66 89
96 95 100 100 100 100 99 69 98 98 100 100 92 94 100 100 99 92 94 98 100 100 84 79 90 91 76 70 84 100 98 95 93 84 81 77 72 80 78 65 59 57 50 61

GFSNW_250_rhum_093.txt.gz
RH
30 25 16 12 8 4 3 3 3 3 5 8 10 13 15 16 16 15 17 19 19 19 13 9 6 6 7 10 13 9 14 14 18 16 17 16 15 15 15 18 11 12 10 10
32 36 24 19 13 10 6 4 4 3 3 4 4 4 4 4 4 5 5 5 5 5 6 7 8 9 11 14 15 18 19 16 14 15 15 19 14 19 21 20 16 17 14 17
37 38 37 30 24 17 11 10 8 5 5 5 5 4 5 7 7 8 8 9 9 12 14 14 15 15 17 19 17 16 15 14 16 15 16 19 20 23 20 23 22 27 31 25
38 40 39 42 36 31 25 19 16 15 13 12 10 8 6 6 7 8 8 11 13 12 13 14 14 16 18 17 17 17 16 17 17 16 17 17 18 22 22 25 26 31 36 37
37 41 42 41 41 43 41 35 29 23 22 21 20 21 20 22 23 23 25 26 25 24 25 26 28 27 28 30 30 30 28 30 28 28 28 28 26 22 22 27 32 35 30 27
67 40 42 47 45 44 48 49 48 43 35 29 30 30 28 28 30 30 31 34 36 35 34 35 35 36 37 36 36 35 34 34 33 33 35 35 36 36 39 38 38 38 42 41
70 66 36 42 49 46 45 49 53 55 54 49 43 40 36 33 32 33 34 35 37 38 38 38 38 39 41 44 46 45 44 45 48 46 45 41 40 44 44 48 50 51 52 50
42 81 55 38 45 51 48 52 53 52 55 59 59 57 53 48 45 42 39 38 39 38 39 40 42 45 46 47 47 47 49 50 50 49 50 55 54 50 50 47 45 45 47 52
42 57 67 53 46 46 52 48 51 58 56 54 55 60 60 59 56 54 53 50 47 46 45 44 45 46 47 48 51 52 53 53 53 52 52 53 53 53 55 54 53 56 56 55
46 37 48 56 67 49 43 54 50 50 64 66 58 56 58 57 53 50 50 50 50 53 51 48 48 48 49 51 51 52 54 56 58 58 59 60 60 61 63 61 64 62 60 56
76 43 38 41 49 60 58 42 45 55 54 59 76 75 63 62 66 64 60 56 55 54 56 56 58 57 56 54 55 55 56 57 57 59 62 64 64 64 65 64 63 62 60 58
48 64 37 33 41 52 61 69 57 54 57 61 67 77 79 70 63 68 68 71 72 69 67 66 64 62 60 60 57 54 52 52 51 48 47 48 48 50 52 52 51 47 46 45
53 44 52 36 32 48 55 66 70 87 72 68 72 71 69 80 83 69 66 64 62 64 73 76 76 75 73 69 63 59 54 54 52 56 55 55 56 59 55 51 51 53 54 55
84 61 56 36 30 37 49 57 65 75 69 73 54 61 71 68 68 74 70 65 63 60 59 64 66 66 66 67 70 74 75 76 78 74 71 65 62 71 66 70 75 76 80 80
100 95 71 62 36 31 36 41 53 62 58 56 59 42 38 52 70 74 73 79 92 94 88 84 82 76 74 83 81 82 85 80 80 87 90 90 77 74 84 94 96 92 94 98
100 100 97 77 55 37 40 34 35 41 49 60 56 57 64 54 45 52 69 86 92 95 96 100 87 89 86 86 94 100 85 83 86 74 70 78 83 79 93 93 88 87 85 90
100 100 100 100 76 55 45 36 43 48 34 45 57 59 68 74 68 39 41 54 56 83 95 78 81 68 73 72 87 83 83 89 98 96 81 69 70 80 88 90 88 88 97 90
88 91 98 100 92 68 59 43 44 42 51 42 40 56 63 63 80 89 78 62 56 51 47 58 57 51 51 67 68 68 68 62 63 70 72 72 80 89 83 87 98 100 100 97
96 85 79 100 100 88 70 63 48 45 46 50 56 36 53 50 57 65 70 92 92 80 66 70 66 66 66 67 61 62 64 66 63 62 57 53 56 74 86 94 98 100 99 98
100 100 100 100 98 100 80 65 60 63 59 60 51 50 38 58 56 64 68 74 70 80 95 96 94 100 100 100 91 78 78 74 59 55 52 52 45 38 46 74 84 94 98 99
100 85 88 98 89 83 85 70 66 62 62 76 65 76 66 39 61 55 69 74 65 66 72 68 88 85 81 82 84 87 96 88 86 78 54 44 49 47 41 39 48 59 75 85
100 100 83 89 94 83 80 88 91 65 61 65 83 72 68 66 71 74 88 66 65 65 81 78 94 96 89 87 79 67 70 71 72 75 71 56 48 52 61 58 61 68 75 75
100 100 100 92 86 100 100 100 100 89 100 65 61 65 89 94 91 77 80 87 74 91 100 82 92 93 92 100 100 100 80 69 66 71 78 78 72 63 49 61 72 79 81 84
100 100 100 100 100 98 100 100 100 92 74 71 54 64 63 84 94 99 98 84 83 100 90 78 96 96 99 100 100 96 85 85 73 73 74 82 92 83 81 77 68 71 71 76
100 100 100 100 100 100 100 100 100 98 96 95 98 93 81 72 79 94 100 84 94 87 82 68 70 80 99 95 96 97 96 86 80 86 85 84 80 95 89 81 76 78 74 67
100 94 99 100 100 100 100 100 100 100 100 100 98 99 88 82 77 93 100 96 100 100 86 90 78 77 86 89 96 100 100 96 91 94 94 92 88 96 96 89 81 81 84 79
100 100 95 91 100 100 100 100 100 84 94 100 86 81 81 75 91 100 100 98 100 100 100 100 99 97 85 96 100 94 91 77 95 99 90 82 74 80 88 87 89 82 90 80

GFSNW_250_rhum_096.txt.gz
RH
34 39 34 36 34 20 14 7 6 4 3 4 5 9 16 19 20 21 21 22 26 26 22 21 21 14 12 13 14 17 26 26 38 30 31 20 19 14 13 15 15 15 16 15
24 38 39 39 44 39 24 19 13 7 5 6 4 5 6 8 8 8 8 9 8 9 10 11 11 14 20 22 25 24 25 27 30 27 27 27 22 19 22 26 27 27 20 23
22 26 40 39 42 50 48 39 25 19 15 11 9 8 8 9 9 11 13 15 14 14 15 17 20 22 27 30 32 30 30 30 33 33 32 32 25 27 25 34 42 46 39 37
36 22 28 41 42 41 46 53 53 38 26 22 18 17 16 15 14 13 13 14 15 15 16 19 20 19 21 23 22 22 22 24 25 27 30 33 34 36 36 38 47 44 48 58
44 35 28 27 39 43 43 46 48 52 52 42 31 31 29 26 25 26 26 26 28 31 32 32 34 33 34 34 34 35 34 33 32 35 39 40 39 43 37 36 36 32 44 48
40 40 32 26 26 34 42 46 46 45 44 52 53 48 40 34 32 32 32 33 33 35 34 33 34 36 36 37 37 39 41 44 43 43 44 42 44 44 42 40 36 34 32 34
34 41 37 31 30 28 34 40 47 48 51 47 46 48 51 49 46 44 42 41 42 44 44 43 44 43 42 43 43 42 41 39 38 39 39 40 41 43 43 43 44 44 44 48
42 35 42 45 37 28 40 30 39 51 56 56 54 52 49 49 50 48 47 46 46 45 48 50 53 52 54 55 56 56 56 54 53 54 55 56 51 52 53 57 59 61 63 63
50 35 52 36 40 52 36 45 39 41 59 66 63 56 53 50 51 52 53 57 60 62 60 55 54 56 58 58 58 59 59 61 62 62 62 63 62 61 63 64 62 64 64 61
91 48 36 57 40 50 61 49 42 44 46 65 77 72 62 57 52 53 54 56 57 58 59 59 60 61 62 60 60 60 57 55 55 54 56 58 62 62 61 60 60 58 56 59
84 75 44 59 56 43 46 45 48 47 42 36 53 76 75 67 66 60 53 52 51 55 59 59 59 55 54 56 53 54 55 57 58 58 55 54 54 57 56 56 54 55 56 56
99 100 77 75 59 66 49 34 38 41 42 38 42 39 56 78 75 69 66 70 71 71 65 65 65 67 69 68 67 66 67 65 67 73 69 64 60 57 58 57 61 63 66 66
100 100 92 85 67 59 62 47 39 32 34 43 38 37 46 39 46 61 74 77 86 83 80 82 83 86 82 87 91 93 87 75 78 75 81 84 84 80 79 67 68 70 62 61
98 100 100 95 82 65 51 50 52 45 36 28 30 36 30 30 29 32 39 45 57 79 72 74 74 70 74 77 85 92 80 94 93 91 97 89 87 91 82 76 77 78 92 96
100 98 100 100 100 96 72 56 48 44 50 43 31 30 35 37 38 38 32 34 40 42 52 62 61 59 56 60 80 94 70 67 86 82 82 84 80 76 72 74 80 83 86 86
100 100 93 100 100 98 91 66 60 51 40 41 44 40 36 33 41 52 51 48 49 45 38 43 50 64 63 60 51 54 55 66 74 79 80 80 82 74 67 62 63 63 69 87
100 100 100 100 100 100 100 72 64 51 60 53 55 48 44 43 34 32 43 57 59 58 61 66 65 51 61 69 82 84 76 84 82 86 82 72 69 68 61 56 54 47 37 48
100 100 100 100 100 98 100 82 63 54 48 61 66 65 56 52 43 38 34 37 45 54 62 65 59 59 64 68 80 92 87 81 88 82 77 75 77 71 70 64 52 52 46 36
99 100 100 100 100 100 100 100 98 85 71 68 63 72 71 60 52 48 45 47 55 58 74 79 65 66 58 53 58 63 68 70 72 74 71 71 63 63 69 60 59 48 48 50
69 82 96 100 100 100 100 100 100 100 94 70 85 70 69 65 69 64 58 47 50 51 86 86 68 59 71 68 78 81 77 84 92 83 75 63 72 65 64 54 48 45 52 59
91 70 100 100 100 100 100 100 100 100 100 95 77 62 65 63 91 86 68 62 57 55 66 80 94 62 74 88 98 99 100 98 96 77 82 76 84 77 63 61 59 58 58 62
100 97 81 90 100 100 100 100 100 100 100 92 80 80 86 82 84 77 87 78 90 95 70 71 73 53 68 92 96 90 93 98 100 86 88 77 78 69 65 64 58 66 68 70
100 100 100 97 87 100 99 100 100 100 100 100 100 94 91 96 86 86 75 96 99 92 86 71 81 65 57 61 100 94 92 99 98 98 76 69 67 66 75 68 69 64 66 66
100 100 100 100 79 78 100 100 100 100 100 100 100 100 100 96 74 62 61 84 99 100 95 87 95 79 100 100 100 87 100 91 100 100 85 88 63 94 82 79 79 64 70 59
100 100 100 100 99 83 100 100 100 100 100 100 100 100 100 100 100 89 81 78 90 95 80 100 87 71 85 100 100 100 100 98 100 100 100 94 80 82 82 100 87 82 65 68
88 74 99 100 100 100 97 100 100 100 100 100 100 100 96 98 100 100 98 85 85 73 84 93 80 89 93 97 100 100 100 100 97 99 100 94 100 99 97 95 86 96 83 72
44 48 47 76 100 100 100 100 100 100 100 100 100 100 94 90 98 100 100 100 86 82 76 79 98 100 100 100 100 100 100 100 100 100 96 90 90 82 91 99 100 95 82 79

GFSNW_250_rhum_099.txt.gz
RH
27 26 22 35 37 41 40 31 22 10 6 7 6 6 8 12 18 21 22 25 26 27 26 24 21 19 22 24 23 17 28 31 31 26 28 27 42 35 26 30 27 32 28 40
25 33 22 20 35 37 36 49 39 28 21 16 12 11 10 10 10 10 11 14 16 16 16 19 22 21 20 27 32 41 42 50 46 47 46 42 40 46 39 50 51 45 45 63
30 30 33 23 20 33 35 35 40 46 41 33 29 26 21 16 13 14 15 15 14 14 14 15 16 18 24 30 36 41 41 40 42 41 41 42 43 41 46 44 53 58 56 56
50 39 34 36 26 23 36 32 41 39 41 45 44 41 34 29 25 22 21 22 22 24 25 27 29 30 29 31 34 38 40 44 47 46 45 45 41 41 44 44 44 48 52 59
54 49 44 36 32 26 25 35 35 37 40 44 43 44 49 46 41 37 35 33 32 32 31 33 37 38 39 41 42 43 46 49 46 49 46 42 42 41 44 48 44 46 49 50
65 57 58 37 36 36 29 27 27 37 36 39 44 46 48 51 54 54 52 49 49 48 47 46 45 43 41 41 43 45 45 50 52 54 51 50 48 46 44 44 41 39 40 39
44 61 76 64 47 39 35 30 26 25 35 38 39 43 45 46 51 55 58 61 62 66 66 63 62 60 60 60 59 58 57 57 56 56 53 50 50 48 47 44 44 45 44 44
69 51 68 74 71 56 38 33 30 29 26 28 38 40 43 44 46 50 51 52 54 56 55 55 55 60 59 60 61 62 63 62 63 65 63 64 69 68 66 66 65 67 66 62
100 87 63 68 59 61 52 41 36 31 28 27 24 28 36 45 48 51 48 50 50 51 54 57 58 57 55 57 59 61 64 64 62 62 66 68 68 66 65 62 61 60 59 60
85 98 100 54 80 81 77 56 43 35 36 29 28 25 26 30 39 48 54 54 52 54 53 59 68 70 70 68 66 64 64 68 76 78 80 77 74 70 69 66 69 75 78 77
100 97 97 100 73 87 92 76 64 45 31 32 29 31 30 28 27 33 39 56 76 71 68 68 73 78 87 94 93 90 91 92 94 86 84 83 84 86 85 81 74 68 67 69
100 97 100 89 99 63 91 97 84 65 44 39 32 33 31 31 32 29 30 37 52 63 75 77 74 85 88 91 84 71 80 75 84 86 71 80 79 75 72 68 69 64 58 52
98 99 100 100 100 90 85 97 96 88 64 45 37 34 36 36 35 37 34 31 30 32 38 41 41 45 52 54 53 54 64 68 72 77 81 77 76 80 73 70 68 64 61 61
89 95 99 100 100 90 95 100 100 98 79 56 44 35 38 42 38 39 40 44 42 51 47 38 40 41 41 45 48 50 66 74 79 67 66 64 62 69 64 70 66 66 63 59
96 98 86 100 100 100 100 100 100 100 100 80 64 52 44 41 41 38 37 38 42 49 49 47 50 48 54 58 61 66 65 67 64 67 68 68 66 64 61 58 57 55 58 58
100 99 91 79 100 100 100 100 100 100 100 97 83 77 63 49 44 41 46 46 49 43 51 53 58 64 64 55 49 51 47 48 58 64 65 65 68 64 63 65 59 54 51 44
100 100 100 90 76 82 99 100 100 100 100 100 90 89 88 66 52 47 41 45 58 53 56 60 56 58 67 66 67 68 70 83 84 72 82 66 64 68 69 72 65 57 57 54
100 100 100 100 96 75 82 84 90 100 100 100 100 94 94 89 72 61 44 33 51 65 67 74 90 62 69 72 59 70 81 75 87 95 82 93 80 85 62 62 53 55 50 54
100 100 100 99 99 100 78 80 94 100 100 100 100 100 100 100 86 83 72 47 44 60 66 67 94 97 65 100 86 98 83 80 85 88 94 99 95 100 87 87 60 62 57 54
100 100 100 100 100 100 84 73 66 98 100 100 100 100 100 100 100 80 88 83 64 66 76 67 100 95 72 91 92 95 100 90 86 90 87 100 99 98 94 87 77 72 72 69
100 100 100 100 100 100 100 77 73 72 100 100 100 100 100 100 100 96 78 92 87 92 91 77 90 56 64 68 64 79 91 84 96 84 92 100 100 96 89 96 93 87 88 80
100 100 100 100 100 100 99 90 97 82 83 100 97 96 97 100 100 97 100 94 84 100 100 97 74 66 66 71 65 72 70 96 100 100 100 100 100 100 100 89 90 88 82 80
97 91 68 100 100 100 100 100 100 100 100 100 100 70 88 97 98 100 89 100 100 100 100 100 97 85 97 98 96 89 80 89 99 100 100 100 100 88 100 85 91 99 83 90
100 100 100 71 82 100 100 100 100 100 100 100 100 92 58 82 96 100 100 100 100 100 100 100 100 96 99 96 100 98 97 80 97 100 100 100 100 100 100 100 100 100 100 100
57 67 99 100 100 96 100 100 100 100 100 100 100 100 100 47 68 100 100 95 97 100 100 100 100 100 91 90 86 89 100 97 97 100 100 100 100 100 100 100 100 100 100 100
32 44 60 82 63 100 100 100 100 100 100 100 100 100 100 100 65 61 100 100 100 100 96 99 100 100 100 100 100 99 100 98 96 97 100 100 100 100 100 100 100 100 100 100
17 28 43 24 44 55 51 76 89 98 100 100 100 100 100 100 100 96 60 86 87 92 80 86 98 100 100 100 100 100 100 95 91 100 100 100 100 100 100 100 100 100 100 100

GFSNW_250_rhum_102.txt.gz
RH
20 26 28 26 29 33 32 38 36 26 18 14 14 12 9 11 16 21 25 26 28 28 26 26 23 29 33 32 38 41 42 36 35 44 44 43 40 39 58 52 74 69 76 73
21 22 30 31 25 24 31 34 31 31 39 34 30 24 18 17 16 16 14 16 19 24 29 38 40 41 42 45 39 33 30 29 39 45 50 53 58 51 54 64 70 65 72 77
26 21 24 36 32 24 23 23 31 34 42 40 40 42 36 31 28 25 21 20 25 25 25 28 30 35 39 40 39 39 46 56 59 51 46 46 50 53 53 51 47 51 56 60
53 27 25 29 45 38 24 25 24 30 35 41 43 44 50 50 46 40 36 36 35 35 38 38 40 42 43 45 50 49 48 46 49 54 56 50 47 50 48 55 53 53 57 60
60 59 40 26 32 47 40 28 26 26 25 33 36 41 46 49 52 53 55 53 46 45 48 50 50 54 58 60 62 62 65 70 69 69 64 65 63 61 63 61 55 50 46 47
93 73 49 44 35 32 44 38 24 23 22 25 26 39 41 44 47 52 52 54 60 62 63 64 66 70 71 71 71 71 70 70 69 69 69 68 66 65 64 62 62 62 60 58
92 94 69 65 43 43 27 46 38 27 26 24 28 28 35 46 51 47 48 50 50 52 49 53 55 57 58 60 61 60 60 61 62 63 61 62 62 60 61 58 58 57 57 57
100 92 78 100 69 73 41 42 47 41 30 25 29 27 27 32 43 57 66 61 61 62 62 66 67 67 65 69 73 78 84 85 80 78 72 71 70 69 69 70 65 63 64 61
100 100 100 100 73 95 83 52 51 49 45 28 23 31 30 28 33 41 51 56 65 69 75 80 74 74 70 71 78 78 74 70 69 73 71 66 68 70 70 72 67 64 65 68
77 99 100 100 95 77 88 83 69 62 55 47 34 28 32 32 32 30 34 43 50 49 59 69 76 74 67 68 70 72 73 68 69 70 67 66 64 66 67 66 65 66 64 64
71 63 59 100 95 98 89 98 87 86 60 56 43 42 30 32 32 33 35 35 37 39 40 40 40 45 56 58 56 60 67 71 71 76 71 65 63 65 62 68 68 63 69 66
92 98 86 100 100 100 100 100 100 96 93 72 56 50 50 38 33 31 38 41 41 34 34 38 42 44 44 49 56 57 58 61 61 55 56 60 60 61 62 57 52 49 52 51
91 100 100 99 99 100 100 100 100 100 100 87 81 61 62 52 46 38 30 41 44 47 44 43 45 46 49 54 55 60 63 66 66 63 64 63 63 64 63 61 58 55 50 44
90 100 100 98 90 81 100 100 100 100 100 100 96 84 75 65 37 43 44 33 41 45 44 50 52 60 71 73 68 67 68 68 67 64 68 79 73 66 79 71 54 54 50 50
90 100 100 100 100 99 83 100 100 100 100 100 100 96 87 84 62 42 49 52 35 48 50 50 58 59 59 66 76 77 78 69 66 75 90 78 80 80 77 94 82 66 60 59
100 80 58 87 100 100 100 100 100 100 100 100 100 100 100 91 79 78 77 44 59 41 43 61 58 55 61 65 64 64 58 59 66 84 79 86 80 76 83 82 85 85 77 78
100 100 91 76 86 99 100 100 96 100 100 100 100 100 100 100 100 61 100 76 66 66 49 51 69 59 56 57 58 62 73 78 68 62 60 64 78 94 100 100 82 77 72 70
100 100 100 100 69 72 76 97 100 100 100 100 100 100 100 100 100 99 77 99 84 71 72 67 63 49 44 69 68 76 73 73 72 79 79 64 65 100 93 100 100 72 89 97
100 100 100 100 100 79 71 66 91 100 100 100 100 100 100 100 100 100 98 84 92 83 81 65 69 56 51 86 92 90 91 88 94 86 92 90 76 84 97 100 100 100 82 83
100 100 100 98 99 89 74 50 64 91 93 100 100 100 90 100 100 100 100 100 100 79 88 58 82 63 82 100 100 98 100 99 100 97 97 95 82 82 95 92 97 100 100 100
78 87 91 93 97 98 99 98 58 84 98 100 100 100 100 88 88 95 100 100 100 100 76 85 97 81 100 100 100 100 100 100 100 100 100 100 100 100 100 100 100 100 100 100
100 100 100 100 79 75 71 75 100 98 85 96 100 100 100 100 99 94 100 97 84 99 100 91 100 73 90 100 100 100 100 100 95 95 96 100 100 100 100 95 98 100 100 100
100 100 99 91 94 75 93 97 89 100 100 97 78 77 100 100 100 100 100 100 99 85 79 100 89 51 52 96 96 100 100 100 99 80 76 99 100 100 100 100 100 100 100 100
100 100 100 100 99 100 100 100 100 99 97 89 81 84 73 75 100 100 92 100 100 100 100 100 80 86 100 100 81 47 86 100 88 82 79 93 100 100 100 100 100 100 100 100
80 74 73 66 65 91 89 92 100 100 100 88 70 58 52 56 58 90 100 99 100 100 100 100 80 78 72 84 95 91 68 74 83 63 66 90 98 100 100 100 100 100 100 100
42 47 50 68 56 65 73 61 73 73 71 92 86 78 65 54 35 37 80 100 100 100 100 100 100 98 83 66 67 82 99 86 57 48 72 92 100 90 100 100 100 100 100 100
31 35 33 45 44 46 27 33 36 38 46 46 51 54 62 44 35 45 35 85 100 100 92 100 98 83 100 100 99 80 69 81 69 58 72 87 86 88 100 96 100 100 100 100

GFSNW_250_rhum_105.txt.gz
RH
54 39 26 27 19 22 26 30 36 37 32 27 19 12 13 12 16 17 17 16 14 18 19 22 19 19 18 19 20 22 29 35 33 35 39 45 56 62 93 80 70 62 74 82
40 58 46 35 25 21 23 29 28 35 46 48 37 30 25 22 18 19 23 27 31 34 36 40 38 39 37 34 36 46 56 54 49 49 60 64 58 66 71 63 69 75 72 73
46 61 60 47 36 24 20 23 29 34 42 44 50 49 41 36 36 41 42 42 42 43 43 44 45 50 54 56 60 59 58 61 62 64 66 64 68 65 65 65 64 64 65 64
61 83 63 61 47 39 28 22 24 27 34 40 43 43 51 53 52 48 46 48 50 54 55 54 56 59 60 60 61 62 62 62 64 62 61 58 54 51 51 52 54 55 55 55
63 54 88 62 69 52 42 31 24 25 25 31 35 46 46 46 48 53 59 64 66 66 69 69 73 74 74 74 74 72 72 77 76 77 75 75 76 73 72 71 68 66 65 65
61 65 77 74 55 56 59 45 38 32 24 24 28 31 35 42 48 48 49 51 52 54 55 57 60 59 59 60 60 62 64 65 65 64 64 64 63 61 59 59 58 58 59 59
77 57 68 64 59 56 62 63 46 41 35 26 25 31 33 35 37 38 45 52 53 58 56 58 62 65 66 64 63 62 60 60 58 58 56 52 53 53 52 53 52 53 53 52
79 80 58 98 47 51 67 67 70 57 48 39 29 25 30 35 34 35 37 41 43 49 53 58 62 73 78 72 72 72 69 63 61 62 64 68 70 73 74 74 72 72 71 69
78 89 92 100 73 92 62 61 80 70 66 57 44 32 27 22 30 35 35 35 37 40 47 53 56 61 58 57 63 68 72 70 72 74 73 78 70 66 68 67 62 58 70 70
81 77 85 100 90 100 100 98 74 92 82 75 65 51 37 33 26 27 36 39 35 35 38 44 48 51 52 54 56 58 60 60 62 58 57 54 55 56 57 53 50 52 52 51
86 88 76 100 100 100 100 100 91 90 98 91 82 71 59 44 38 29 24 33 35 39 37 36 34 39 43 48 50 50 49 46 46 46 51 53 51 53 53 51 51 52 52 50
60 82 83 82 73 94 100 100 100 99 95 100 100 97 82 69 52 41 36 28 25 25 47 48 45 44 42 50 58 62 68 63 62 63 63 60 60 56 65 65 66 62 64 71
70 76 77 78 60 60 66 83 100 100 100 100 100 100 100 97 78 69 60 42 41 31 26 38 48 50 56 59 61 61 69 67 66 75 73 78 76 87 71 81 78 65 60 66
81 82 98 100 94 79 70 57 76 98 100 96 100 100 100 100 100 94 81 80 54 46 50 32 35 41 48 52 67 67 81 95 85 77 78 80 86 90 100 100 100 100 79 72
99 84 100 94 97 88 91 83 54 64 62 67 96 100 100 100 100 100 100 95 90 62 54 49 54 42 39 55 68 65 80 100 100 95 92 100 93 88 100 100 98 97 100 100
100 100 100 100 100 100 100 95 91 52 51 53 53 63 74 99 100 100 100 100 100 100 77 67 53 72 59 41 58 87 86 72 71 83 87 96 100 100 99 92 97 89 86 100
100 100 100 100 100 100 99 100 100 69 85 70 59 66 48 48 64 89 100 100 100 100 100 91 78 62 59 56 44 77 57 66 80 77 77 77 76 93 99 100 100 100 100 100
100 100 100 100 100 100 100 100 100 100 91 83 100 100 100 76 54 44 59 94 100 100 100 100 100 98 71 58 64 60 94 95 75 68 99 86 86 92 98 100 100 91 100 95
100 100 100 100 100 100 100 100 100 100 100 100 100 100 84 100 97 90 76 53 83 89 100 100 100 100 100 85 63 67 69 100 100 97 77 67 72 92 99 98 100 100 99 100
100 86 92 100 100 100 100 100 100 100 100 100 100 100 100 99 94 86 82 79 62 45 61 91 100 100 100 100 100 100 86 93 95 100 100 100 100 94 74 74 72 89 100 100
98 88 72 61 59 93 100 96 100 100 100 100 100 100 100 98 86 91 81 73 77 62 65 95 100 100 100 100 100 100 100 93 62 86 57 56 83 96 97 97 98 65 76 95
100 98 93 83 58 54 52 78 95 100 100 100 100 100 100 100 100 91 77 62 73 64 44 53 93 100 94 100 98 76 93 100 100 99 94 100 100 89 66 62 94 94 76 79
100 100 100 100 100 100 100 100 94 88 100 100 100 100 100 100 99 84 70 57 64 68 69 44 74 60 77 82 85 100 76 59 89 100 100 100 98 93 97 100 99 98 86 84
100 100 100 100 100 100 100 100 100 100 100 86 86 85 74 81 92 100 100 86 74 51 57 92 84 62 38 48 64 78 100 100 66 65 100 99 92 100 100 90 97 99 100 99
70 76 89 98 100 100 100 100 100 100 100 100 100 100 100 100 94 85 82 87 91 87 73 75 68 56 42 39 41 56 71 99 100 100 100 100 100 100 100 100 100 100 100 100
44 49 67 86 81 76 69 67 73 88 73 70 74 74 85 70 70 75 77 77 75 83 63 52 42 42 40 42 43 53 86 97 100 100 75 86 100 100 100 100 100 100 100 100
50 45 46 52 59 65 57 50 53 54 48 40 40 42 46 39 35 44 49 47 72 72 60 51 38 37 41 34 25 31 53 67 83 100 100 87 86 76 92 100 100 100 100 100

GFSNW_250_rhum_108.txt.gz
RH
48 30 20 28 26 22 26 32 32 36 38 35 33 26 24 25 24 23 20 14 12 15 20 23 26 27 29 30 32 34 31 27 24 21 18 21 27 35 35 39 40 45 58 67
62 47 26 33 30 27 24 32 34 32 37 45 46 41 36 35 34 38 36 33 30 28 26 27 23 24 26 27 27 29 29 33 38 42 39 42 44 54 60 58 60 59 64 68
41 44 44 30 41 32 31 22 24 28 32 36 38 40 46 49 46 42 41 42 42 41 42 41 43 44 46 49 49 50 50 56 64 71 64 68 73 82 86 76 65 63 65 61
55 41 52 63 37 42 40 31 26 23 31 32 36 36 40 40 43 46 52 55 54 52 51 48 48 51 53 53 53 55 57 58 58 59 59 60 62 62 61 60 62 61 63 62
47 78 74 73 64 57 50 42 41 33 28 23 32 34 37 36 37 40 44 45 50 52 52 52 54 56 59 61 62 61 60 60 59 60 58 58 58 58 56 56 56 55 55 55
51 60 99 57 80 81 63 70 49 48 47 36 26 26 33 32 37 40 42 40 40 43 48 52 55 56 54 54 55 55 56 55 55 56 56 58 58 62 62 61 62 60 58 54
51 58 100 69 97 76 90 64 88 63 65 59 42 32 26 30 29 32 37 42 45 49 43 43 46 50 52 52 52 51 52 53 51 55 56 56 58 60 61 60 54 50 55 62
64 49 73 100 100 99 97 100 98 80 86 79 64 52 45 35 27 25 33 36 38 42 48 51 51 52 53 52 56 62 60 58 61 61 55 54 52 53 52 50 54 54 55 53
51 68 58 50 65 93 100 100 99 98 98 100 91 72 72 60 50 34 36 30 41 42 39 41 43 43 44 49 54 55 53 54 57 56 61 72 77 71 67 65 68 73 74 71
70 60 64 78 54 58 69 62 100 100 100 100 100 87 91 78 66 58 49 36 31 35 43 46 49 52 52 55 56 58 57 63 60 64 65 73 80 95 98 95 68 61 65 67
75 88 78 63 73 54 49 50 86 94 100 100 100 100 100 97 88 71 68 60 48 37 34 38 46 52 59 62 62 69 70 74 71 72 71 76 83 97 100 100 100 100 100 82
100 89 67 60 84 80 54 44 34 46 49 58 64 72 100 100 100 92 87 81 72 60 52 44 36 41 52 59 65 70 87 100 99 99 100 100 96 89 83 99 85 91 86 88
100 100 100 79 60 68 92 60 39 32 49 40 42 49 58 87 100 100 100 100 91 93 90 73 62 49 37 48 58 62 69 84 65 61 66 89 91 88 91 89 72 79 77 88
100 100 100 100 100 97 88 100 99 79 39 41 34 32 33 43 62 87 88 92 100 100 100 100 94 81 70 56 40 54 83 63 63 70 75 80 74 73 70 70 88 89 97 99
100 100 100 100 100 100 100 100 100 100 100 92 64 48 32 26 34 46 55 45 43 53 79 98 100 100 100 95 82 66 46 35 57 75 66 58 78 69 61 65 63 74 88 87
100 100 100 100 100 100 100 100 100 100 100 100 100 100 81 62 46 42 67 60 48 42 42 71 66 79 100 100 100 100 94 76 54 38 74 100 100 100 100 92 89 90 87 88
100 100 88 100 100 100 100 100 100 92 95 100 100 100 100 100 95 83 93 79 74 68 62 49 53 54 66 98 82 98 100 100 100 93 50 49 64 79 100 100 100 100 100 100
100 100 100 100 100 100 100 100 100 100 99 100 100 100 100 100 100 100 98 96 100 100 94 76 58 53 51 41 62 68 87 100 100 100 100 100 87 59 66 72 66 97 100 100
100 100 100 100 100 100 100 100 98 100 100 100 100 100 100 100 100 100 97 100 100 100 100 100 98 98 87 65 45 38 46 60 83 100 100 100 100 100 100 90 81 96 100 100
70 98 100 100 100 100 99 88 100 100 100 100 100 100 100 100 100 100 100 100 100 100 100 100 100 100 100 87 73 56 49 38 42 64 76 85 88 94 100 100 100 100 100 100
89 73 72 81 97 96 97 99 100 95 85 99 100 97 99 90 91 100 100 100 100 100 100 100 100 100 100 100 86 58 41 51 61 55 39 50 52 68 86 92 95 88 95 100
100 100 82 85 67 90 90 78 94 98 98 100 96 97 98 96 92 74 69 78 98 100 100 100 100 100 100 100 100 88 64 50 46 52 56 46 42 58 51 56 81 96 100 92
100 100 100 73 89 98 100 100 100 100 100 100 100 100 96 90 90 81 82 86 85 77 99 100 100 99 100 87 69 76 87 83 79 68 62 60 52 50 69 74 75 97 100 100
100 100 98 100 98 100 100 100 100 100 100 100 100 100 100 100 92 84 82 81 76 75 80 77 79 77 68 75 95 96 87 74 76 69 64 62 69 59 54 65 83 85 100 100
100 98 93 85 96 100 100 100 100 100 100 100 98 100 95 78 77 74 75 82 96 93 100 98 81 80 73 66 72 72 60 53 52 49 51 57 52 54 59 67 82 72 93 100
91 100 97 95 93 90 100 100 100 99 87 93 100 100 90 89 76 62 61 65 74 95 100 100 91 68 58 48 45 43 46 38 38 45 51 44 52 54 64 67 79 74 89 91
58 76 89 71 78 88 82 82 78 99 77 73 69 61 62 60 53 70 79 68 63 60 55 42 40 42 39 34 30 27 25 27 29 24 33 38 49 49 45 42 72 70 63 81

GFSNW_250_rhum_111.txt.gz
RH
36 70 34 53 36 30 29 29 30 29 29 36 44 42 34 21 19 14 15 21 27 29 28 28 29 30 31 31 32 33 32 33 34 34 35 36 36 31 24 39 38 45 53 64
30 58 63 48 54 47 38 29 31 28 28 35 36 39 41 46 37 31 30 24 18 16 17 20 22 27 31 32 32 32 31 31 28 25 31 39 50 61 65 64 60 62 68 66
39 37 67 65 55 47 52 37 32 33 29 30 33 35 38 41 40 46 49 44 38 35 36 34 34 31 29 30 31 33 34 34 37 36 43 51 52 50 50 51 51 53 54 54
45 51 68 67 60 42 63 71 37 43 30 33 37 34 34 38 42 45 46 44 45 49 53 54 51 49 48 47 49 50 52 53 55 55 56 56 57 56 56 56 56 57 58 57
40 53 88 98 82 62 57 77 72 35 57 33 31 33 40 37 38 40 41 44 50 52 54 53 50 47 45 45 46 46 47 48 51 52 55 56 59 62 63 65 70 76 80 71
50 57 49 71 90 84 57 73 84 43 44 69 57 36 33 37 44 40 38 40 41 45 48 53 54 52 55 57 58 61 63 63 62 61 61 62 57 55 51 51 51 52 53 49
72 53 49 48 42 54 73 77 84 62 54 46 70 75 38 43 34 38 47 50 48 42 40 42 46 52 56 52 51 51 50 51 55 60 59 55 55 60 64 70 68 67 62 58
98 77 60 60 45 48 40 54 70 70 67 51 52 66 81 53 57 47 41 42 37 48 55 52 51 46 49 54 54 54 57 59 62 76 90 98 98 93 86 96 90 74 62 59
100 100 83 68 58 55 51 30 40 42 59 46 63 60 80 80 70 80 64 54 52 52 42 46 54 57 58 65 66 72 74 81 88 82 65 65 78 91 81 76 93 73 70 59
100 100 89 77 70 56 68 52 36 28 29 44 37 48 65 89 76 98 91 80 76 72 66 59 50 49 49 57 65 70 74 74 82 84 97 100 100 94 97 88 84 96 99 100
100 100 100 96 76 64 58 74 64 42 29 24 32 35 35 37 62 87 89 96 92 93 93 88 87 81 63 52 48 46 50 61 66 66 61 63 70 70 67 71 80 83 87 94
100 100 100 100 100 91 72 59 76 90 66 47 34 21 24 30 27 36 49 66 71 83 88 95 90 82 94 88 80 67 59 51 48 46 71 70 58 56 63 60 63 69 67 74
100 100 100 100 100 100 100 99 90 100 100 100 94 77 43 28 28 26 29 33 74 61 49 54 53 60 85 70 63 81 100 86 78 71 64 55 59 92 100 100 95 87 97 92
100 100 100 100 100 100 100 100 100 100 100 100 100 100 100 90 97 74 52 38 32 33 29 40 42 59 82 64 57 45 78 99 100 100 97 94 95 76 70 78 100 100 96 91
72 66 94 100 100 100 100 99 100 100 100 100 100 100 100 100 100 100 100 93 78 70 59 40 41 55 75 68 53 46 72 51 55 75 91 100 100 100 100 100 96 98 89 81
100 100 100 88 85 100 100 100 100 100 91 100 100 100 100 90 81 100 100 100 100 100 100 100 85 47 75 90 64 71 49 45 46 45 42 41 51 78 92 98 100 100 100 100
100 100 100 100 100 96 87 96 78 74 100 100 100 100 100 100 95 99 99 88 100 100 100 100 100 100 93 100 100 100 92 90 80 66 69 62 46 40 41 54 64 75 74 74
98 100 100 100 100 100 100 100 100 100 100 100 100 100 100 98 99 100 92 95 100 100 100 100 100 100 100 100 97 100 100 100 100 100 94 85 75 60 51 44 43 47 52 65
100 98 100 100 100 100 100 100 100 100 100 100 100 100 100 100 100 100 100 100 100 100 100 100 100 100 100 100 100 100 94 100 100 100 99 92 82 76 74 70 51 49 55 75
100 100 100 100 100 99 100 100 100 100 100 100 100 100 100 100 100 100 100 100 100 100 100 100 100 100 100 100 100 100 100 100 100 100 100 99 98 88 75 55 60 68 74 75
93 100 100 100 100 100 100 100 100 100 100 100 99 100 99 98 100 100 100 100 98 98 100 100 100 100 100 100 93 78 97 95 95 94 92 89 91 87 57 54 57 74 71 74
91 86 99 100 100 100 100 100 92 96 92 87 83 70 72 96 99 90 77 68 74 91 100 100 100 100 100 100 100 91 82 70 68 71 81 84 88 82 59 60 56 71 74 61
84 100 94 100 100 100 100 100 100 100 95 75 72 69 69 80 80 70 72 90 83 75 84 100 100 100 100 100 100 100 84 70 71 77 81 84 71 60 60 62 62 75 63 50
58 66 70 92 100 97 100 100 100 100 100 99 83 79 73 66 71 82 72 62 60 83 100 98 94 100 100 100 85 64 64 60 52 48 53 59 55 60 59 55 60 60 62 43
63 66 62 87 96 95 95 91 86 89 94 100 100 92 85 77 74 74 70 63 66 96 100 100 100 94 86 75 68 65 69 73 70 68 58 51 58 64 52 52 55 48 50 41
56 58 65 91 100 91 76 76 79 59 55 76 87 88 89 73 56 52 62 64 84 99 92 89 81 75 52 30 31 53 71 77 76 61 53 46 41 35 36 44 37 31 38 42
46 74 78 68 73 88 63 46 64 83 74 56 48 53 52 40 43 99 100 100 94 84 64 47 32 20 17 17 20 27 31 36 40 35 30 31 24 22 15 26 23 20 22 30

GFSNW_250_rhum_114.txt.gz
RH
62 67 37 59 25 35 29 34 38 34 36 37 40 42 36 30 24 19 25 30 28 26 25 25 25 25 26 26 26 28 28 30 28 30 31 32 35 37 39 41 39 42 50 52
45 74 49 39 48 26 26 38 33 39 35 40 40 40 38 42 38 38 37 30 24 24 29 32 31 30 30 30 31 32 32 33 35 36 36 34 34 32 35 41 43 45 54 52
41 51 63 44 38 38 28 21 36 31 41 41 39 41 43 40 38 41 47 47 43 41 42 39 35 31 31 31 30 30 31 34 36 39 41 45 48 49 52 54 55 55 55 54
61 45 35 52 54 33 42 30 24 24 36 37 38 43 43 41 42 44 42 40 41 46 49 51 51 51 51 50 50 49 49 49 49 50 49 51 52 54 57 56 55 56 50 45
73 63 40 43 43 48 35 48 35 26 20 32 50 39 39 42 45 45 44 48 50 48 45 44 46 49 53 55 55 55 54 56 55 52 46 45 44 47 47 48 50 54 54 59
90 86 68 57 46 37 35 32 38 36 29 23 26 44 43 38 45 44 48 43 43 45 46 46 44 43 42 43 47 50 51 51 53 56 61 66 70 76 69 60 58 58 63 81
100 94 91 83 57 50 40 35 30 26 34 41 29 36 35 39 40 43 39 41 50 52 51 50 53 57 60 62 64 60 53 58 75 93 91 85 74 74 65 69 65 68 66 65
100 100 100 99 84 69 75 59 41 34 25 33 36 36 36 45 44 39 43 37 34 31 35 42 46 47 50 52 52 55 59 67 69 70 71 72 70 65 72 70 69 70 70 80
100 100 97 100 100 88 74 63 63 51 32 28 27 30 33 32 36 53 59 56 39 43 53 50 37 37 42 48 45 47 44 45 52 53 54 53 50 57 55 58 61 55 49 50
74 100 100 100 99 82 100 95 64 58 78 46 58 32 27 26 30 30 32 37 43 49 51 51 48 45 41 38 39 54 58 55 54 57 60 60 61 77 93 98 98 91 91 95
51 92 100 100 100 96 99 99 90 77 78 96 81 89 62 36 35 33 27 27 29 34 28 32 36 44 43 37 44 51 52 53 67 72 72 68 77 75 67 77 77 90 91 100
98 90 77 100 100 99 100 100 100 100 84 79 100 99 94 93 67 75 62 59 65 47 38 40 33 31 33 31 47 56 59 54 60 65 91 83 92 98 100 100 99 100 99 100
94 79 79 88 100 100 100 100 100 100 100 100 97 92 100 100 100 100 97 100 100 100 95 88 88 76 64 47 32 29 38 46 47 46 51 53 46 51 49 72 76 76 74 82
100 100 93 93 100 100 100 100 100 100 100 100 99 99 90 100 100 100 100 86 96 100 100 100 100 100 99 89 90 68 47 35 44 41 55 51 42 60 63 60 48 47 61 65
100 100 100 100 100 100 100 63 100 100 100 100 100 97 91 95 97 100 100 100 99 91 100 100 100 100 100 100 100 100 97 98 90 80 88 93 88 91 68 70 68 74 70 60
70 68 96 100 100 89 70 71 94 100 100 100 100 100 100 100 100 100 100 100 100 100 100 100 100 79 100 100 100 100 100 100 95 100 100 100 100 100 100 99 92 83 86 79
53 57 69 86 100 100 100 100 90 78 98 100 100 100 100 97 100 100 100 100 100 100 100 100 99 82 81 100 100 100 100 100 100 100 100 100 100 100 100 100 100 100 99 84
60 62 62 59 78 100 100 100 100 100 100 100 100 100 100 100 100 100 100 100 100 100 100 100 100 100 100 100 100 100 100 100 100 100 100 100 100 100 100 100 88 68 66 74
60 61 67 58 65 72 91 100 100 100 100 100 100 100 100 100 100 100 100 100 100 100 100 100 100 100 100 100 100 100 100 100 100 100 100 93 100 100 100 90 72 84 100 99
98 74 71 69 75 72 66 73 94 100 100 100 100 100 100 100 100 100 100 100 100 100 100 100 100 100 100 100 100 100 100 100 100 100 100 100 100 100 100 95 94 100 100 100
100 83 82 73 77 86 79 76 80 98 100 100 100 100 100 100 100 99 84 84 97 99 100 100 100 100 100 100 100 98 94 92 73 67 64 66 77 95 100 100 100 100 89 84
100 86 86 72 82 74 77 79 81 76 92 97 100 100 100 100 100 100 100 92 88 87 91 100 100 100 100 100 100 100 89 65 59 69 76 94 100 100 99 100 83 87 98 99
90 98 90 72 77 80 66 82 77 52 59 79 80 75 76 92 100 100 100 100 100 100 100 97 95 94 100 98 95 65 69 71 76 78 76 76 61 56 55 62 64 63 70 76
82 100 100 99 68 74 82 76 62 47 40 50 56 68 66 68 64 84 87 98 100 100 100 100 100 100 84 60 41 39 46 45 56 62 55 55 52 53 51 52 43 38 40 35
69 85 90 84 74 87 84 86 76 50 40 38 43 56 65 70 55 51 65 90 100 100 100 100 97 74 60 44 37 31 46 57 62 61 50 42 41 44 53 32 30 32 28 28
42 51 74 78 97 97 78 74 70 47 34 42 48 44 50 58 54 65 70 89 100 100 99 85 67 41 24 21 21 17 22 29 36 50 46 41 46 30 29 27 26 27 30 23
55 79 100 100 100 100 98 47 52 68 61 38 34 34 37 34 40 57 82 100 100 73 40 27 27 32 32 24 21 22 31 33 29 38 36 30 31 23 25 24 18 14 16 17

GFSNW_250_rhum_117.txt.gz
RH
41 41 47 47 30 22 28 28 31 33 31 37 48 54 38 23 23 28 28 27 26 27 25 23 21 22 24 26 29 30 34 36 41 43 41 38 38 36 34 36 34 35 29 33
49 45 41 41 40 28 21 30 30 34 33 38 37 41 46 52 45 33 25 28 30 29 29 30 29 28 27 27 28 30 31 34 34 35 35 34 33 34 34 31 34 44 47 45
67 55 48 35 38 33 24 21 24 26 40 34 39 37 40 42 45 48 49 42 33 28 28 30 30 30 30 31 32 31 31 32 32 32 32 31 32 41 49 49 46 47 48 50
88 70 64 45 48 36 32 26 22 23 28 33 34 35 41 42 40 38 43 46 46 48 48 48 44 41 37 35 35 36 38 40 42 44 48 48 47 47 48 50 44 47 58 57
100 96 90 79 60 54 41 28 34 24 21 24 26 30 33 33 34 38 43 42 40 38 38 38 39 40 43 45 45 46 44 43 42 43 43 42 44 46 49 49 50 49 52 56
99 100 97 85 70 74 55 36 29 30 30 24 24 24 28 34 32 33 31 32 35 40 44 45 47 45 45 46 46 45 46 49 49 51 56 56 54 57 55 58 70 58 61 62
92 97 100 100 83 97 72 62 39 36 29 30 27 27 22 25 26 26 28 35 34 28 29 32 36 35 38 43 47 47 48 47 52 56 53 55 56 61 58 56 53 59 71 79
64 93 100 100 81 84 88 100 83 55 55 42 29 28 27 24 23 21 24 25 26 26 25 31 29 30 30 31 34 35 36 39 38 41 42 39 37 45 50 60 59 62 66 59
88 65 88 100 100 87 78 73 100 79 77 78 57 52 35 33 30 29 35 30 27 25 28 28 25 30 28 30 32 34 33 32 37 43 48 53 48 46 52 60 68 72 71 74
86 91 79 63 90 100 100 89 99 100 95 85 93 95 80 66 54 50 60 61 61 64 60 61 51 52 44 29 29 33 40 42 44 47 44 41 46 47 52 59 57 62 72 86
93 67 86 88 60 96 71 100 100 92 99 100 100 82 100 95 100 95 89 84 82 89 95 94 92 89 72 65 53 49 40 32 42 44 36 40 36 43 45 48 52 49 48 48
100 100 100 100 99 98 92 74 100 100 100 91 89 100 100 97 70 98 100 100 100 97 85 93 94 95 96 98 79 76 80 66 62 49 44 55 53 52 61 66 63 62 63 56
100 100 98 97 91 100 100 100 87 100 100 100 97 100 100 100 100 93 77 100 100 100 100 97 87 100 100 100 100 98 95 97 97 100 81 84 83 97 95 92 97 86 80 83
92 100 100 100 78 76 100 100 100 79 99 100 97 100 100 100 100 100 100 94 99 100 100 100 100 98 94 100 100 100 99 100 100 100 100 100 100 100 100 100 100 100 100 97
62 66 84 100 100 100 100 100 100 100 100 100 100 92 93 100 97 99 87 100 100 100 100 100 100 100 100 100 100 82 70 94 100 100 100 100 100 100 100 100 100 100 100 100
49 52 60 73 77 91 83 100 100 100 100 100 100 85 56 88 100 100 100 100 100 100 100 100 100 100 100 100 100 100 90 100 92 96 100 100 100 100 100 100 100 100 100 100
51 45 47 59 68 73 73 75 98 99 100 100 100 100 100 100 100 84 74 97 97 96 68 94 100 100 100 100 100 100 100 100 100 100 99 100 100 100 100 100 100 100 100 100
55 54 55 60 61 66 75 74 76 74 65 82 95 100 100 100 100 100 100 100 100 100 100 100 100 100 100 100 100 100 100 100 100 100 100 100 100 100 100 100 100 100 95 87
74 75 70 73 79 60 60 89 88 74 65 67 70 76 85 98 100 100 100 100 100 100 100 100 100 100 100 100 100 100 100 100 100 92 93 93 94 100 100 100 99 94 89 89
98 71 71 75 88 70 77 75 93 100 67 60 67 64 73 81 78 94 100 100 100 100 100 100 100 100 100 100 100 100 100 93 76 86 90 94 88 78 72 86 96 96 90 88
100 100 79 100 100 88 77 70 71 89 90 94 99 88 80 95 81 75 78 81 90 98 100 100 100 100 100 100 100 100 87 85 95 90 89 94 97 99 96 88 84 88 87 72
94 100 100 100 100 98 97 98 100 98 83 79 85 83 76 80 96 86 76 80 71 74 82 99 100 100 100 100 100 70 88 100 100 100 100 100 100 100 100 99 89 88 92 81
85 93 100 100 100 100 100 100 100 100 100 100 100 96 77 76 78 92 85 72 64 69 76 78 88 84 89 80 69 80 94 99 100 100 100 100 88 83 86 89 74 67 52 36
79 85 84 98 100 100 100 92 98 100 100 98 80 86 84 74 72 88 63 57 50 50 55 64 70 71 59 51 45 51 62 61 69 90 96 93 83 72 61 41 32 25 25 25
85 94 88 94 99 96 82 89 88 81 86 87 83 88 80 84 72 61 60 60 67 93 100 62 32 35 39 42 49 47 48 49 49 56 54 49 53 47 38 37 32 27 24 28
81 78 86 87 97 93 83 77 75 68 66 62 66 64 57 50 44 48 52 60 99 100 61 40 25 21 22 27 32 35 39 36 39 53 50 44 39 32 27 31 26 20 20 20
73 77 64 62 63 53 61 61 54 56 50 40 32 24 20 21 26 42 75 90 56 37 28 23 17 17 19 20 20 21 21 24 26 27 31 29 25 23 24 21 21 19 17 15